[[{"header":{"parameterUnit":"m.s-1","parameterCategory":1,"la1":30.6,"la2":29.2853,"lo1":-89.7004,"lo2":-87.6739,"dy":0.0162,"dx":0.0183,"nx":112,"ny":82,"refTime":"2024-05-21T00:00:00:Z","depth":0,"parameterNumber":2,"parameterNumberName":"U-component_of_WINDS"},"data":[0.0,0.0,0.0,0.0,0.0,0.0,0.0,0.0,0.0,0.0,0.0,0.0,0.0,0.0,0.0,0.0,0.0,0.0,0.0,0.0,0.0,0.0,0.0,0.0,0.0,0.0,0.0,0.0,0.0,0.0,0.0,0.0,0.0,0.0,0.0,0.0,0.0,0.0,0.0,0.0,0.0,0.0,0.0,0.0,0.0,0.0,0.0,0.0,0.0,0.0,0.0,0.0,0.0,0.0,0.0,0.0,0.0,0.0,0.0,0.0,0.0,0.0,0.0,0.0,0.0,0.0,0.0,0.0,0.0,0.0,0.0,0.0,0.0,0.0,0.0,0.0,0.0,0.0,0.0,0.0,0.0,0.0,0.0,0.0,0.0,0.0,0.0,0.0,0.0,0.0,-4.8593,-5.2305,-5.4023,-5.5254,-5.6113,-5.4609,-5.2207,-4.8906,0.0,0.0,0.0,0.0,0.0,0.0,0.0,0.0,0.0,0.0,0.0,0.0,0.0,0.0,0.0,0.0,0.0,0.0,0.0,0.0,0.0,0.0,0.0,0.0,0.0,0.0,0.0,0.0,0.0,0.0,0.0,0.0,0.0,0.0,0.0,0.0,0.0,0.0,0.0,0.0,0.0,0.0,0.0,0.0,0.0,0.0,0.0,0.0,0.0,0.0,0.0,0.0,0.0,0.0,0.0,0.0,0.0,0.0,0.0,0.0,0.0,0.0,0.0,0.0,0.0,0.0,0.0,0.0,0.0,0.0,0.0,0.0,0.0,0.0,0.0,0.0,0.0,0.0,0.0,0.0,0.0,0.0,0.0,0.0,0.0,0.0,0.0,0.0,0.0,0.0,0.0,0.0,0.0,0.0,0.0,0.0,0.0,0.0,0.0,0.0,0.0,0.0,0.0,0.0,-4.7218,-5.2168,-5.2949,-5.3457,-5.4316,-5.2793,-5.0644,-4.7969,0.0,0.0,0.0,0.0,0.0,0.0,0.0,0.0,0.0,0.0,0.0,0.0,0.0,0.0,0.0,0.0,0.0,0.0,0.0,0.0,0.0,0.0,0.0,0.0,0.0,0.0,0.0,0.0,0.0,0.0,0.0,0.0,0.0,0.0,0.0,0.0,0.0,0.0,0.0,0.0,0.0,0.0,0.0,0.0,0.0,0.0,0.0,0.0,0.0,0.0,0.0,0.0,0.0,0.0,0.0,0.0,0.0,0.0,0.0,0.0,0.0,0.0,0.0,0.0,0.0,0.0,0.0,0.0,0.0,0.0,0.0,0.0,0.0,0.0,0.0,0.0,0.0,0.0,0.0,0.0,0.0,0.0,0.0,0.0,0.0,0.0,0.0,0.0,0.0,0.0,0.0,0.0,0.0,0.0,0.0,0.0,0.0,0.0,0.0,0.0,0.0,0.0,0.0,-4.5574,-4.7757,-5.1533,-5.1971,-5.2168,-5.2558,-5.1465,-4.9648,-4.7051,-4.4785,0.0,0.0,0.0,0.0,0.0,0.0,0.0,0.0,0.0,0.0,0.0,0.0,0.0,0.0,0.0,0.0,0.0,0.0,0.0,0.0,0.0,0.0,0.0,0.0,0.0,0.0,0.0,0.0,0.0,0.0,0.0,0.0,0.0,0.0,0.0,0.0,0.0,0.0,0.0,0.0,0.0,0.0,0.0,0.0,0.0,0.0,0.0,0.0,0.0,0.0,0.0,0.0,0.0,0.0,0.0,0.0,0.0,0.0,0.0,0.0,0.0,0.0,0.0,0.0,0.0,0.0,0.0,0.0,0.0,0.0,0.0,0.0,0.0,0.0,0.0,0.0,0.0,0.0,0.0,0.0,0.0,0.0,0.0,0.0,0.0,0.0,0.0,0.0,0.0,0.0,0.0,0.0,0.0,0.0,0.0,0.0,0.0,0.0,0.0,0.0,0.0,0.0,-4.7379,-4.8711,-5.1075,-5.1208,-5.1113,-5.1113,-4.9805,-4.8027,-4.582,-4.2285,0.0,0.0,0.0,0.0,0.0,0.0,0.0,0.0,0.0,0.0,0.0,0.0,0.0,0.0,0.0,0.0,0.0,0.0,0.0,0.0,0.0,0.0,0.0,0.0,0.0,0.0,0.0,0.0,0.0,0.0,0.0,0.0,0.0,0.0,0.0,0.0,0.0,0.0,0.0,0.0,0.0,0.0,0.0,0.0,0.0,0.0,0.0,0.0,0.0,0.0,0.0,0.0,0.0,0.0,0.0,0.0,0.0,0.0,0.0,0.0,0.0,0.0,0.0,0.0,0.0,0.0,0.0,0.0,0.0,0.0,0.0,0.0,0.0,0.0,0.0,0.0,0.0,0.0,0.0,0.0,0.0,0.0,0.0,0.0,0.0,0.0,0.0,0.0,0.0,0.0,0.0,0.0,0.0,0.0,0.0,0.0,0.0,0.0,0.0,0.0,0.0,0.0,-4.7162,-4.94,-5.1191,-5.0723,-5.0273,-5.0273,-4.7266,-4.4941,-4.3945,-3.9902,0.0,0.0,0.0,0.0,0.0,0.0,0.0,0.0,0.0,0.0,0.0,0.0,0.0,0.0,0.0,0.0,0.0,0.0,0.0,0.0,0.0,0.0,0.0,0.0,0.0,0.0,0.0,0.0,0.0,0.0,0.0,0.0,0.0,0.0,0.0,0.0,0.0,0.0,0.0,0.0,0.0,0.0,0.0,0.0,0.0,0.0,0.0,0.0,0.0,0.0,0.0,0.0,0.0,0.0,0.0,0.0,0.0,0.0,0.0,0.0,0.0,0.0,0.0,0.0,0.0,0.0,0.0,0.0,0.0,0.0,0.0,0.0,0.0,0.0,0.0,0.0,0.0,0.0,0.0,0.0,0.0,0.0,0.0,0.0,0.0,0.0,0.0,0.0,0.0,0.0,0.0,0.0,0.0,0.0,0.0,0.0,0.0,0.0,0.0,0.0,0.0,0.0,-4.4895,-4.7125,0.0,-4.95,-4.9158,-4.8565,-4.7314,-4.5497,-4.2996,0.0,0.0,0.0,0.0,0.0,0.0,0.0,0.0,0.0,0.0,0.0,0.0,0.0,0.0,0.0,0.0,0.0,0.0,0.0,0.0,0.0,0.0,0.0,0.0,0.0,0.0,0.0,0.0,0.0,0.0,0.0,0.0,0.0,0.0,0.0,0.0,0.0,0.0,0.0,0.0,0.0,0.0,0.0,0.0,0.0,0.0,0.0,0.0,0.0,0.0,0.0,0.0,0.0,0.0,0.0,0.0,0.0,0.0,0.0,0.0,0.0,0.0,0.0,0.0,0.0,0.0,0.0,0.0,0.0,0.0,0.0,0.0,0.0,0.0,0.0,0.0,0.0,0.0,0.0,0.0,0.0,0.0,0.0,0.0,0.0,0.0,0.0,0.0,0.0,0.0,0.0,0.0,0.0,0.0,0.0,0.0,0.0,0.0,0.0,0.0,0.0,0.0,-4.1519,-4.3993,-4.6255,0.0,-4.8432,-4.8113,-4.7489,-4.6433,-4.4584,-4.1686,0.0,0.0,0.0,0.0,0.0,0.0,0.0,0.0,0.0,0.0,0.0,0.0,0.0,0.0,0.0,0.0,0.0,0.0,0.0,0.0,0.0,0.0,0.0,0.0,0.0,0.0,0.0,0.0,0.0,0.0,0.0,0.0,0.0,0.0,0.0,0.0,0.0,0.0,0.0,0.0,0.0,0.0,0.0,0.0,0.0,0.0,0.0,0.0,0.0,0.0,0.0,0.0,0.0,0.0,0.0,0.0,0.0,0.0,0.0,0.0,0.0,0.0,0.0,0.0,0.0,0.0,0.0,0.0,0.0,0.0,0.0,0.0,0.0,0.0,0.0,0.0,0.0,0.0,0.0,0.0,0.0,0.0,0.0,0.0,0.0,0.0,0.0,0.0,0.0,0.0,0.0,0.0,0.0,0.0,0.0,0.0,0.0,0.0,0.0,0.0,0.0,0.0,-4.1657,-4.4965,-4.7431,-4.8379,-4.7702,-4.7201,-4.728,-4.418,-4.1539,0.0,0.0,0.0,0.0,0.0,0.0,0.0,0.0,0.0,0.0,0.0,0.0,0.0,0.0,0.0,0.0,0.0,0.0,0.0,0.0,0.0,0.0,0.0,0.0,0.0,0.0,0.0,0.0,0.0,0.0,0.0,0.0,0.0,0.0,0.0,0.0,0.0,0.0,0.0,0.0,0.0,0.0,0.0,0.0,0.0,0.0,0.0,0.0,0.0,0.0,0.0,0.0,0.0,0.0,0.0,0.0,0.0,0.0,0.0,0.0,0.0,0.0,0.0,0.0,0.0,0.0,0.0,0.0,0.0,0.0,0.0,0.0,0.0,0.0,0.0,0.0,0.0,0.0,0.0,0.0,0.0,0.0,0.0,0.0,0.0,0.0,0.0,0.0,0.0,0.0,0.0,0.0,0.0,0.0,0.0,0.0,0.0,0.0,0.0,0.0,0.0,0.0,0.0,-4.0684,-4.4007,-4.6293,-4.6575,-4.642,-4.627,-4.6238,-4.4791,-4.2651,-3.9777,0.0,0.0,0.0,0.0,0.0,0.0,0.0,0.0,0.0,0.0,0.0,0.0,0.0,0.0,0.0,0.0,0.0,0.0,0.0,0.0,0.0,0.0,0.0,0.0,0.0,0.0,0.0,0.0,0.0,0.0,0.0,0.0,0.0,0.0,0.0,0.0,0.0,0.0,0.0,0.0,0.0,0.0,0.0,0.0,0.0,0.0,0.0,0.0,0.0,0.0,0.0,0.0,0.0,0.0,0.0,0.0,0.0,0.0,0.0,0.0,0.0,0.0,0.0,0.0,0.0,0.0,0.0,0.0,0.0,0.0,0.0,0.0,0.0,0.0,0.0,0.0,0.0,0.0,0.0,0.0,0.0,0.0,0.0,0.0,0.0,0.0,0.0,0.0,0.0,0.0,0.0,0.0,0.0,0.0,0.0,0.0,0.0,0.0,0.0,0.0,0.0,0.0,-4.0246,-4.3246,-4.5333,-4.5684,-4.575,-4.5764,-4.5749,-4.4685,-4.2699,-3.9652,0.0,0.0,0.0,0.0,0.0,0.0,0.0,0.0,0.0,0.0,0.0,0.0,0.0,0.0,0.0,0.0,0.0,0.0,0.0,0.0,0.0,0.0,0.0,0.0,0.0,0.0,0.0,0.0,0.0,0.0,0.0,0.0,0.0,0.0,0.0,0.0,0.0,0.0,0.0,0.0,0.0,0.0,0.0,0.0,0.0,0.0,0.0,0.0,0.0,0.0,0.0,0.0,0.0,0.0,0.0,0.0,0.0,0.0,0.0,0.0,0.0,0.0,0.0,0.0,0.0,0.0,0.0,0.0,0.0,0.0,0.0,0.0,0.0,0.0,0.0,0.0,0.0,0.0,0.0,0.0,0.0,0.0,0.0,0.0,0.0,0.0,0.0,0.0,0.0,0.0,0.0,0.0,0.0,0.0,0.0,0.0,0.0,0.0,0.0,0.0,0.0,0.0,-4.0169,-4.272,-4.4624,-4.5518,-4.5594,-4.5631,-4.5693,-4.4094,-4.2047,-3.9551,0.0,0.0,0.0,0.0,0.0,0.0,0.0,0.0,0.0,0.0,0.0,0.0,0.0,0.0,0.0,0.0,0.0,0.0,0.0,0.0,0.0,0.0,0.0,0.0,0.0,0.0,0.0,0.0,0.0,0.0,0.0,0.0,0.0,0.0,0.0,0.0,0.0,0.0,0.0,0.0,0.0,0.0,0.0,0.0,0.0,0.0,0.0,0.0,0.0,0.0,0.0,0.0,0.0,0.0,0.0,0.0,0.0,0.0,0.0,0.0,-4.4178,0.0,0.0,0.0,0.0,0.0,0.0,0.0,0.0,0.0,0.0,0.0,0.0,0.0,0.0,0.0,0.0,0.0,0.0,0.0,0.0,0.0,0.0,0.0,0.0,0.0,0.0,0.0,0.0,0.0,0.0,0.0,0.0,0.0,0.0,0.0,0.0,0.0,0.0,0.0,0.0,0.0,-4.0169,-4.272,-4.4624,-4.5518,-4.5594,-4.5614,-4.5622,-4.4064,-4.2029,-3.948,-3.6922,0.0,0.0,0.0,0.0,0.0,0.0,0.0,0.0,0.0,0.0,0.0,0.0,0.0,0.0,0.0,0.0,0.0,0.0,0.0,0.0,0.0,0.0,0.0,0.0,0.0,0.0,0.0,0.0,0.0,0.0,0.0,0.0,0.0,0.0,0.0,0.0,0.0,0.0,0.0,0.0,0.0,0.0,0.0,0.0,0.0,0.0,0.0,0.0,0.0,0.0,0.0,0.0,0.0,0.0,0.0,0.0,0.0,0.0,0.0,0.0,-4.5773,0.0,0.0,0.0,0.0,0.0,0.0,0.0,0.0,0.0,0.0,0.0,0.0,0.0,0.0,0.0,0.0,0.0,0.0,0.0,0.0,0.0,0.0,0.0,0.0,0.0,0.0,0.0,0.0,0.0,0.0,0.0,0.0,0.0,0.0,0.0,0.0,0.0,0.0,0.0,0.0,-4.0131,-4.2393,-4.4201,-4.5479,-4.5594,-4.5441,-4.5017,-4.3816,-4.2189,-4.0011,-3.749,0.0,0.0,0.0,0.0,0.0,0.0,0.0,0.0,0.0,0.0,0.0,0.0,0.0,0.0,0.0,0.0,0.0,0.0,0.0,0.0,0.0,0.0,0.0,0.0,0.0,0.0,0.0,0.0,0.0,0.0,0.0,0.0,0.0,0.0,0.0,0.0,0.0,0.0,0.0,0.0,0.0,0.0,0.0,0.0,0.0,0.0,0.0,0.0,0.0,0.0,0.0,0.0,0.0,-5.3199,-5.3014,-5.2252,-5.2252,-5.2252,-5.2215,-5.1546,-4.9689,-4.7125,0.0,0.0,0.0,0.0,0.0,0.0,0.0,0.0,0.0,0.0,0.0,0.0,0.0,0.0,0.0,0.0,0.0,0.0,0.0,0.0,0.0,0.0,0.0,0.0,0.0,-4.17,-4.147,0.0,0.0,0.0,0.0,0.0,0.0,0.0,0.0,0.0,0.0,0.0,0.0,-4.0092,-4.2008,-4.3739,-4.5421,-4.5594,-4.5248,-4.4374,-4.3566,-4.2354,-4.0612,-3.8104,-3.6346,0.0,0.0,0.0,0.0,0.0,0.0,0.0,0.0,0.0,0.0,0.0,0.0,0.0,0.0,0.0,0.0,0.0,0.0,0.0,0.0,0.0,0.0,0.0,0.0,0.0,0.0,0.0,0.0,0.0,0.0,0.0,0.0,-4.9151,-4.9262,0.0,0.0,0.0,0.0,0.0,0.0,0.0,0.0,0.0,0.0,0.0,0.0,0.0,0.0,-5.1209,-5.3445,-5.4226,-5.3491,-5.564,-5.6312,-5.5652,-5.5652,-5.5652,-5.5652,-5.554,0.0,-4.9577,-4.8872,0.0,0.0,0.0,0.0,0.0,0.0,0.0,0.0,0.0,0.0,0.0,0.0,0.0,0.0,0.0,0.0,0.0,0.0,0.0,0.0,0.0,0.0,-4.4748,-4.397,-4.3893,-4.3855,0.0,-4.0412,-3.7757,-3.7546,0.0,0.0,0.0,0.0,0.0,0.0,0.0,0.0,-4.0169,-4.2008,-4.3739,-4.5421,-4.5594,-4.5248,-4.4374,-4.3566,-4.2354,-4.0612,-3.8104,-3.6346,-3.5538,-3.3718,0.0,0.0,0.0,0.0,0.0,0.0,0.0,0.0,0.0,0.0,0.0,0.0,0.0,0.0,0.0,0.0,0.0,0.0,0.0,0.0,0.0,0.0,0.0,0.0,0.0,0.0,0.0,0.0,0.0,-4.9003,-5.0105,-4.9647,-5.005,-4.9976,0.0,0.0,0.0,0.0,0.0,0.0,0.0,0.0,0.0,-5.3472,-5.4435,-5.5011,-5.5104,-5.6654,-5.7066,-5.6314,-5.7386,-5.7762,-5.7489,-5.7489,-5.7489,-5.7471,-5.7515,-5.5997,-5.3346,-5.1658,-4.98,-4.7813,0.0,0.0,0.0,0.0,0.0,-4.3054,-4.3718,0.0,0.0,0.0,0.0,0.0,0.0,0.0,0.0,0.0,0.0,0.0,0.0,0.0,0.0,-4.4998,-4.5037,-4.5037,-4.5037,-4.3181,-4.1258,0.0,-3.9142,-3.7738,-3.5911,0.0,0.0,0.0,0.0,-3.8892,-4.0969,-4.272,-4.4239,-4.5479,-4.5171,-4.4528,-4.3701,-4.2854,-4.1835,-4.0573,-3.8565,-3.7276,-3.693,-3.4795,-3.3045,0.0,0.0,0.0,0.0,0.0,0.0,0.0,0.0,0.0,0.0,0.0,0.0,0.0,0.0,0.0,0.0,0.0,0.0,0.0,0.0,0.0,0.0,0.0,0.0,0.0,0.0,0.0,0.0,-5.0196,-5.0949,-5.0563,-5.1573,-5.1573,0.0,0.0,0.0,0.0,0.0,0.0,-5.3463,-5.3766,-5.4562,-5.5981,-5.7262,-5.8227,-5.8839,-5.9282,-5.9212,-5.8644,-5.8441,-5.8371,-5.8393,-5.8393,-5.8393,-5.8393,-5.8443,-5.769,-5.621,-5.4089,-5.2122,-5.0228,-4.8203,-4.7293,-4.7033,-4.6438,-4.5677,-4.5138,-4.6364,-4.6271,-4.5435,-4.4395,0.0,-4.3053,-4.1159,0.0,0.0,0.0,0.0,-4.3489,-4.4323,0.0,-4.4797,-4.546,-4.5594,-4.5594,-4.5594,-4.5094,-4.4201,0.0,-4.1758,-4.0489,-3.8365,0.0,0.0,0.0,0.0,-4.0469,-4.195,-4.322,-4.4316,-4.519,-4.4489,-4.3662,-4.2835,-4.2181,-4.1335,-4.0265,-3.8815,-3.7892,-3.768,-3.5641,-3.4122,-3.3256,0.0,0.0,0.0,0.0,0.0,0.0,0.0,0.0,0.0,0.0,0.0,0.0,0.0,0.0,0.0,0.0,0.0,0.0,0.0,0.0,0.0,0.0,0.0,0.0,0.0,0.0,0.0,0.0,0.0,-5.2931,-5.3075,0.0,0.0,0.0,0.0,-5.4051,-5.4216,-5.5244,-5.7574,-5.8437,-5.9226,-6.007,-6.0181,-6.026,-6.0296,-5.9575,-5.926,-5.9343,-5.8588,-5.8282,-5.8393,-5.8393,-5.8393,-5.8393,-5.8393,-5.7913,-5.7029,-5.5515,-5.3478,-5.1249,-5.0302,-4.9447,-4.8779,-4.8723,-4.8203,-4.7534,-4.7608,-4.7107,-4.655,-4.7237,-4.6001,-4.4186,-4.3855,-4.2476,0.0,0.0,-4.3467,-4.4065,-4.4925,-4.5333,-4.5556,-4.5594,-4.5594,-4.5594,-4.5594,-4.5575,-4.5267,0.0,-4.3528,-4.2662,-4.1712,0.0,-4.12,-4.0381,-4.1066,-4.2008,-4.2912,-4.3104,-4.347,-4.4278,-4.3643,-4.2816,-4.1942,-4.1827,-4.1104,-3.9457,-3.8507,-3.7623,-3.6788,-3.5904,-3.5026,-3.4148,-3.2487,0.0,0.0,0.0,0.0,0.0,0.0,0.0,0.0,0.0,0.0,0.0,0.0,0.0,0.0,0.0,0.0,0.0,0.0,0.0,0.0,0.0,0.0,0.0,0.0,0.0,0.0,0.0,0.0,-5.5427,-5.6414,0.0,-5.5629,-5.5482,-5.5794,-5.6638,-5.7207,-5.8107,-5.9465,-5.9832,-6.0346,-6.1153,-6.1172,-6.1172,-6.1172,-6.0382,-5.9745,-5.9278,-5.847,-5.8106,-5.8133,-5.8133,-5.8133,-5.8152,-5.8219,-5.7527,-5.6255,-5.5775,-5.4823,-5.3512,-5.2121,-5.1454,-5.1231,-5.0711,-5.032,-5.0005,-4.9485,-4.9094,-4.8686,-4.7943,-4.6801,-4.5696,-4.5635,-4.4838,-4.4065,-4.4599,-4.4612,-4.4585,-4.5063,-4.5263,-4.539,-4.5559,-4.5594,-4.5594,-4.5594,-4.5594,-4.5518,-4.521,-4.4451,-4.3605,-4.2777,-4.2643,-4.2335,-4.147,-4.2527,-4.3528,-4.3835,-4.4355,-4.4605,-4.4335,-4.3585,-4.2758,-4.1865,-4.0816,-3.9931,-3.9342,-3.7969,-3.7019,-3.6712,-3.5923,-3.5084,-3.4225,-3.3609,-3.2352,0.0,0.0,0.0,0.0,0.0,0.0,0.0,0.0,0.0,0.0,0.0,0.0,0.0,0.0,0.0,0.0,0.0,0.0,0.0,0.0,0.0,0.0,0.0,0.0,0.0,0.0,-5.6492,-5.785,-5.9208,-5.9593,-5.8529,-5.8896,-5.9336,-5.9593,-5.9869,-6.0364,-6.1172,-6.1208,-6.1465,-6.1998,-6.1998,-6.1998,-6.1998,-6.0951,-6.0144,-5.9588,-5.851,-5.7997,-5.7997,-5.7997,-5.7997,-5.7997,-5.8088,-5.7375,-5.6125,-5.5899,-5.5376,-5.463,-5.3283,-5.2824,-5.2826,-5.2326,-5.1955,-5.1566,-5.0435,-4.9896,-4.9487,-4.8411,-4.7554,-4.6903,-4.6903,-4.6451,-4.5911,-4.5911,-4.5786,-4.5614,-4.5495,-4.5621,-4.5736,-4.5636,-4.5594,-4.5594,-4.5594,-4.5594,-4.5594,-4.5594,-4.5133,-4.4566,-4.4028,-4.3932,-4.3739,-4.3162,-4.4028,-4.4739,-4.4739,-4.4998,-4.4844,-4.3989,-4.3143,-4.2316,-4.145,-4.0085,-3.9169,-3.8873,-3.7507,-3.6577,-3.6308,-3.55,-3.4795,-3.4205,-3.3917,-3.2795,-3.0827,0.0,0.0,0.0,0.0,0.0,0.0,0.0,0.0,0.0,0.0,0.0,0.0,0.0,0.0,0.0,0.0,0.0,0.0,0.0,0.0,0.0,0.0,0.0,-5.5371,-5.6377,-5.7831,-6.0199,-6.1208,-6.1704,-6.1704,-6.1704,-6.2034,-6.2823,-6.2163,-6.2053,-6.286,-6.2872,-6.2879,-6.286,-6.286,-6.2817,-6.278,-6.1208,-6.0401,-6.0382,-5.8767,-5.7997,-5.7997,-5.7997,-5.7997,-5.7997,-5.7997,-5.7538,-5.6748,-5.5923,-5.5144,-5.4423,-5.3754,-5.3499,-5.3499,-5.3499,-5.2982,-5.2059,-5.0396,-4.9399,-4.8824,-4.8805,-4.8302,-4.7722,-4.7722,-4.7181,-4.6531,-4.6531,-4.6873,-4.7074,-4.619,-4.6418,-4.6655,-4.5788,-4.5586,-4.5586,-4.5586,-4.5586,-4.5586,-4.5586,-4.5586,-4.5605,-4.5594,-4.5594,-4.5594,-4.5594,-4.5594,0.0,-4.5594,-4.4855,-4.4028,-4.322,-4.2365,-4.1481,-4.0604,-3.9758,-3.8892,-3.8046,-3.7154,-3.6308,-3.5538,-3.468,-3.4218,-3.4199,-3.3372,-3.2519,-3.1692,0.0,0.0,0.0,0.0,0.0,0.0,0.0,0.0,0.0,0.0,0.0,0.0,0.0,0.0,0.0,0.0,0.0,0.0,0.0,0.0,0.0,0.0,-5.4233,-5.5485,-5.8318,-6.075,-6.1998,-6.3411,-6.4292,-6.4292,-6.4292,-6.4383,-6.4604,-6.442,-6.4383,-6.4604,-6.4622,-6.4347,-6.3759,-6.3741,-6.3447,-6.2798,-6.1208,-6.0401,-6.0382,-5.8767,-5.7997,-5.7997,-5.7997,-5.7997,-5.7997,-5.7997,-5.7538,-5.6748,-5.5923,-5.5137,-5.4372,-5.3649,-5.342,-5.3499,-5.3499,-5.2982,-5.2151,-5.1099,-5.0212,-4.9437,-4.8827,-4.853,-4.8363,-4.8363,-4.7789,-4.716,-4.716,-4.6836,-4.6363,-4.5731,-4.5825,-4.5941,-4.5317,-4.5312,-4.5448,-4.5448,-4.5448,-4.5448,-4.5448,-4.5448,-4.5485,-4.5577,-4.5594,-4.5594,-4.5594,-4.5594,0.0,-4.5522,-4.5357,-4.4895,-4.3989,-4.3152,-4.2315,-4.1436,-3.9471,-3.8185,-3.7936,-3.6516,-3.5602,-3.5439,-3.5149,-3.4712,-3.4143,-3.3894,-3.3062,0.0,0.0,0.0,0.0,0.0,0.0,0.0,0.0,0.0,0.0,0.0,0.0,0.0,0.0,0.0,0.0,0.0,0.0,0.0,0.0,0.0,0.0,-5.2961,-5.5341,-5.7054,-5.9862,-6.226,-6.3697,-6.5007,-6.5944,-6.6274,-6.5999,-6.5815,-6.5815,-6.5503,-6.5319,-6.5319,-6.5319,-6.5099,-6.4622,-6.4273,-6.3851,-6.3356,-6.1392,-6.0401,-6.0382,-5.8767,-5.7997,-5.7997,-5.7997,-5.7997,0.0,-5.7997,-5.7721,-5.7207,-5.6069,-5.5317,0.0,0.0,0.0,0.0,0.0,-5.286,-5.2125,-5.1626,-5.0725,-4.9675,-4.9214,-4.8846,-4.8605,-4.8605,-4.8273,-4.7885,-4.7885,-4.7659,-4.7181,-4.6165,-4.6215,-4.6247,-4.5228,-4.5211,-4.54,-4.54,-4.54,-4.54,-4.54,0.0,0.0,-4.5504,-4.5513,-4.5513,-4.5513,-4.5513,-4.5504,0.0,-4.5495,-4.5178,-4.4298,-4.3453,-4.2618,-4.1757,-3.9668,0.0,0.0,0.0,-3.5553,-3.4885,-3.4824,0.0,0.0,0.0,0.0,0.0,0.0,0.0,0.0,-3.3378,-3.3288,0.0,0.0,0.0,0.0,0.0,0.0,0.0,0.0,0.0,0.0,0.0,0.0,0.0,0.0,0.0,0.0,-5.4055,-5.6789,-5.924,-6.0992,-6.284,-6.5045,-6.6074,-6.6916,-6.7614,-6.7045,-6.6641,-6.6641,-6.598,-6.5576,-6.5576,0.0,0.0,0.0,0.0,-6.4273,-6.409,-6.1722,-6.0493,-6.0382,-5.8859,-5.8088,-5.7997,-5.8088,-5.8088,-5.7997,-5.7997,-5.7941,-5.774,-5.6216,-5.5504,-5.5188,-5.3775,-5.3185,-5.3185,-5.3185,-5.2747,0.0,0.0,0.0,0.0,-4.9745,-4.9251,-4.8698,-4.8606,-4.8569,-4.8569,-4.8569,-4.8709,-4.8518,-4.6936,-4.6883,-4.684,-4.5264,-4.5096,-4.5302,-4.5322,-4.5332,-4.5342,-4.5381,-4.539,-4.539,-4.539,-4.54,-4.54,-4.54,-4.54,0.0,-4.54,-4.54,-4.5113,-4.4403,0.0,0.0,-4.1893,-4.0226,-3.8884,-3.8071,-3.7206,-3.6056,-3.458,-3.4426,-3.4311,-3.4235,-3.433,-3.4668,-3.5293,-3.5492,-3.5979,-3.6677,-3.4389,-3.4172,0.0,0.0,0.0,0.0,0.0,0.0,0.0,0.0,0.0,0.0,0.0,0.0,0.0,0.0,0.0,-5.3602,-5.557,-5.7621,-5.9822,-6.1711,-6.3496,-6.5188,-6.6601,-6.7522,-6.7696,-6.754,-6.7467,-6.7467,-6.7302,-6.7228,-6.7228,-6.7228,0.0,-6.6292,-6.6127,-6.5411,-6.409,-6.2273,-6.1043,-6.0401,0.0,0.0,-5.8015,-5.8676,-5.8621,-5.7997,-5.7997,-5.7629,-5.6969,-5.5996,-5.484,-5.3628,-5.3314,-5.3185,-5.3185,-5.3185,-5.3093,-5.2876,-5.2215,-5.1795,-5.1338,-5.0034,-4.9521,-4.9283,-4.8565,-4.8363,0.0,-4.8363,-4.7942,-4.7261,-4.6285,-4.5834,-4.5391,-4.442,-4.4402,-4.4663,-4.4861,-4.4927,-4.5004,-4.5277,-4.5319,-4.5319,-4.5319,-4.537,-4.54,-4.54,-4.54,-4.541,-4.5409,-4.54,-4.5314,-4.5109,-4.4355,-4.3522,-4.2651,-4.1045,-3.9698,-3.8847,-3.8021,-3.7398,-3.7012,-3.6383,-3.5714,-3.5004,-3.5684,-3.5761,-3.5215,-3.6624,-3.7406,-3.7548,-3.6477,-3.6488,0.0,0.0,0.0,0.0,0.0,0.0,0.0,0.0,0.0,0.0,0.0,-4.9576,-5.1454,0.0,-5.4076,-5.5936,-5.7243,-5.8751,-6.0673,-6.204,-6.3441,-6.5075,-6.6691,-6.7687,-6.7687,-6.7687,-6.7687,-6.7687,-6.7687,-6.7687,-6.7687,-6.7687,-6.7504,-6.71,-6.6714,-6.5925,-6.4714,-6.264,-6.119,-6.0401,-5.957,-5.8786,-5.8033,-5.8817,-5.8767,-5.7997,-5.7997,-5.7538,-5.6712,-5.55,-5.4289,-5.3185,-5.3185,-5.3185,-5.3185,-5.3185,-5.3185,-5.313,-5.2747,-5.2344,-5.1793,-5.0582,-4.9941,-4.9445,-4.8563,-4.8306,-4.8306,-4.8306,-4.7718,-4.6911,-4.6104,-4.5558,-4.5008,-4.4191,-4.4206,-4.4425,-4.4572,-4.4599,-4.4676,-4.5,-4.5045,-4.5109,-4.5267,-4.5329,-4.5351,-4.5351,-4.5351,-4.536,-4.5348,-4.535,-4.5339,-4.5307,-4.419,-4.3282,-4.2832,-4.0864,-3.947,-3.903,-3.8207,-3.7738,-3.7693,-3.7318,-3.6897,-3.6451,-3.6891,-3.6891,-3.6451,-3.7337,-3.7976,-3.8397,-3.8063,-3.8115,0.0,0.0,0.0,0.0,0.0,0.0,0.0,-4.8409,-4.846,-5.0524,-5.1082,-5.1843,-5.3957,-5.5344,-5.6613,-5.8084,-5.8829,-5.9746,-6.1308,-6.2039,-6.301,-6.4649,-6.6383,-6.7515,-6.7687,-6.7687,-6.7687,-6.7687,-6.7687,-6.7687,-6.7687,-6.7687,-6.7687,-6.7687,-6.7063,-6.62,-6.5081,-6.2915,-6.1263,-6.0162,-5.9661,-5.8933,-5.8033,-5.9006,-5.8914,-5.7978,-5.7666,-5.7171,-5.6436,-5.484,-5.3794,-5.3185,-5.3185,-5.3185,-5.3185,-5.3185,-5.3185,-5.3185,-5.3185,-5.2784,-5.2068,-5.1114,-5.0362,-4.9647,-4.8618,-4.8306,-4.8306,-4.8306,-4.7608,-4.6709,-4.6067,-4.5396,-4.4707,-4.4059,-4.4057,-4.4227,-4.4303,-4.4318,-4.4402,-4.4663,-4.4714,-4.4819,-4.5151,-4.5194,-4.5216,-4.5297,-4.5307,-4.5307,-4.5307,-4.5307,-4.5307,-4.5307,-4.394,-4.2908,-4.2584,-4.052,-3.926,-3.926,-3.8591,-3.8209,-3.8209,-3.8037,-3.7941,-3.7941,-3.7941,-3.7941,-3.7941,-3.8113,-3.8572,-3.926,-3.9304,-3.9322,-4.5365,-4.5855,-4.7005,-4.8409,-4.8342,-4.8751,0.0,-5.2266,-5.2131,-5.3754,-5.4617,-5.5564,-5.712,-5.7526,-5.8135,-5.9607,-5.9928,-6.0283,-6.1218,-6.15,-6.2212,-6.3778,-6.5482,-6.6852,-6.7615,-6.7687,-6.7687,-6.7687,-6.7687,-6.7687,-6.7687,-6.7687,-6.7687,-6.7687,-6.7595,-6.6476,-6.4255,-6.3191,-6.1533,-5.9331,-5.9979,-5.9465,-5.8052,-5.9575,-5.9446,-5.7923,-5.6473,-5.5835,-5.5592,-5.4014,-5.3277,-5.3185,-5.3185,-5.3185,-5.3185,-5.3185,-5.3185,-5.3185,-5.3185,-5.313,-5.2821,-5.1298,-5.0747,-5.038,-4.8783,-4.8306,-4.8306,-4.8306,-4.7205,-4.6012,-4.592,-4.4799,-4.3658,-4.3584,-4.3582,-4.3681,-4.3986,-4.4048,-4.4121,-4.4402,-4.4438,-4.4533,-4.4807,-4.4856,-4.4957,-4.5256,-4.5307,-4.5307,-4.5307,-4.5307,-4.5307,-4.5307,-4.4437,-4.3261,-4.1762,-4.0731,-4.0148,-4.0148,-4.0053,-4.0014,-4.0014,-3.9279,-3.8858,-3.8858,-3.8858,-3.8858,-3.8858,-3.9642,-4.0053,-4.0148,-4.0157,-4.0166,-4.767,-4.753,-4.78,-4.9272,-5.005,-5.0879,-5.2452,-5.2909,-5.3416,-5.4938,-5.5835,-5.6664,-5.7695,-5.8592,-5.9387,-5.9996,-6.0842,-6.14,-6.1315,-6.1357,-6.166,-6.2385,-6.3119,-6.4474,-6.6782,-6.6665,-6.6774,-6.765,-6.7687,-6.7687,-6.7687,-6.7687,-6.7687,-6.7687,-6.7687,-6.6769,-6.4824,-6.3484,-6.2071,-6.0584,-5.9997,-5.9331,-5.8731,-5.941,-5.9079,-5.7905,-5.629,-5.5614,-5.5464,-5.3867,-5.3185,-5.3185,-5.3185,-5.3185,-5.3185,-5.3185,-5.3185,-5.3185,-5.3185,-5.3185,-5.2928,-5.1334,-5.0802,-5.049,-4.882,-4.8306,-4.8306,-4.8306,-4.748,-4.6489,-4.6012,-4.5057,-4.4085,-4.3608,-4.3515,-4.3531,-4.3682,-4.3716,-4.3795,-4.4106,-4.4181,-4.4289,-4.4726,-4.4788,-4.4903,-4.5246,-4.5307,-4.5307,-4.5307,-4.5121,-4.4585,-4.3438,-4.3306,-4.2553,-4.0715,-4.0396,-4.0301,-4.0301,-4.0301,-4.0301,-4.0301,-3.9938,-3.9747,-3.9747,-3.9747,-3.9747,-3.9747,-4.011,-4.0301,-4.0301,-4.0301,-4.0549,-4.8616,-4.8477,-4.8578,-5.0033,-5.1352,-5.2367,-5.2587,-5.3247,-5.411,-5.5192,-5.5987,-5.6782,-5.7729,-5.8761,-5.9691,-6.0334,-6.1366,-6.1907,-6.1383,-6.1112,-6.1017,-6.1172,-6.0982,-6.2076,-6.5168,-6.5438,-6.5957,-6.7275,-6.7559,-6.7687,-6.7687,-6.7687,-6.7687,-6.7687,-6.7687,-6.6696,-6.464,-6.3404,-6.2181,-6.0915,-5.9753,-5.9184,-5.9184,-5.8964,-5.8437,-5.7593,-5.6198,-5.5464,-5.5152,-5.3775,-5.3185,-5.3185,-5.3185,-5.3185,-5.3185,-5.3185,-5.3185,-5.3185,-5.3185,-5.3185,-5.2928,-5.1334,-5.0802,-5.049,-4.882,-4.8306,-4.8306,-4.8306,-4.7718,-4.6911,-4.6104,-4.5296,-4.4507,-4.3681,-4.3515,-4.3515,-4.3515,-4.3515,-4.3565,-4.3814,-4.3862,-4.4014,-4.4511,-4.4591,-4.4682,-4.5,-4.5109,-4.5194,-4.5297,-4.5011,-4.4083,-4.2234,-4.2356,-4.1811,-3.9958,-4.0046,-4.0186,-4.0186,-4.0253,-4.0301,-4.0301,-4.0301,-4.0301,-4.0301,-4.0301,-4.0301,-4.0301,-4.0301,-4.0301,-4.0301,-4.054,-4.0941,-4.775,-4.8443,-4.9323,-5.0811,-5.1742,-5.2503,-5.3298,-5.4042,-5.4566,-5.4617,-5.5226,-5.619,-5.7628,-5.7932,-5.8676,-6.0909,-6.1298,-6.1332,-6.1298,-6.0639,-6.02,-6.0324,-5.97,-6.0236,0.0,-6.4296,-6.5571,-6.6459,-6.7247,-6.7687,-6.7687,-6.7687,-6.7687,-6.7687,-6.7687,-6.6145,-6.289,-6.2817,-6.1606,-5.9258,-5.9221,-5.9184,-5.9166,-5.84,-5.7593,-5.6804,-5.5959,-5.5152,-5.4363,-5.3555,-5.3185,-5.3185,-5.3185,-5.3185,-5.3185,-5.3185,-5.3185,-5.3185,-5.3185,-5.3185,-5.2928,-5.1334,-5.0802,-5.049,-4.882,-4.8306,-4.8306,-4.8306,-4.7718,-4.6911,-4.6104,-4.5296,-4.4507,-4.3681,-4.3515,-4.3515,-4.3515,-4.3515,-4.3496,-4.3496,-4.3532,-4.3615,-4.3974,-4.4017,-4.4106,-4.4388,-4.465,-4.4934,-4.5256,-4.5011,-4.4175,-4.2564,-4.2102,-4.1274,-3.9658,-3.9751,-3.9914,-3.9914,-4.0157,-4.0301,-4.0301,-4.0301,-4.0301,-4.0301,-4.0301,-4.0301,-4.0301,-4.0301,-4.0301,-4.032,-4.1094,-4.1476,-4.96,-5.054,-5.1254,-5.1771,-5.252,-5.3179,-5.345,-5.4059,-5.4583,-5.4583,-5.5192,-5.5869,-5.6359,-5.685,-5.7746,-5.9505,-6.0182,-6.0503,-6.0503,-6.074,-6.0346,-5.8895,-5.8912,0.0,0.0,0.0,0.0,-6.6349,-6.6751,-6.7136,-6.765,-6.7687,-6.7687,-6.7687,-6.7173,-6.5852,-6.3686,-6.2567,-6.1594,-6.0786,-6.0254,-5.9446,-5.84,-5.8125,-5.7556,-5.6767,-5.5941,-5.5133,-5.4344,-5.3537,-5.3185,-5.3185,-5.3185,-5.3185,-5.3185,-5.3185,-5.3185,-5.3185,-5.3185,-5.3185,-5.2928,-5.1334,-5.0802,-5.049,-4.882,-4.8306,-4.8306,-4.8306,-4.8122,-4.759,-4.625,-4.57,-4.5168,-4.3827,-4.3515,-4.3515,-4.3515,-4.3515,-4.3515,-4.3515,-4.3515,-4.3599,-4.3942,-4.4005,-4.4094,-4.436,-4.4624,-4.4782,-4.4707,-4.477,-4.3957,-4.1775,-4.1763,-4.1183,-3.9394,-3.9647,-3.9903,-3.9903,-4.0157,-4.0301,-4.0301,-4.0301,-4.0301,-4.0301,-4.0301,-4.0301,-4.0301,-4.0301,-4.0578,-4.1094,-4.1361,-4.2106,-5.1049,-5.1961,-5.2537,-5.2682,-5.3294,-5.375,-5.3568,-5.3873,-5.4126,-5.3839,-5.416,-5.4583,-5.4871,-5.531,-5.6275,-5.8287,-5.9235,-5.981,-6.0063,-6.0791,-6.0655,-5.8879,-5.9358,-6.0113,0.0,0.0,0.0,-6.5409,-6.6394,-6.7026,-6.7247,-6.7522,-6.7687,-6.7687,-6.6641,-6.5283,-6.3649,-6.2273,-6.13,-6.075,-6.0511,-5.9557,-5.7997,-5.7703,-5.7134,-5.6326,-5.5519,-5.4711,-5.394,-5.3427,-5.3185,-5.3185,-5.3185,-5.3185,-5.3185,-5.3185,-5.3185,-5.3185,-5.3185,-5.3185,-5.2928,-5.1334,-5.0802,-5.049,-4.882,-4.8306,-4.8306,-4.8306,-4.8306,-4.8012,-4.6673,-4.6122,-4.5571,-4.4232,-4.3699,-4.3515,-4.3515,-4.3515,-4.3515,-4.3515,-4.3515,-4.3565,-4.3781,-4.383,-4.3923,-4.4221,-4.4402,-4.4498,-4.4416,-4.4471,-4.3793,-4.1883,-4.1638,-4.1016,-3.9515,-3.9531,-3.9604,-3.9604,-3.9965,-4.0157,-4.0157,-4.0244,-4.0301,-4.0301,-4.0578,-4.0731,-4.0731,-4.1036,-4.1457,-4.1972,-4.2259,-4.2966,-5.2148,-5.284,-5.3352,-5.3591,-5.4028,-5.4249,-5.3668,-5.35,-5.323,-5.2469,-5.2232,-5.2418,-5.3196,-5.3365,-5.4346,-5.7256,-5.8406,-5.9218,-5.9996,-6.0825,-6.1044,-6.0199,-6.0767,-6.1519,-6.2347,-6.3089,0.0,-6.3763,0.0,-6.7302,-6.6604,-6.7283,-6.765,-6.7577,-6.6054,-6.442,-6.267,-6.1924,-6.075,-5.9203,-6.0034,-5.9557,-5.796,-5.7171,-5.6363,-5.5556,-5.4748,-5.394,-5.3185,-5.3185,-5.3185,-5.3185,-5.3185,-5.3185,-5.3185,-5.3185,-5.3185,-5.3185,-5.3185,-5.3185,-5.2949,-5.1371,-5.0839,-5.0508,-4.8857,-4.8343,-4.8306,-4.8306,-4.8306,-4.8122,-4.7314,-4.6507,-4.57,-4.4892,-4.4085,-4.3515,-4.3515,-4.3515,-4.3515,-4.3515,-4.3515,-4.3515,-4.3515,-4.3515,-4.3599,-4.3926,-4.3974,-4.406,-4.4346,-4.4166,-4.3652,-4.2779,-4.1781,-4.0836,-3.9955,-3.9486,-3.9194,-3.9101,-3.9637,-3.9919,-3.9881,-4.0147,-4.0291,-4.0291,-4.1094,-4.1495,-4.1495,-4.2374,-4.2813,-4.2889,-4.3643,-4.4025,-5.5005,-5.5358,-5.5514,-5.5693,-5.5057,-5.4359,-5.4203,-5.3372,-5.2553,-5.2334,-5.142,-5.071,-5.093,-5.142,-5.2604,-5.504,-5.6968,-5.8626,-5.9911,-6.1264,-6.162,-6.0266,-6.0812,-6.1363,-6.1501,-6.2808,0.0,0.0,-6.5431,-6.6828,-6.7357,-6.7577,-6.7136,-6.5962,-6.4934,-6.3301,-6.1043,-6.0805,-6.0199,-5.9203,-6.0034,-5.9557,-5.796,-5.7171,-5.6363,-5.5556,-5.4748,-5.394,-5.3185,-5.3185,-5.3185,-5.3185,-5.3185,-5.3185,-5.3185,-5.3185,-5.3185,-5.3185,-5.3185,-5.3185,-5.3041,-5.2013,-5.1279,-5.0618,-4.9572,-4.882,-4.8306,-4.8306,-4.8306,-4.8122,-4.7314,-4.6507,-4.57,-4.4892,-4.4085,-4.3515,-4.3515,-4.3515,-4.3515,-4.3515,-4.3515,-4.3515,-4.3515,-4.3515,-4.3513,-4.3615,-4.3632,-4.373,-4.406,-4.4033,-4.3595,-4.2507,-4.2152,-4.1423,-4.001,-4.0507,-4.0387,-3.9175,-3.9982,-4.0227,-3.963,-3.9859,-4.0007,-4.0007,-4.0988,-4.1495,-4.1495,-4.2374,-4.3119,-4.3701,-4.3892,-4.435,-5.6564,-5.677,-5.6653,-5.6517,-5.5852,-5.4994,-5.4133,-5.3315,-5.2401,-5.1112,-5.0439,-4.9898,-4.9255,-5.0287,-5.1725,-5.3331,-5.5733,-5.7932,-5.9421,-6.0943,-6.1721,-6.1163,-6.1501,-6.1894,-6.2163,-6.3083,-6.3876,0.0,-6.5944,-6.6838,-6.7029,-6.7458,-6.6953,-6.5356,-6.4145,-6.253,-6.0419,-6.0401,-6.0181,-5.9716,-5.9832,-5.9043,-5.7446,-5.6638,-5.5831,-5.5023,0.0,-5.3628,-5.3185,-5.3185,-5.3185,-5.3185,-5.3185,-5.3185,-5.3185,-5.3185,-5.3185,-5.3185,-5.3185,-5.3185,-5.3078,-5.2252,-5.1463,-5.0655,-4.9849,-4.8985,-4.8306,-4.8306,-4.8306,-4.8214,-4.7736,-4.6783,-4.5792,-4.5333,-4.4342,-4.3515,-4.3515,-4.3515,-4.3515,-4.3515,-4.3515,-4.3515,-4.3515,-4.3515,-4.3515,-4.3515,-4.3515,-4.3565,-4.3765,-4.3781,-4.355,-4.2889,-4.2506,-4.1937,-4.102,-4.118,-4.0938,-4.0033,-4.0644,-4.0699,-3.9885,-4.0102,-4.0094,-3.9728,-4.1155,-4.1899,-4.1899,-4.325,-4.4131,-4.4571,-4.4571,-4.4838,-5.7352,-5.7405,-5.7121,-5.6826,-5.644,-5.5652,-5.3835,-5.3138,-5.2135,-4.9545,-4.9272,-4.912,-4.7821,-4.9272,-5.093,-5.186,-5.4465,-5.6985,-5.8761,-6.025,-6.145,-6.2279,-6.2381,-6.2637,-6.3308,-6.344,-6.4077,-6.5483,-6.6637,-6.703,-6.64,-6.7001,-6.6586,-6.4861,-6.3184,-6.1759,-6.0566,-6.0456,-6.0401,-6.0401,-5.9483,-5.823,-5.6785,-5.5849,-5.506,-5.4363,0.0,0.0,-5.3185,-5.3185,-5.3185,-5.3185,-5.3185,-5.3185,-5.3185,-5.3185,-5.3185,-5.3185,-5.3185,-5.3185,-5.3078,-5.2252,-5.1463,-5.0655,-4.9849,-4.8985,-4.8306,-4.8306,-4.8306,-4.8306,-4.8306,-4.7186,-4.6067,-4.6067,-4.4819,-4.3644,-4.3644,-4.3588,-4.3515,-4.3515,-4.3515,-4.3515,-4.3515,-4.3515,-4.3515,-4.3515,-4.3515,-4.3515,-4.3515,-4.3515,-4.3515,-4.3515,-4.2873,-4.2415,-4.2304,-4.1772,-4.1334,-4.1113,-4.1422,-4.1241,-4.044,-4.0653,-4.0476,-3.9789,-4.1566,-4.2479,-4.251,-4.4345,-4.5235,-4.5235,-4.5286,-4.5307,-5.8027,-5.7727,-5.7337,-5.7933,-5.6671,-5.5105,-5.4226,-5.2219,-5.0196,-4.9223,-4.7648,-4.638,-4.6143,-4.6887,-4.8189,-5.0152,-5.2503,-5.5243,-5.8558,-5.9776,-6.0825,-6.2229,-6.2381,-6.2459,-6.2559,-6.3121,0.0,0.0,0.0,-6.6505,-6.7241,-6.6286,-6.4659,-6.231,-6.0676,-6.0346,-6.1374,-6.0731,-6.0401,-6.0382,-5.8914,-5.7721,-5.6767,-5.528,-5.4528,-5.4363,0.0,0.0,-5.3185,-5.3185,-5.3185,-5.3185,-5.3185,-5.3185,-5.3185,-5.3185,-5.3185,-5.3185,-5.3185,-5.3185,-5.3078,-5.2252,-5.1463,-5.0655,-4.9849,-4.8985,-4.8306,-4.8306,-4.8306,-4.8306,-4.8306,-4.759,-4.6892,-4.6892,-4.5645,-4.4488,-4.4488,-4.3975,-4.3515,-4.3515,-4.3515,-4.3515,-4.3515,-4.3515,-4.3515,-4.3515,-4.3515,-4.3515,-4.3515,-4.3515,-4.3515,-4.3515,-4.3386,-4.302,-4.2359,-4.2782,-4.2525,-4.1168,-4.1767,-4.1799,-4.099,-4.1211,-4.1299,-4.1165,-4.2355,-4.2978,-4.2978,-4.4253,-4.4879,-4.4891,-4.5173,-4.5307,-5.8184,-5.7804,-5.7387,-5.8202,-5.6966,-5.5209,-5.3797,-5.1849,-4.9868,-4.8049,-4.6922,-4.6041,-4.5263,-4.6363,-4.7851,-4.9289,-5.1099,-5.3602,-5.734,-5.849,-5.9658,-6.1603,-6.2161,-6.2381,-6.2381,-6.2697,-6.31,-6.3477,0.0,-6.5155,-6.6091,-6.4372,-6.2823,-6.163,-6.0456,-6.0401,-6.1575,-6.0805,-6.0401,-6.0382,-5.8345,-5.695,-5.6143,-5.495,-5.4179,-5.3757,-5.3369,0.0,-5.3185,-5.3185,-5.3185,-5.3185,-5.3185,-5.3185,-5.3185,-5.3185,-5.3185,-5.3185,-5.3185,-5.3185,-5.3004,-5.1775,-5.1114,-5.0655,-4.9849,-4.8985,-4.8306,-4.8306,-4.8306,-4.8306,-4.8306,-4.77,-4.7094,-4.7094,-4.5865,-4.4599,-4.4176,-4.3754,-4.3515,-4.3515,-4.3515,-4.3515,-4.3515,-4.3515,-4.3515,-4.3515,-4.3515,-4.3515,-4.3515,-4.3515,-4.3515,-4.3515,-4.3515,-4.3332,-4.2947,-4.3277,-4.3167,-4.2396,-4.2708,-4.2561,-4.1772,-4.1846,-4.1723,-4.1298,-4.2355,-4.2889,-4.2889,-4.4038,-4.4663,-4.48,-4.4957,-4.5132,-5.7913,-5.7677,-5.7351,-5.7985,-5.6935,-5.5255,-5.3246,-5.1597,-4.9706,-4.7042,-4.6486,-4.6095,-4.4846,-4.6007,-4.7496,-4.8376,-4.9779,-5.1995,-5.5598,-5.7002,-5.849,-6.0774,-6.1704,-6.2229,-6.2364,-6.2381,0.0,-6.3233,0.0,0.0,-6.4142,-6.2664,-6.1661,-6.1355,-6.0896,-6.097,-6.1575,-6.0805,-6.0309,-6.0126,-5.7703,-5.6198,-5.5578,-5.4583,-5.3812,-5.3185,-5.3185,0.0,0.0,-5.3185,-5.3185,-5.3185,-5.3185,-5.3185,-5.3185,-5.3185,-5.3185,-5.3185,-5.3185,-5.3185,-5.2928,-5.1334,-5.0802,-5.0618,-4.9609,-4.8838,-4.8306,-4.8306,-4.8306,-4.8306,-4.8306,-4.7828,-4.7314,-4.7131,-4.5993,-4.4745,-4.392,-4.3608,-4.3515,-4.3515,-4.3515,-4.3515,-4.3515,-4.3515,-4.3515,-4.3515,-4.3515,-4.3515,-4.3515,-4.3515,-4.3515,-4.3515,-4.3515,-4.3515,-4.3515,-4.3515,-4.3515,-4.3515,-4.3515,-4.3222,-4.258,-4.2561,-4.2268,-4.1627,-4.2435,-4.2872,-4.2872,-4.3841,-4.443,-4.4624,-4.4688,-4.4898,-5.708,-5.7261,-5.7224,-5.7279,-5.6156,-5.4598,-5.3138,-5.1066,-4.8877,-4.6914,-4.5939,-4.527,-4.4699,-4.4784,-4.5348,-4.6752,-4.824,-5.0287,-5.3365,-5.5598,-5.7729,-5.9945,-6.0926,-6.1653,-6.233,-6.2381,-6.242,0.0,0.0,0.0,-6.1813,-6.2255,-6.1892,-6.0548,-6.1153,-6.152,-6.1594,-6.0805,-6.0034,-5.9276,-5.6859,-5.5666,-5.5559,-5.4014,-5.328,-5.3185,0.0,0.0,0.0,-5.3185,-5.3185,-5.3185,-5.3185,-5.3185,-5.3185,-5.3185,-5.3185,-5.3185,-5.3185,-5.3185,-5.2928,-5.1334,-5.0802,-5.0508,-4.8912,-4.8361,-4.8306,-4.8306,-4.8306,-4.8306,-4.8306,-4.8251,-4.8012,-4.7278,-4.6415,-4.5571,-4.4764,-4.4011,-4.3515,-4.3515,-4.3515,-4.3515,-4.3515,-4.3515,-4.3515,-4.3515,-4.3515,-4.3515,-4.3515,-4.3515,-4.3515,-4.3515,-4.3515,-4.3515,-4.3515,-4.3515,-4.3515,-4.3515,-4.3515,-4.3478,-4.3404,-4.3404,-4.3349,-4.3277,-4.3384,-4.342,-4.3437,-4.3839,-4.4048,-4.4079,-4.4318,-4.4585,-5.6271,-5.6826,-5.7188,-5.7188,-5.5685,-5.3917,-5.2852,-5.0522,-4.8224,-4.6987,-4.5951,-4.5241,-4.5062,-4.4786,-4.5089,-4.6549,-4.6921,-4.8223,-5.164,-5.3264,-5.5091,-5.7797,-5.9573,-6.0875,-6.1653,0.0,-6.2212,0.0,0.0,0.0,-6.0058,-6.0826,-6.1165,-6.0889,-6.1256,-6.1489,-6.1489,-6.0683,-5.9669,-5.8455,-5.651,-5.5335,-5.484,-5.372,-5.3185,-5.3185,0.0,0.0,0.0,-5.3185,-5.3185,-5.3185,-5.3185,-5.3185,-5.3185,-5.3185,-5.3185,-5.3185,-5.3185,-5.3185,-5.2928,-5.1334,-5.0802,-5.049,-4.882,-4.8306,-4.8306,-4.8306,-4.8306,-4.8306,-4.8306,-4.8306,-4.8104,-4.7278,-4.6856,-4.6269,-4.4966,-4.4452,-4.4085,-4.3589,-4.3515,-4.3515,-4.3515,-4.3515,-4.3515,-4.3515,-4.3515,-4.3515,-4.3515,-4.3515,-4.3515,-4.3515,-4.3515,-4.3515,-4.3515,-4.3515,-4.3515,-4.3515,-4.3515,-4.3515,-4.3515,-4.3515,-4.3515,-4.3515,-4.3515,-4.3515,-4.3515,-4.3632,-4.3814,-4.4005,-4.4106,-4.4289,-5.5372,-5.6247,-5.6844,-5.6844,-5.5251,-5.344,-5.2371,-5.0167,-4.8074,-4.7092,-4.631,-4.5724,-4.5563,-4.5142,-4.5154,-4.6181,-4.6174,-4.709,-5.0135,-5.1572,-5.3348,-5.6139,-5.8051,-5.9522,-6.052,-6.1281,-6.14,0.0,0.0,0.0,0.0,-5.9671,-6.0284,-6.0897,-6.1412,-6.1467,-6.0973,-6.0237,-5.9084,-5.7584,-5.5992,-5.495,-5.4363,-5.3573,-5.3185,-5.3185,0.0,0.0,0.0,-5.3185,-5.3185,-5.3185,-5.3185,-5.3185,-5.3185,-5.3185,-5.3185,-5.3185,-5.3185,-5.3185,-5.2986,-5.161,-5.0986,-5.0545,-4.9114,-4.8508,-4.8306,-4.8306,-4.8306,-4.8306,-4.8306,-4.8306,-4.8159,-4.759,-4.7278,-4.6782,-4.5645,-4.504,-4.4544,-4.3956,-4.3644,-4.3515,-4.3515,-4.3515,-4.3515,-4.3515,-4.3515,-4.3515,-4.3515,-4.3515,-4.3515,-4.3515,-4.3515,-4.3515,-4.3515,-4.3515,-4.3515,-4.3515,-4.3515,-4.3515,-4.3515,-4.3515,-4.3515,-4.3515,-4.3515,-4.3515,-4.3515,-4.3515,-4.3615,-4.3862,-4.3862,-4.3999,-5.4278,-5.545,-5.6011,-5.6011,-5.4852,-5.3277,-5.1665,-5.0071,-4.8507,-4.7178,-4.6886,-4.673,-4.6189,-4.5648,-4.5294,-4.5294,-4.6152,-4.731,-4.8815,-5.0913,-5.3162,-5.5428,-5.6393,-5.7408,-5.8896,-5.9691,0.0,0.0,0.0,0.0,0.0,-5.9021,-5.9431,-6.0182,-6.1624,-6.1631,-6.0026,-5.9347,-5.8231,-5.6603,-5.5122,-5.4418,-5.4363,-5.3573,-5.3185,0.0,0.0,0.0,0.0,-5.3185,-5.3185,-5.3185,-5.3185,-5.3185,-5.3185,-5.3185,-5.3185,-5.3185,-5.3185,-5.3185,-5.3078,-5.2252,-5.1444,-5.0655,-4.9831,-4.8967,-4.8306,-4.8306,-4.8306,-4.8306,-4.8306,-4.8306,-4.8306,-4.8306,-4.7681,-4.7094,-4.7076,-4.581,-4.4691,-4.4691,-4.4048,-4.3515,-4.3515,-4.3515,-4.3515,-4.3515,-4.3515,-4.3515,-4.3515,-4.3515,-4.3515,-4.3515,-4.3515,-4.3515,-4.3515,-4.3515,-4.3515,-4.3515,-4.3515,-4.3515,-4.3515,-4.3515,-4.3515,-4.3515,-4.3515,-4.3515,-4.3515,-4.3515,-4.3496,-4.3515,-4.3515,-4.3682,-5.1294,-5.2589,-5.3603,-5.3603,-5.2408,-5.1104,-5.0619,-4.9238,-4.7965,-4.7526,-4.7169,-4.6863,-4.6683,-4.6213,-4.609,-4.6744,-4.7127,-4.7916,-4.952,-5.0794,-5.2401,-5.4685,-5.6934,-5.8693,0.0,0.0,0.0,0.0,0.0,0.0,0.0,-5.7476,-5.8461,-6.0675,-6.0684,-5.9945,-5.851,-5.7649,-5.6254,-5.4344,-5.4385,-5.4106,-5.3573,-5.3314,0.0,0.0,0.0,0.0,0.0,-5.3039,-5.2977,-5.2694,-5.306,-5.2995,-5.2694,-5.306,-5.3185,-5.3185,-5.3185,-5.3185,-5.3078,-5.2252,-5.1463,-5.0655,-4.9849,-4.8985,-4.8306,-4.8306,-4.8306,-4.8306,-4.8306,-4.8306,-4.8306,-4.8306,-4.8122,-4.7755,-4.7223,-4.6691,-4.6012,-4.4911,-4.4488,-4.4158,-4.3589,-4.3515,-4.3515,-4.3515,-4.3515,-4.3515,-4.3515,-4.3515,-4.3515,-4.3515,-4.3515,-4.3515,-4.3515,-4.3515,-4.3515,-4.3515,-4.3515,-4.3515,-4.3515,-4.3515,-4.3515,-4.3515,-4.3515,-4.3515,-4.3515,-4.3515,-4.3515,-4.3515,-4.3515,-4.3548,-4.8959,-5.0144,-5.114,-5.114,-5.0397,-4.9492,-4.8876,-4.8206,-4.7627,-4.7319,-4.7212,-4.7214,-4.7214,-4.6753,-4.653,-4.6969,-4.6859,-4.7414,-4.9416,-5.0084,-5.142,-5.4245,-5.6714,0.0,0.0,0.0,0.0,0.0,0.0,0.0,0.0,0.0,-5.7103,-5.891,-5.8938,-5.8394,-5.728,-5.6337,-5.4972,-5.3219,-5.3644,-5.3641,-5.3185,-5.3185,0.0,0.0,0.0,0.0,0.0,-5.2995,-5.289,-5.2431,-5.2761,-5.2676,-5.2431,-5.2761,-5.3039,-5.3185,-5.3185,-5.3185,-5.3112,-5.2619,-5.1701,-5.0655,-4.9849,-4.8985,-4.8306,-4.8306,-4.8306,-4.8306,-4.8306,-4.8306,-4.8306,-4.8306,-4.8306,-4.8159,-4.7663,-4.7314,-4.6709,-4.5424,-4.4911,-4.4452,-4.3626,-4.3515,-4.3515,-4.3515,-4.3515,-4.3515,-4.3515,-4.3515,-4.3515,-4.3515,-4.3515,-4.3515,-4.3515,-4.3515,-4.3515,-4.3515,-4.3515,-4.3515,-4.3515,-4.3515,-4.3515,-4.3515,-4.3515,-4.3515,-4.3515,-4.3515,-4.3515,-4.3515,-4.3515,-4.3515,0.0,-4.8058,-4.8637,-4.8637,-4.8637,-4.8239,-4.6757,-4.6993,0.0,-4.6576,-4.7011,-4.7554,-4.7609,-4.7208,-4.6758,-4.6361,-4.5933,-4.6505,-4.8883,-4.9371,-5.0777,-5.4245,-5.597,0.0,-5.6884,0.0,0.0,0.0,0.0,0.0,0.0,0.0,-5.546,-5.5507,-5.65,-5.6728,-5.6123,-5.5191,-5.408,-5.2884,-5.2917,-5.2999,-5.3124,-5.3143,0.0,0.0,0.0,0.0,0.0,-5.2912,-5.2806,-5.2291,-5.2338,-5.2315,-5.2291,-5.2361,-5.2676,-5.31,-5.3164,-5.3164,-5.3124,-5.3112,-5.2068,-5.0655,-4.9849,-4.8985,-4.8306,-4.8306,-4.8306,-4.8306,-4.8306,-4.8306,-4.8306,-4.8306,-4.8306,-4.8306,-4.8306,-4.77,-4.6947,-4.614,-4.5351,-4.4525,-4.3718,-4.3551,-4.3515,-4.3515,-4.3515,-4.3515,-4.3515,-4.3515,-4.3515,-4.3515,-4.3515,-4.3515,-4.3515,-4.3515,-4.3515,-4.3515,-4.3515,-4.3515,-4.3515,-4.3515,-4.3515,-4.3515,-4.3515,-4.3515,-4.3515,-4.3515,-4.3515,-4.3515,-4.3515,-4.3515,-4.5822,0.0,-4.616,-4.616,-4.616,-4.6051,0.0,-4.5725,-4.5816,-4.5617,-4.5725,-4.6051,-4.6667,-4.6693,-4.6996,-4.8199,-4.881,-4.9627,-5.109,-5.2918,-5.4465,-5.5344,-5.6748,-5.7628,0.0,0.0,0.0,0.0,0.0,0.0,0.0,0.0,-5.4219,-5.4667,-5.3281,-5.2776,-5.3253,-5.2332,-5.1485,-5.0735,-5.1806,-5.2335,-5.2358,-5.2522,0.0,0.0,0.0,0.0,-5.1262,-5.2197,-5.2036,-5.121,-5.1644,-5.1543,-5.1288,-5.2108,-5.2203,-5.2084,-5.2912,-5.2934,-5.2563,-5.2349,-5.161,-5.0655,-4.9849,-4.8985,-4.8306,-4.8306,-4.8306,-4.8306,-4.8306,-4.8306,-4.8306,-4.8306,-4.8306,-4.8306,-4.8306,-4.8159,-4.7792,-4.6966,-4.6177,-4.5369,-4.4562,-4.3901,-4.3515,-4.3515,-4.3515,-4.3515,-4.3515,-4.3515,-4.3515,-4.3515,-4.3515,-4.3515,-4.3515,-4.3515,-4.3515,-4.3515,-4.3515,-4.3515,-4.3515,-4.3515,-4.3515,-4.3515,-4.3515,-4.3515,-4.3515,-4.3515,-4.3515,-4.3515,-4.3515,-4.3515,-4.5912,-4.558,-4.5291,-4.5291,-4.558,-4.5653,-4.491,-4.5327,-4.5635,-4.4892,-4.5037,-4.5544,-4.6359,-4.6504,-4.697,-4.8413,-4.8996,-4.9806,-5.1341,-5.3662,-5.5327,-5.5683,-5.6714,0.0,0.0,0.0,0.0,0.0,0.0,0.0,0.0,0.0,-5.2939,-5.2919,-5.1398,-5.0965,-5.1738,-5.1119,-5.0535,-5.0033,-5.1335,-5.1988,-5.2054,-5.2179,0.0,0.0,0.0,0.0,-5.0857,-5.1676,-5.1569,-5.083,-5.1105,-5.1052,-5.0857,-5.1449,-5.1626,-5.1676,-5.225,-5.2449,-5.235,-5.2087,-5.1463,-5.0655,-4.9849,-4.8985,-4.8306,-4.8306,-4.8306,-4.8306,-4.8306,-4.8306,-4.8306,-4.8306,-4.8306,-4.8306,-4.8306,-4.8306,-4.7957,-4.6783,-4.6195,-4.5535,-4.4342,-4.3791,-4.3515,-4.3515,-4.3515,-4.3515,-4.3515,-4.3515,-4.3515,-4.3515,-4.3515,-4.3515,-4.3515,-4.3515,-4.3515,-4.3515,-4.3515,-4.3515,-4.3515,-4.3515,-4.3515,-4.3515,-4.3515,-4.3515,-4.3515,-4.3515,-4.3515,-4.3515,-4.3515,-4.3515,-4.6565,-4.5997,-4.5454,-4.5327,-4.5725,-4.578,-4.4403,-4.5055,-4.5562,-4.4186,-4.4458,-4.5218,-4.616,-4.6432,-4.6922,-4.8199,-4.8722,-4.9571,-5.124,-5.3346,-5.4958,-5.5463,-5.619,0.0,0.0,0.0,0.0,0.0,0.0,0.0,0.0,0.0,0.0,-5.1065,-5.0321,-5.0209,-5.0767,-5.055,-5.023,-4.985,-5.0991,-5.159,-5.1708,-5.175,0.0,0.0,0.0,0.0,-5.0667,-5.1244,-5.1158,-5.0684,-5.0684,-5.0684,-5.0684,-5.0766,-5.1044,-5.1391,-5.1525,-5.1874,-5.2186,-5.1947,-5.1312,-5.0472,-4.9715,-4.8928,-4.8306,-4.8306,-4.8306,-4.8306,-4.8306,-4.8306,-4.8306,-4.8306,-4.8306,-4.8306,-4.8306,-4.8306,-4.7865,-4.6379,-4.5975,-4.5424,-4.3938,-4.3588,-4.3515,-4.3515,-4.3515,-4.3515,-4.3515,-4.3515,-4.3515,-4.3515,-4.3515,-4.3515,-4.3515,-4.3515,-4.3515,-4.3515,-4.3515,-4.3515,-4.3515,-4.3515,-4.3515,-4.3515,-4.3515,-4.3515,-4.3515,-4.3515,-4.3515,-4.3515,-4.3515,-4.3515,-4.6565,-4.6413,-4.616,-4.5472,-4.4874,-4.4403,-4.415,-4.3751,-4.3371,-4.3155,-4.3172,-4.3715,-4.52,-4.6051,-4.7226,-4.9422,-5.1604,-5.3176,0.0,0.0,-5.5223,-5.4804,0.0,0.0,0.0,0.0,0.0,0.0,0.0,0.0,0.0,0.0,0.0,-5.0287,-4.9543,-4.9232,-4.9308,-4.928,-4.9212,-4.9152,-4.9907,-5.0286,-5.0297,-5.048,-5.0542,0.0,0.0,-5.0338,-4.9924,-5.064,-5.0602,-5.012,-5.012,-5.012,-5.0178,-5.063,-5.0547,-5.0387,-5.1288,-5.1515,-5.1375,-5.1343,-5.0623,-4.9678,-4.911,-4.8614,-4.8306,-4.8306,-4.8306,-4.8306,-4.8306,-4.8306,-4.8306,-4.8306,-4.8306,-4.8306,-4.8306,-4.8306,-4.8031,-4.7094,-4.6379,-4.5608,-4.469,-4.3956,-4.3515,-4.3515,-4.3515,-4.3515,-4.3515,-4.3515,-4.3515,-4.3515,-4.3515,-4.3515,-4.3515,-4.3515,-4.3515,-4.3515,-4.3515,-4.3515,-4.3515,-4.3515,-4.3515,-4.3515,-4.3515,-4.3515,-4.3515,-4.3515,-4.3515,-4.3515,-4.3515,-4.3515,-4.6001,-4.6178,-4.6413,-4.6051,-4.5997,-4.5924,-4.549,-4.511,-4.4603,-4.3734,-4.3534,-4.3896,-4.5073,-4.5961,-4.7572,-5.085,-5.3178,-5.4572,-5.4682,-5.5115,-5.5365,0.0,0.0,0.0,0.0,0.0,0.0,0.0,0.0,0.0,0.0,0.0,0.0,0.0,-4.9373,-4.9001,-4.9001,-4.9001,-4.9001,-4.9001,-4.9639,-4.9942,-4.9971,-5.0028,-5.0113,-5.017,0.0,-4.9744,-4.9737,-4.9982,-4.9999,-4.983,-4.983,-4.983,-4.9872,-5.0246,-5.0206,-5.0109,-5.091,-5.0807,-5.031,-5.0174,-4.9702,-4.9024,-4.836,-4.8227,-4.8306,-4.8306,-4.8306,-4.8306,-4.8306,-4.8306,-4.8306,-4.8306,-4.8306,-4.8306,-4.8306,-4.8306,-4.8067,-4.7259,-4.6452,-4.5645,-4.4838,-4.403,-4.3515,-4.3515,-4.3515,-4.3515,-4.3515,-4.3515,-4.3515,-4.3515,-4.3515,-4.3515,-4.3515,-4.3515,-4.3515,-4.3515,-4.3515,-4.3515,-4.3515,-4.3515,-4.3515,-4.3515,-4.3515,-4.3515,-4.3515,-4.3515,-4.3515,-4.3515,-4.3515,-4.3515,-4.5222,-4.5472,-4.5979,-4.6178,-4.6685,-4.7083,-4.6848,-4.6504,-4.5979,-4.511,-4.4784,-4.491,-4.5707,-4.6975,-4.9039,-5.2498,-5.4507,-5.5535,-5.5401,-5.5504,0.0,0.0,0.0,0.0,0.0,0.0,0.0,0.0,0.0,0.0,0.0,0.0,0.0,0.0,-4.9289,-4.9001,-4.9001,-4.9001,-4.9001,-4.9001,-4.9466,-4.9686,-4.9686,-4.9686,-4.9762,-4.9832,-4.9394,-4.935,-4.959,-4.95,-4.956,-4.9649,-4.9649,-4.9679,-4.9708,-4.9935,-5.0011,-5.008,-5.0602,-5.0276,-4.9539,-4.916,-4.8839,-4.8467,-4.7677,-4.7775,-4.8152,-4.8267,-4.8306,-4.8306,-4.8306,-4.8306,-4.8306,-4.8306,-4.8306,-4.8306,-4.8306,-4.8306,-4.8012,-4.7003,-4.6324,-4.5571,-4.4599,-4.3901,-4.3515,-4.3515,-4.3515,-4.3515,-4.3515,-4.3515,-4.3515,-4.3515,-4.3515,-4.3515,-4.3515,-4.3515,-4.3515,-4.3515,-4.3515,-4.3515,-4.3515,-4.3515,-4.3515,-4.3515,-4.3515,-4.3515,-4.3515,-4.3515,-4.3515,-4.3515,-4.3515,-4.3515,-4.4243,-4.4222,-4.444,-4.52,-4.5436,-4.5852,-4.7301,-4.6468,-4.578,-4.7174,-4.6848,-4.6576,-4.7391,-5.0017,-5.2643,-5.4454,-5.6041,-5.685,-5.6277,0.0,0.0,0.0,0.0,0.0,0.0,0.0,0.0,0.0,0.0,0.0,0.0,0.0,0.0,0.0,0.0,-4.9001,-4.9001,-4.9001,-4.9001,-4.9001,-4.9032,-4.9063,-4.9063,-4.9063,-4.9063,-4.9077,-4.9168,-4.9199,-4.926,-4.9428,-4.9518,-4.95,-4.95,-4.959,-4.9708,-4.9935,-5.0011,-5.008,-5.0602,-5.0267,-4.9477,-4.8783,-4.8325,-4.7931,-4.7186,-4.727,-4.7736,-4.8172,-4.8306,-4.8306,-4.8306,-4.8306,-4.8306,-4.8306,-4.8306,-4.8306,-4.8306,-4.8306,-4.7847,-4.6287,-4.5938,-4.5406,-4.3846,-4.3551,-4.3515,-4.3515,-4.3515,-4.3515,-4.3515,-4.3515,-4.3515,-4.3515,-4.3515,-4.3515,-4.3515,-4.3515,-4.3515,-4.3515,-4.3515,-4.3515,-4.3515,-4.3515,-4.3515,-4.3515,-4.3515,-4.3515,-4.3515,-4.3515,-4.3515,-4.3515,-4.3515,-4.3515,-4.3536,-4.4077,-4.4802,-4.4603,-4.5309,-4.6341,-4.7464,-4.7606,-4.7862,-4.8949,-4.8949,-4.8677,-4.8475,-5.0669,-5.286,-5.3965,-5.545,-5.6534,0.0,0.0,0.0,0.0,0.0,0.0,0.0,0.0,0.0,0.0,0.0,0.0,0.0,0.0,0.0,0.0,0.0,-4.9001,-4.9001,-4.9001,-4.9001,-4.9001,-4.9001,-4.9001,-4.9001,-4.9001,-4.9001,-4.9001,-4.9063,-4.9107,-4.9199,-4.9168,-4.9246,-4.932,-4.932,-4.9411,-4.956,-4.9666,-4.9683,-4.9742,-4.9913,-4.9171,-4.8083,-4.7934,-4.7343,-4.6656,-4.6506,-4.7004,-4.7632,-4.7816,-4.8075,-4.8306,-4.8306,-4.8306,-4.8306,-4.8306,-4.8306,-4.8306,-4.8306,-4.8306,-4.8122,-4.7517,-4.6581,-4.57,-4.5094,-4.4158,-4.3515,-4.3515,-4.3515,-4.3515,-4.3515,-4.3515,-4.3515,-4.3515,-4.3515,-4.3515,-4.3515,-4.3515,-4.3515,-4.3515,-4.3515,-4.3515,-4.3515,-4.3515,-4.3515,-4.3515,-4.3515,-4.3515,-4.3515,-4.3515,-4.3515,-4.3515,-4.3515,-4.3515,-4.3083,-4.3697,-4.4458,-4.4168,-4.511,-4.6468,-4.779,-4.8493,-4.9325,-5.0904,-5.0814,-5.0379,-5.009,-5.1176,-5.2552,0.0,-5.516,-5.6265,0.0,0.0,0.0,0.0,0.0,0.0,0.0,0.0,0.0,0.0,0.0,0.0,0.0,0.0,0.0,0.0,0.0,0.0,-4.9001,-4.9001,-4.9001,-4.9001,-4.9001,-4.9001,-4.9001,-4.9001,-4.9001,-4.9001,-4.9001,-4.9063,-4.9138,-4.9032,-4.9063,-4.9138,-4.9199,-4.9137,-4.9069,-4.9129,-4.9022,-4.8817,-4.8817,-4.8116,-4.721,-4.709,-4.6579,-4.6047,-4.6097,-4.6548,-4.7124,-4.7482,-4.7775,-4.8055,-4.8229,-4.8287,-4.8306,-4.8306,-4.8306,-4.8306,-4.8306,-4.8104,-4.7865,-4.759,-4.6452,-4.5443,-4.5186,-4.4231,-4.3515,-4.3515,-4.3515,-4.3515,-4.3515,-4.3515,-4.3515,-4.3515,-4.3515,-4.3497,-4.3463,-4.3463,-4.3463,-4.3463,-4.3463,-4.348,-4.3515,-4.3515,-4.3515,-4.3515,-4.3515,-4.3515,-4.3515,-4.3515,-4.3515,-4.3515,-4.3515,-4.3515,-4.2956,-4.2919,-4.3099,-4.3896,-4.4711,-4.5943,-4.8348,-4.8909,-4.9814,-5.3041,-5.2426,-5.1556,-5.2335,-5.1828,-5.2082,-5.449,-5.5504,0.0,0.0,0.0,0.0,0.0,0.0,0.0,0.0,0.0,0.0,0.0,0.0,0.0,0.0,0.0,0.0,0.0,0.0,0.0,-4.9001,-4.9001,-4.9001,-4.9001,-4.9001,-4.9001,-4.9001,-4.9001,-4.9001,-4.9001,-4.9001,-4.9001,-4.9001,-4.9001,-4.9001,-4.8984,-4.9138,-4.8753,-4.812,-4.8302,-4.7928,-4.7307,-4.7307,-4.7307,-4.7142,-4.6355,-4.6165,-4.6229,-4.5968,-4.59,-4.6123,-4.7173,-4.7457,-4.7509,-4.805,-4.8228,-4.8287,-4.8287,-4.8306,-4.8306,-4.8306,-4.7663,-4.6856,-4.6067,-4.5259,-4.4452,-4.3662,-4.3515,-4.3515,-4.3515,-4.3515,-4.3515,-4.3515,-4.3515,-4.3515,-4.3515,-4.3515,-4.3463,-4.3412,-4.3394,-4.3394,-4.3394,-4.3394,-4.3429,-4.3497,-4.3515,-4.3515,-4.3515,-4.3515,-4.3515,-4.3515,-4.3515,-4.3515,-4.3515,-4.3515,-4.3515,-4.3759,-4.3828,-4.3932,-4.4729,-4.5979,-4.7319,-4.8601,-4.9782,-5.1176,-5.3277,-5.3313,-5.2715,-5.181,-5.1919,0.0,-5.3096,0.0,0.0,0.0,0.0,0.0,0.0,0.0,0.0,0.0,0.0,0.0,0.0,0.0,0.0,0.0,0.0,0.0,0.0,0.0,0.0,-4.9001,-4.9001,-4.9001,-4.9001,-4.9001,-4.9001,-4.9001,-4.9001,-4.9001,-4.9001,-4.9001,-4.9001,-4.9001,-4.9001,-4.8697,-4.824,-4.8271,-4.7827,-4.7196,-4.7272,-4.7136,-4.6961,-4.6961,-4.6593,-4.6163,-4.6011,-4.5653,-4.5241,-4.5255,-4.552,-4.5843,-4.6147,-4.6466,-4.6819,-4.7363,-4.7338,-4.736,-4.8132,-4.8306,-4.8306,-4.8306,-4.7663,-4.7021,-4.6782,-4.5627,-4.4618,-4.4397,-4.3864,-4.3515,-4.3515,-4.3515,-4.3515,-4.3515,-4.3515,-4.3515,-4.3515,-4.3464,-4.3411,-4.3412,-4.3323,-4.3251,-4.3251,-4.3251,-4.334,-4.3479,-4.3515,-4.3515,-4.3515,-4.3515,-4.3515,-4.3515,-4.3515,-4.3515,-4.3515,-4.3515,-4.3515,-4.3632,-4.3993,-4.4444,-4.5508,-4.6993,-4.8547,-5.0017,-5.1339,-5.2516,-5.3494,-5.344,-5.3023,-5.2371,-5.2118,0.0,0.0,0.0,0.0,0.0,0.0,0.0,0.0,0.0,0.0,0.0,0.0,0.0,0.0,0.0,0.0,0.0,0.0,0.0,0.0,0.0,0.0,-4.9001,-4.9001,-4.9001,-4.9001,-4.9001,-4.9001,-4.9001,-4.9001,-4.9001,-4.9001,-4.9001,-4.8832,-4.8578,-4.8578,-4.8139,-4.7462,-4.7462,-4.7005,-4.6363,-4.6363,-4.6177,-4.5935,-4.5935,-4.5618,-4.5292,-4.536,-4.5139,-4.4803,-4.4913,-4.5106,-4.539,-4.5606,-4.585,-4.6161,-4.6705,-4.6699,-4.6878,-4.7994,-4.8132,-4.8002,-4.7864,-4.7186,-4.6526,-4.6214,-4.5112,-4.4213,-4.4213,-4.3809,-4.3515,-4.3515,-4.3515,-4.3515,-4.3515,-4.348,-4.3445,-4.3445,-4.3376,-4.3305,-4.3287,-4.3196,-4.316,-4.316,-4.316,-4.3214,-4.3357,-4.3428,-4.3445,-4.3445,-4.3497,-4.3515,-4.3515,-4.3515,-4.3515,-4.3515,-4.3515,-4.3515,-4.3123,-4.3814,-4.4684,-4.6307,-4.7935,-4.9727,-5.1973,-5.3078,-5.3585,-5.3585,-5.3005,-5.2715,-5.3458,-5.2389,-5.1882,0.0,0.0,0.0,0.0,0.0,0.0,0.0,0.0,0.0,0.0,0.0,0.0,0.0,0.0,0.0,0.0,0.0,0.0,0.0,0.0,0.0,-4.9001,-4.9001,-4.9001,0.0,-4.9001,-4.8968,-4.89,-4.8968,-4.8968,-4.89,-4.89,-4.8494,-4.7787,-4.7787,-4.7378,-4.6701,-4.6701,-4.6244,-4.5602,-4.5602,-4.5179,-4.4615,-4.4615,-4.4615,-4.4615,-4.4615,-4.4682,-4.4776,-4.4776,-4.4776,-4.4886,-4.5363,-4.5485,-4.5537,-4.6074,-4.6227,-4.6548,-4.7661,-4.7684,-4.7366,-4.707,-4.6379,-4.5572,-4.4838,-4.4048,-4.3515,-4.3515,-4.3515,-4.3497,-4.3497,-4.3497,-4.3497,-4.3462,-4.3429,-4.3394,-4.3394,-4.3269,-4.3178,-4.3104,-4.3086,-4.3086,-4.3086,-4.3086,-4.3105,-4.316,-4.3305,-4.3394,-4.3394,-4.3445,-4.3479,-4.3515,-4.3515,-4.3515,-4.3515,-4.3515,-4.3515,-4.4545,-4.4688,-4.4957,-4.7702,-4.9601,-5.1086,-5.2226,-5.2625,-5.2752,-5.2752,-5.2625,-5.2552,-5.2733,-5.248,0.0,0.0,0.0,0.0,0.0,0.0,0.0,0.0,0.0,0.0,0.0,0.0,0.0,0.0,0.0,0.0,0.0,0.0,0.0,0.0,0.0,-4.9001,-4.9001,-4.9001,-4.9001,0.0,-4.9001,-4.8714,-4.8173,-4.8748,-4.8697,-4.8125,-4.8125,-4.7733,-4.7039,-4.7039,-4.6599,-4.594,-4.594,-4.5483,-4.4852,-4.4852,-4.475,-4.4615,-4.4615,-4.4615,-4.4615,-4.4615,-4.4626,-4.4654,-4.4654,-4.4654,-4.4654,-4.4776,-4.4786,-4.4906,-4.5399,-4.5337,-4.526,-4.5728,-4.61,-4.6347,-4.639,-4.56,-4.4839,-4.4728,-4.4048,-4.3515,-4.3515,-4.3515,-4.348,-4.3429,-4.3411,-4.3394,-4.3286,-4.3251,-4.3251,-4.3251,-4.3178,-4.3123,-4.3104,-4.2994,-4.2938,-4.2938,-4.2938,-4.2957,-4.2957,-4.3142,-4.3286,-4.3394,-4.3411,-4.3446,-4.3515,-4.3515,-4.3515,-4.3515,-4.3515,-4.3515,-4.3542,-4.4436,-4.5559,-4.8227,-4.9818,-5.0832,-5.1249,-5.1339,-5.1339,-5.1339,-5.1955,-5.2498,-5.2498,-5.2498,0.0,0.0,0.0,0.0,0.0,0.0,0.0,0.0,0.0,0.0,0.0,0.0,0.0,0.0,0.0,0.0,0.0,0.0,0.0,0.0,-4.9001,-4.9001,-4.9001,-4.9001,-4.9001,-4.9001,-4.8646,-4.8105,-4.7394,-4.7767,-4.7733,-4.7378,-4.7378,-4.6955,-4.6261,-4.6261,-4.5838,-4.5162,-4.5162,-4.4925,-4.4615,-4.4615,-4.4615,-4.4615,-4.4615,-4.4615,-4.4615,-4.4615,-4.4615,-4.4615,-4.4615,-4.4615,-4.4615,-4.4615,-4.4615,-4.4569,-4.4429,-4.4252,-4.4082,-4.387,-4.4587,-4.5262,-4.5051,-4.4561,-4.4141,-4.4017,-4.3632,-4.3375,-4.3375,-4.3375,-4.3339,-4.3323,-4.3286,-4.3269,-4.3214,-4.316,-4.316,-4.316,-4.305,-4.2994,-4.2994,-4.2938,-4.2901,-4.2901,-4.2901,-4.2901,-4.2901,-4.3013,-4.3123,-4.3305,-4.3376,-4.3429,-4.3464,-4.348,-4.3444,-4.3375,-4.341,-4.341,-4.1948,-4.3944,-4.6253,-4.8212,-4.9423,-5.0112,-5.0112,-5.0112,-5.0112,-5.0112,-5.1158,-5.2118,-5.2263,0.0,0.0,0.0,0.0,0.0,0.0,0.0,0.0,0.0,0.0,0.0,0.0,0.0,0.0,0.0,0.0,0.0,0.0,0.0,-4.9001,-4.9001,-4.9001,-4.9001,-4.9001,-4.9001,-4.9001,-4.8984,-4.8139,-4.7327,-4.6599,-4.6464,-4.6481,-4.6599,-4.6599,-4.6194,-4.5517,-4.5517,-4.5145,-4.4615,-4.4615,-4.4615,-4.4615,-4.4615,-4.4615,-4.4615,-4.4615,-4.4615,-4.4615,-4.4615,-4.4615,-4.4615,-4.4615,-4.4615,-4.4581,-4.4418,-4.4496,-4.4395,-4.3453,-4.3291,-4.32,-4.232,-4.3074,-4.391,-4.3501,-4.3378,-4.3292,-4.3122,-4.3142,-4.3214,-4.3214,-4.3214,-4.3196,-4.3178,-4.3178,-4.3178,-4.3142,-4.3087,-4.3067,-4.3067,-4.2975,-4.2901,-4.2901,-4.2901,-4.2901,-4.2901,-4.2901,-4.2901,-4.2901,-4.2901,-4.2994,-4.3178,-4.3305,-4.3376,-4.3376,-4.3428,-4.3393,-4.3196,-4.3323,-4.3305,-4.1746,-4.4253,-4.6701,-4.7697,-4.9031,-5.0112,-5.0112,-5.0112,-5.0112,-5.0112,-5.0275,-5.0637,0.0,0.0,0.0,0.0,0.0,0.0,0.0,0.0,0.0,0.0,0.0,0.0,0.0,0.0,0.0,0.0,0.0,0.0,0.0,-4.9001,-4.9001,-4.9001,-4.9001,-4.9001,-4.9001,-4.9001,-4.9001,-4.8984,-4.7597,-4.6566,-4.5838,-4.5179,-4.5229,-4.5855,-4.5855,-4.5432,-4.475,-4.475,-4.4699,-4.4615,-4.4615,-4.4615,-4.4615,-4.4615,-4.4615,-4.4615,-4.4615,-4.4615,-4.4615,-4.4615,-4.4615,-4.4615,-4.4615,-4.4615,-4.4462,-4.3775,-4.4062,-4.4276,-4.2811,-4.2929,-4.3037,-4.1677,-4.1485,-4.1767,-4.2215,-4.2131,-4.2094,-4.2519,-4.292,-4.3214,-4.3214,-4.3214,-4.3178,-4.3105,-4.3123,-4.3068,-4.2957,-4.2938,-4.2938,-4.2938,-4.2901,-4.2901,-4.2901,-4.2901,-4.2901,-4.2901,-4.2901,-4.2901,-4.2901,-4.2901,-4.2975,-4.3123,-4.3196,-4.3233,-4.3233,-4.3358,-4.334,-4.3214,-4.3233,-4.3214,-4.1582,-4.3415,-4.5036,-4.6253,-4.7393,-4.8203,-4.8203,-4.8484,-4.8768,-4.8768,-4.8768,0.0,0.0,0.0,0.0,0.0,0.0,0.0,0.0,0.0,0.0,0.0,0.0,0.0,0.0,0.0,0.0,0.0,0.0,0.0,-4.9001,-4.9001,-4.8815,-4.8409,-4.8392,0.0,-4.7767,-4.7767,-4.7564,-4.7141,-4.6498,-4.5788,-4.506,-4.475,-4.4784,-4.5077,-4.5077,-4.4919,-4.4615,-4.4615,-4.4615,-4.4615,-4.4615,-4.4615,-4.4615,-4.4615,-4.4615,-4.4615,-4.4615,-4.4615,-4.4615,-4.4615,-4.4615,-4.4615,-4.4615,-4.4615,-4.453,-4.4164,-4.3995,-4.3673,-4.2574,-4.2236,-4.1914,-4.0832,-4.0578,-4.0663,-4.0922,-4.1091,-4.1343,-4.1832,-4.2322,-4.2635,-4.2635,-4.2863,-4.3013,-4.2994,-4.2994,-4.2975,-4.2919,-4.2901,-4.2901,-4.2901,-4.2901,-4.2901,-4.2901,-4.2901,-4.2901,-4.2901,-4.2901,-4.2901,-4.2901,-4.2901,-4.2938,-4.2994,-4.3105,-4.3142,-4.3142,-4.3251,-4.3196,-4.3031,-4.3105,-4.3105,-4.0665,-4.1803,-4.2811,-4.4564,-4.5544,-4.6121,-4.6339,-4.6912,-4.7355,0.0,-4.7428,0.0,0.0,0.0,0.0,0.0,0.0,0.0,0.0,0.0,0.0,0.0,0.0,0.0,0.0,0.0,0.0,0.0,0.0,0.0,-4.8443,-4.8443,-4.8189,-4.7648,-4.7631,-4.7361,-4.6802,-4.6786,-4.643,-4.5703,-4.5703,-4.5314,-4.4615,-4.4615,-4.4615,-4.4615,-4.4615,-4.4615,-4.4615,-4.4615,-4.4615,-4.4615,-4.4615,-4.4615,-4.4615,-4.4615,-4.4615,-4.4615,-4.4615,-4.4615,-4.4615,-4.4615,-4.4615,-4.4615,-4.4615,-4.4615,-4.4564,-4.4333,-4.3859,-4.3172,-4.2252,-4.161,-4.1018,-4.0282,-4.0096,-4.0096,-4.0096,-4.0458,-4.0902,-4.1253,-4.1696,-4.2032,-4.2032,-4.2418,-4.2711,-4.2711,-4.2825,-4.2863,-4.2749,-4.2711,-4.2673,-4.2557,-4.2537,-4.2596,-4.2711,-4.2711,-4.2769,-4.2882,-4.2901,-4.2901,-4.2901,-4.2901,-4.2901,-4.2901,-4.2994,-4.3049,-4.3049,-4.3123,-4.3087,-4.2901,-4.2994,-4.2994,-3.8417,-3.9362,-4.0469,-4.2829,-4.3889,-4.4557,-4.5376,-4.6078,-4.6359,-4.558,0.0,0.0,0.0,0.0,0.0,0.0,0.0,0.0,0.0,0.0,0.0,0.0,0.0,0.0,0.0,0.0,0.0,0.0,0.0,0.0,-4.6904,-4.6904,-4.6887,-4.6853,-4.6853,-4.6836,-4.6786,-4.6786,-4.643,-4.5703,-4.5703,-4.5314,-4.4615,-4.4615,-4.4615,-4.4615,-4.4615,-4.4615,-4.4615,-4.4615,-4.4615,-4.4615,-4.4615,-4.4615,-4.4615,-4.4615,-4.4615,-4.4615,-4.4615,-4.4615,-4.4615,-4.4615,-4.4615,-4.4615,-4.4615,-4.4615,-4.4445,-4.369,-4.3426,-4.3054,-4.1644,-4.1238,-4.1018,-4.0282,-4.0096,-4.0096,-4.0096,-4.0458,-4.0802,-4.0825,-4.1208,-4.1525,-4.1525,-4.1931,-4.2257,-4.2257,-4.2614,-4.2731,-4.2279,-4.2257,-4.2074,-4.1613,-4.1569,-4.1743,-4.2198,-4.2257,-4.2418,-4.2863,-4.2901,-4.2901,-4.2901,-4.2901,-4.2901,-4.2901,-4.2919,-4.2901,-4.2901,-4.3049,-4.303,-4.2901,-4.2919,-4.2919,-3.7129,-3.8472,-4.0036,-4.0916,-4.2372,-4.3689,-4.4017,-4.5016,-4.5771,-4.5481,0.0,0.0,0.0,0.0,0.0,0.0,0.0,0.0,0.0,0.0,0.0,0.0,0.0,0.0,0.0,0.0,0.0,0.0,0.0,0.0,-4.6786,-4.6786,-4.6583,-4.6109,-4.6092,-4.5872,-4.541,-4.541,-4.5275,-4.4976,-4.4976,-4.4869,-4.4615,-4.4615,-4.4615,-4.4615,-4.4615,-4.4615,-4.4615,-4.4615,-4.4615,-4.4615,-4.4615,-4.4615,-4.4615,-4.4615,-4.4615,-4.4615,-4.4615,-4.4615,-4.4615,-4.4615,-4.4248,-4.3826,-4.3826,-4.3487,-4.3047,-4.2777,-4.2354,-4.188,-4.1339,-4.0849,-4.0434,-4.0163,-4.0096,-4.0096,-4.0096,-4.0246,-4.0353,-4.0353,-4.0731,-4.1065,-4.1065,-4.1455,-4.176,-4.176,-4.1892,-4.1952,-4.1764,-4.176,-4.1696,-4.1525,-4.1503,-4.1569,-4.1739,-4.176,-4.1807,-4.1994,-4.2279,-4.2458,-4.2458,-4.2731,-4.2901,-4.2901,-4.2901,-4.2901,-4.2901,-4.2938,-4.2938,-4.2901,-4.2901,-4.2901,-3.6009,-3.7239,-3.8906,-3.9698,-4.0791,-4.1988,-4.3084,-4.4053,-4.4724,-4.4685,0.0,0.0,0.0,0.0,0.0,0.0,0.0,0.0,0.0,0.0,0.0,0.0,0.0,0.0,0.0,0.0,0.0,0.0,0.0,0.0,-4.6041,-4.6041,-4.5821,-4.5348,-4.5331,-4.5094,-4.4615,-4.4615,-4.4615,-4.4615,-4.4615,-4.4479,-4.4198,-4.4198,-4.4045,-4.3836,-4.3836,-4.4124,-4.4615,-4.4615,-4.4615,-4.4615,-4.4615,-4.4615,-4.4581,-4.4282,-4.4198,-4.4147,-4.3893,-4.3836,-4.3836,-4.3836,-4.347,-4.3047,-4.3047,-4.2692,-4.2286,-4.2286,-4.1762,-4.1204,-4.1204,-4.0646,-4.0096,-4.0096,-4.0096,-4.0096,-4.0096,-4.0096,-4.0096,-4.0096,-4.0353,-4.058,-4.058,-4.0932,-4.1276,-4.1276,-4.1393,-4.1437,-4.1298,-4.1276,-4.119,-4.1047,-4.1024,-4.1094,-4.1253,-4.1276,-4.1326,-4.1481,-4.1803,-4.1969,-4.1969,-4.2418,-4.2673,-4.2673,-4.2825,-4.2901,-4.2901,-4.2901,-4.2901,-4.2901,-4.2901,-4.2901,0.0,0.0,0.0,-3.9237,-3.9143,-3.9353,-4.2534,0.0,-4.3087,-4.3087,0.0,0.0,0.0,0.0,0.0,0.0,0.0,0.0,0.0,0.0,0.0,0.0,0.0,0.0,0.0,0.0,0.0,0.0,0.0,-4.4615,-4.4615,-4.4615,-4.4615,-4.4615,-4.4615,-4.4615,-4.4615,-4.4615,-4.4598,-4.4564,-4.4564,-4.413,-4.3358,-4.3358,-4.298,-4.2286,-4.2286,-4.3159,-4.453,-4.453,-4.453,-4.453,-4.453,-4.453,-4.4445,-4.3673,-4.3358,-4.3284,-4.254,-4.2286,-4.2286,-4.2286,-4.2286,-4.2252,-4.2252,-4.2236,-4.2236,-4.2236,-4.1711,-4.117,-4.117,-4.0629,-4.0096,-4.0096,-4.0096,-4.0096,-4.0096,-4.0096,-4.0096,-4.0096,-4.0096,-4.0096,-4.0096,-4.0483,-4.0778,-4.0778,-4.1162,-4.1281,-4.0849,-4.0778,-4.0587,-4.0146,-4.0096,-4.0279,-4.0731,-4.0778,-4.0972,-4.1415,-4.1459,-4.1481,-4.1481,-4.1931,-4.2177,-4.2177,-4.2634,-4.2863,-4.2863,-4.2882,-4.2901,-4.2901,-4.2901,-4.2901,-3.6101,0.0,0.0,0.0,0.0,0.0,0.0,0.0,0.0,0.0,0.0,0.0,0.0,0.0,0.0,0.0,0.0,0.0,0.0,0.0,0.0,0.0,0.0,0.0,0.0,0.0,0.0,0.0,-4.4961,-4.4615,-4.4615,-4.4615,-4.4615,-4.4615,-4.4615,-4.4615,-4.4615,-4.4615,-4.4327,-4.3741,-4.3741,-4.3335,-4.2591,-4.2591,-4.2489,-4.2286,-4.2286,-4.2523,-4.2956,-4.2956,-4.2956,-4.2956,-4.2956,-4.2956,-4.2895,-4.2675,-4.2591,-4.2574,-4.2371,-4.2286,-4.2286,-4.2286,-4.1931,-4.1508,-4.1508,-4.1119,-4.0722,-4.0722,-4.057,-4.0417,-4.0417,-4.0265,-4.0096,-4.0096,-4.0096,-4.0096,-4.0096,-4.0096,-4.0096,-4.0096,-4.0096,-4.0096,-4.0096,-4.0221,-4.0279,-4.0279,-4.041,-4.0434,-4.0303,-4.0279,-4.0229,-4.0121,-4.0096,-4.0146,-4.0279,-4.0279,-4.0353,-4.0483,-4.0825,-4.0995,-4.0995,-4.1455,-4.1678,-4.1678,-4.1807,-4.1888,-4.1892,-4.2557,-4.2901,-4.2901,-4.2901,-4.2901,-3.6597,-3.7221,-3.8046,-3.7441,0.0,0.0,0.0,-3.9486,0.0,0.0,0.0,0.0,0.0,0.0,0.0,0.0,0.0,0.0,0.0,0.0,0.0,0.0,0.0,0.0,0.0,0.0,0.0,0.0,-4.4879,-4.4462,-4.4113,-4.3819,-4.365,-4.365,-4.365,-4.365,-4.365,-4.365,-4.3403,-4.2946,-4.2946,-4.2557,-4.183,-4.183,-4.166,-4.1399,-4.1399,-4.1399,-4.1399,-4.1399,-4.1728,-4.2286,-4.2286,-4.2286,-4.2252,-4.1948,-4.183,-4.1796,-4.1474,-4.1399,-4.1399,-4.1399,-4.1085,-4.073,-4.073,-4.0426,-4.0096,-4.0096,-4.0096,-4.0096,-4.0096,-4.0096,-4.0096,-4.0096,-4.0096,-4.0096,-4.0096,-4.0096,-4.0096,-4.0096,-4.0096,-4.0096,-4.0096,-4.0096,-4.0096,-4.0096,-4.0096,-4.0096,-4.0096,-4.0096,-4.0096,-4.0096,-4.0096,-4.0096,-4.0096,-4.0096,-4.0096,-4.0096,-4.0353,-4.0507,-4.0507,-4.0972,-4.1208,-4.1208,-4.1393,-4.1503,-4.1503,-4.2056,-4.2418,-4.2614,-4.2806,-4.2901,-3.7221,-3.7364,-3.8043,-3.8579,0.0,0.0,-3.9976,-3.9533,-3.8933,0.0,0.0,0.0,0.0,0.0,0.0,0.0,0.0,0.0,0.0,0.0,0.0,0.0,0.0,0.0,0.0,0.0,-4.5042,-4.4956,-4.4569,-4.4028,-4.3335,-4.2658,-4.2286,-4.2286,-4.2286,-4.2286,-4.2286,-4.2286,-4.2252,-4.2168,-4.2168,-4.1779,-4.1085,-4.1085,-4.0713,-4.0096,-4.0096,-4.0096,-4.0096,-4.0096,-4.0874,-4.2049,-4.2049,-4.2049,-4.1965,-4.1322,-4.1085,-4.0984,-4.0333,-4.0096,-4.0096,-4.0096,-4.0096,-4.0096,-4.0096,-4.0096,-4.0096,-4.0096,-4.0096,-4.0096,-4.0096,-4.0096,-4.0096,-4.0096,-4.0096,-4.0096,-4.0096,-4.0096,-4.0096,-4.0096,-4.0096,-4.0096,-4.0096,-4.0096,-4.0096,-4.0096,-4.0096,-4.0096,-4.0096,-4.0096,-4.0096,-4.0096,-4.0096,-4.0096,-4.0096,-4.0096,-4.0096,-4.0096,-4.0096,-4.0096,-4.0096,-4.0507,-4.0707,-4.0707,-4.1139,-4.1348,-4.1348,-4.1437,-4.17,-4.2136,-4.2537,-4.2769,-4.0251,-4.027,-4.0104,-3.8982,0.0,0.0,-3.7533,-3.7477,-3.7823,0.0,0.0,0.0,0.0,0.0,0.0,0.0,0.0,0.0,0.0,0.0,0.0,0.0,0.0,0.0,0.0,0.0,-4.3515,-4.293,-4.2807,-4.2675,-4.2523,-4.2371,-4.2286,-4.2286,-4.2286,-4.2286,-4.2286,-4.2286,-4.1999,-4.1407,-4.1407,-4.1018,-4.0316,-4.0316,-4.0248,-4.0096,-4.0096,-4.0096,-4.0096,-4.0096,-4.0282,-4.0536,-4.0536,-4.0536,-4.0519,-4.0383,-4.0316,-4.0299,-4.0146,-4.0096,-4.0096,-4.0096,-4.0096,-4.0096,-4.0096,-4.0096,-4.0096,-4.0096,-4.0096,-4.0096,-4.0096,-4.0096,-4.0096,-4.0096,-4.0096,-4.0096,-4.0096,-4.0096,-4.0096,-4.0096,-4.0096,-4.0096,-4.0096,-4.0096,-4.0096,-4.0096,-4.0096,-4.0096,-4.0096,-4.0096,-4.0096,-4.0096,-4.0096,-4.0096,-4.0096,-4.0096,-4.0096,-4.0096,-4.0096,-4.0096,-4.0096,-4.0196,-4.0246,-4.0246,-4.0328,-4.036,-4.036,-4.1139,-4.1547,-4.1635,-4.1721,-4.1973,-4.1315,-4.1095,0.0,-4.0086,0.0,0.0,0.0,-3.7786,-3.7731,-3.8539,0.0,0.0,0.0,0.0,0.0,0.0,0.0,0.0,0.0,0.0,0.0,0.0,0.0,0.0,0.0,0.0,-4.2692,-4.232,-4.1948,-4.1745,-4.1745,-4.139,-4.1213,-4.1213,-4.1213,-4.1213,-4.1213,-4.1213,-4.1027,-4.0646,-4.0646,-4.0468,-4.0096,-4.0096,-4.0096,-4.0096,-4.0096,-4.0096,-4.0096,-4.0096,-4.0096,-4.0096,-4.0096,-4.0096,-4.0096,-4.0096,-4.0096,-4.0096,-4.0096,-4.0096,-4.0096,-4.0096,-4.0096,-4.0096,-4.0096,-4.0096,-4.0096,-4.0096,-4.0096,-4.0096,-4.0096,-4.0096,-4.0096,-4.0096,-4.0096,-4.0096,-4.0096,-4.0096,-4.0096,-4.0096,-4.0096,-4.0096,-4.0096,-4.0096,-4.0231,-4.0578,-4.0646,-4.0764,-4.1162,-4.1213,-4.1213,-4.1213,-4.0865,-4.0646,-4.0646,-4.0316,-4.0096,-4.0096,-4.0096,-4.0096,-4.0096,-4.0096,-4.0096,-4.0096,-4.0096,-4.0096,-4.0096,-4.0563,-4.0926,-4.1162,-4.1393,-4.163,0.0,0.0,0.0,0.0,0.0,-3.9405,0.0,0.0,0.0,-3.9016,0.0,0.0,0.0,0.0,0.0,0.0,0.0,0.0,0.0,0.0,0.0,0.0,0.0,0.0,0.0,0.0,-4.1779,-4.2066,-4.1271,-4.0849,-4.0984,-4.0409,-4.0096,-4.0096,-4.0096,-4.0096,-4.0096,-4.0096,-4.0096,-4.0096,-4.0096,-4.0096,-4.0096,-4.0096,-4.0096,-4.0096,-4.0096,-4.0096,-4.0096,-4.0096,-4.0096,-4.0096,-4.0096,-4.0096,-4.0096,-4.0096,-4.0096,-4.0096,-4.0096,-4.0096,-4.0096,-4.0096,-4.0096,-4.0096,-4.0096,-4.0096,-4.0096,-4.0096,-4.0096,-4.0096,-4.0096,-4.0096,-4.0096,-4.0096,-4.0096,-4.0096,-4.0096,-4.0096,-4.0096,-4.0096,-4.0214,-4.0282,-4.013,-4.0231,-4.0493,-4.1119,-4.1322,-4.1627,-4.2219,-4.2286,-4.2286,-4.2286,-4.1762,-4.1356,-4.1221,-4.0646,-4.0265,-4.0113,-4.0096,-4.0096,-4.0096,-4.0096,-4.0096,-4.0096,-4.0096,-4.0096,-4.0096,-4.0096,-4.0279,-4.0659,-4.1047,-4.1281,0.0,0.0,0.0,0.0,-4.1515,0.0,0.0,0.0,-3.8212,-3.6964,0.0,0.0,0.0,0.0,0.0,0.0,0.0,0.0,0.0,0.0,0.0,0.0,0.0,0.0,0.0,0.0,0.0,-4.1238,-4.0037,-3.9529,-4.0197,-4.0146,-4.0096,-4.0096,-4.0096,-4.0096,-4.0096,-4.0096,-4.0096,-4.0096,-4.0096,-4.0096,-4.0096,-4.0096,-4.0096,-4.0096,-4.0096,-4.0096,-4.0096,-4.0096,-4.0096,-4.0096,-4.0096,-4.0096,-4.0096,-4.0096,-4.0096,-4.0096,-4.0096,-4.0096,-4.0096,-4.0096,-4.0096,-4.0096,-4.0096,-4.0096,-4.0096,-4.0096,-4.0096,-4.0096,-4.0096,-4.0096,-4.0096,-4.0096,-4.0096,-4.0096,-4.0096,-4.0096,-4.0096,-4.0096,-4.0629,-4.0865,-4.0214,-4.0629,-4.1102,-4.1187,-4.1762,-4.2202,-4.2286,-4.2286,-4.2286,-4.2286,-4.2219,-4.1914,-4.1271,-4.1119,-4.0798,-4.0146,-4.0096,-4.0096,-4.0096,-4.0096,-4.0096,-4.0096,-4.0096,-4.0096,-4.0096,-4.0096,-4.0121,-4.0171,-4.0229,-4.0483,0.0,0.0,0.0,0.0,0.0,0.0,-3.931,0.0,-3.8505,0.0,0.0,0.0,0.0,0.0,0.0,0.0,0.0,0.0,0.0,0.0,0.0,0.0,0.0,0.0,0.0,0.0,0.0,0.0,0.0,-3.9309,-4.0062,-4.0096,-4.0096,-4.0096,-4.0096,-4.0096,-4.0096,-4.0096,-4.0096,-4.0096,-4.0096,-4.0096,-4.0096,-4.0096,-4.0096,-4.0096,-4.0096,-4.0096,-4.0096,-4.0096,-4.0096,-4.0096,-4.0096,-4.0096,-4.0096,-4.0096,-4.0096,-4.0096,-4.0096,-4.0096,-4.0096,-4.0096,-4.0096,-4.0096,-4.0096,-4.0096,-4.0096,-4.0096,-4.0096,-4.0096,-4.0096,-4.0096,-4.0096,-4.0096,-4.0096,-4.0096,-4.0096,-4.0451,-4.073,-4.073,-4.1322,-4.1728,-4.1424,-4.1627,-4.1982,-4.2422,-4.2743,-4.3115,-4.3582,-4.3633,-4.3633,-4.3633,-4.3217,-4.2828,-4.2479,-4.2083,-4.1694,-4.1416,-4.1382,-4.1382,-4.1382,-4.0967,-4.073,-4.073,-4.0333,-4.0096,-4.0096,-4.0096,-4.0096,-4.0096,-4.0096,-4.0221,-4.3773,0.0,0.0,0.0,0.0,0.0,0.0,0.0,0.0,0.0,0.0,0.0,0.0,0.0,0.0,0.0,0.0,0.0,0.0,0.0,0.0,0.0,0.0,0.0,0.0,0.0,0.0,0.0,0.0,0.0,-4.0045,-4.0096,-4.0096,-4.0096,-4.0096,-4.0096,-4.0096,-4.0096,-4.0096,-4.0096,-4.0096,-4.0096,-4.0096,-4.0096,-4.0096,-4.0096,-4.0096,-4.0096,-4.0096,-4.0096,-4.0096,-4.0096,-4.0096,-4.0096,-4.0096,-4.0096,-4.0096,-4.0096,-4.0096,-4.0096,-4.0096,-4.0096,-4.0096,-4.0096,-4.0096,-4.0096,-4.0096,-4.0096,-4.0096,-4.0096,-4.0096,-4.0096,-4.0096,-4.0096,-4.0096,-4.0096,-4.0096,-4.0679,-4.1204,-4.1204,-4.1965,-4.2591,-4.2591,-4.2591,-4.2777,-4.3308,-4.3606,-4.3944,-4.453,-4.4615,-4.4615,-4.4615,-4.4079,-4.3656,-4.3409,-4.2912,-4.2523,-4.2303,-4.2286,-4.2286,-4.2286,-4.1779,-4.1508,-4.1508,-4.0993,-4.0705,-4.0705,-4.0519,-4.0417,-4.0417,-4.0197,-4.0096,0.0,0.0,0.0,-4.1534,0.0,0.0,0.0,0.0,-3.9643,0.0,0.0,0.0,0.0,0.0,-3.7161,-3.7145,-3.7092,0.0,0.0,0.0,0.0,0.0,0.0,0.0,0.0,0.0,0.0,0.0,0.0,0.0,-4.0028,-4.0096,-4.0096,-4.0096,-4.0096,-4.0096,-4.0096,-4.0096,-4.0096,-4.0096,-4.0096,-4.0096,-4.0096,-4.0096,-4.0096,-4.0096,-4.0096,-4.0096,-4.0096,-4.0096,-4.0096,-4.0096,-4.0096,-4.0096,-4.0096,-4.0096,-4.0096,-4.0096,-4.0096,-4.0096,-4.0096,-4.0096,-4.0096,-4.0096,-4.0096,-4.0096,-4.0096,-4.0096,-4.0096,-4.0096,-4.0096,-4.0096,-4.0096,-4.0096,-4.0096,-4.0096,-4.0096,-4.0679,-4.1204,-4.1204,-4.2388,-4.3358,-4.3358,-4.3358,-4.3358,-4.3392,-4.4062,-4.4581,-4.4615,-4.4615,-4.4615,-4.4615,-4.4581,-4.4231,-4.346,-4.3375,-4.3064,-4.2337,-4.2286,-4.2286,-4.2286,-4.2269,-4.2252,-4.2252,-4.2236,-4.2219,-4.2219,-4.1508,-4.117,-4.1153,-4.0434,-4.0096,0.0,0.0,-4.3239,-4.2158,0.0,0.0,0.0,0.0,0.0,0.0,0.0,0.0,0.0,0.0,-3.7085,-3.6722,-3.7124,-3.7093,0.0,0.0,0.0,0.0,0.0,0.0,0.0,0.0,0.0,0.0,0.0,0.0,0.0,-3.9842,-3.9893,-3.9402,-3.9859,-4.0096,-4.0096,-4.0096,-4.0096,-4.0096,-4.0096,-4.0096,-4.0096,-4.0096,-4.0096,-4.0096,-4.0096,-4.0096,-4.0096,-4.0096,-4.0096,-4.0096,-4.0096,-4.0096,-4.0096,-4.0096,-4.0096,-4.0096,-4.0096,-4.0096,-4.0096,-4.0096,-4.0096,-4.0096,-4.0096,-4.0096,-4.0096,-4.0096,-4.0096,-4.0096,-4.0096,-4.0096,-4.0096,-4.0096,-4.0096,-4.0231,-4.0713,-4.1407,-4.2066,-4.2574,-4.3487,-4.4181,-4.4181,-4.4181,-4.4181,-4.4181,-4.4445,-4.4615,-4.4615,-4.4615,-4.4615,-4.4615,-4.4615,-4.4496,-4.4215,-4.4181,-4.4079,-4.3853,-4.3836,-4.3836,-4.3836,-4.3301,-4.3031,-4.3031,-4.254,-4.2286,-4.2286,-4.2049,-4.1931,-4.1914,-4.117,-4.0561,-4.4856,-4.4323,0.0,-4.258,-4.1886,0.0,-4.049,0.0,0.0,0.0,0.0,0.0,0.0,0.0,-3.7464,-3.7077,-3.7345,-3.6952,0.0,-3.4089,0.0,0.0,0.0,0.0,0.0,0.0,-3.6609,-3.8091,0.0,0.0,0.0,0.0,-3.9774,-3.9005,-3.9723,-4.0096,-4.0096,-4.0096,-4.0096,-4.0096,-4.0096,-4.0096,-4.0096,-4.0096,-4.0096,-4.0096,-4.0096,-4.0096,-4.0096,-4.0096,-4.0096,-4.0096,-4.0096,-4.0096,-4.0096,-4.0096,-4.0096,-4.0096,-4.0096,-4.0096,-4.0096,-4.0096,-4.0096,-4.0096,-4.0096,-4.0096,-4.0096,-4.0096,-4.0096,-4.0096,-4.0096,-4.0096,-4.0096,-4.0096,-4.0096,-4.0316,-4.1035,-4.1779,-4.2523,-4.324,-4.4045,-4.4615,-4.4615,-4.4615,-4.4615,-4.4615,-4.4615,-4.4615,-4.4615,-4.4615,-4.4615,-4.4615,-4.4615,-4.4615,-4.4615,-4.4615,-4.4615,-4.4615,-4.4615,-4.4615,-4.4615,-4.4096,-4.3826,-4.3826,-4.3352,-4.3125,-4.3125,-4.2828,-4.2692,-4.2675,-4.1931,-4.1339]},{"header":{"parameterUnit":"m.s-1","parameterCategory":1,"la1":30.6,"la2":29.2853,"lo1":-89.7004,"lo2":-87.6739,"dy":0.0162,"dx":0.0183,"nx":112,"ny":82,"refTime":"2024-05-21T00:00:00:Z","depth":0,"parameterNumber":3,"parameterNumberName":"V-component_of_WINDS"},"data":[0.0,0.0,0.0,0.0,0.0,0.0,0.0,0.0,0.0,0.0,0.0,0.0,0.0,0.0,0.0,0.0,0.0,0.0,0.0,0.0,0.0,0.0,0.0,0.0,0.0,0.0,0.0,0.0,0.0,0.0,0.0,0.0,0.0,0.0,0.0,0.0,0.0,0.0,0.0,0.0,0.0,0.0,0.0,0.0,0.0,0.0,0.0,0.0,0.0,0.0,0.0,0.0,0.0,0.0,0.0,0.0,0.0,0.0,0.0,0.0,0.0,0.0,0.0,0.0,0.0,0.0,0.0,0.0,0.0,0.0,0.0,0.0,0.0,0.0,0.0,0.0,0.0,0.0,0.0,0.0,0.0,0.0,0.0,0.0,0.0,0.0,0.0,0.0,0.0,0.0,0.0159,0.0,0.0,0.0,0.0,0.0,0.0,0.0,0.0,0.0,0.0,0.0,0.0,0.0,0.0,0.0,0.0,0.0,0.0,0.0,0.0,0.0,0.0,0.0,0.0,0.0,0.0,0.0,0.0,0.0,0.0,0.0,0.0,0.0,0.0,0.0,0.0,0.0,0.0,0.0,0.0,0.0,0.0,0.0,0.0,0.0,0.0,0.0,0.0,0.0,0.0,0.0,0.0,0.0,0.0,0.0,0.0,0.0,0.0,0.0,0.0,0.0,0.0,0.0,0.0,0.0,0.0,0.0,0.0,0.0,0.0,0.0,0.0,0.0,0.0,0.0,0.0,0.0,0.0,0.0,0.0,0.0,0.0,0.0,0.0,0.0,0.0,0.0,0.0,0.0,0.0,0.0,0.0,0.0,0.0,0.0,0.0,0.0,0.0,0.0,0.0,0.0,0.0,0.0,0.0,0.0,0.0,0.0,0.0,0.0,0.0,0.0,0.0876,0.0057,0.0,0.0,0.0,0.0,0.0,0.0,0.0,0.0,0.0,0.0,0.0,0.0,0.0,0.0,0.0,0.0,0.0,0.0,0.0,0.0,0.0,0.0,0.0,0.0,0.0,0.0,0.0,0.0,0.0,0.0,0.0,0.0,0.0,0.0,0.0,0.0,0.0,0.0,0.0,0.0,0.0,0.0,0.0,0.0,0.0,0.0,0.0,0.0,0.0,0.0,0.0,0.0,0.0,0.0,0.0,0.0,0.0,0.0,0.0,0.0,0.0,0.0,0.0,0.0,0.0,0.0,0.0,0.0,0.0,0.0,0.0,0.0,0.0,0.0,0.0,0.0,0.0,0.0,0.0,0.0,0.0,0.0,0.0,0.0,0.0,0.0,0.0,0.0,0.0,0.0,0.0,0.0,0.0,0.0,0.0,0.0,0.0,0.0,0.0,0.0,0.0,0.0,0.0,0.0,0.0,0.0,0.0,0.0,0.0,0.1691,0.1251,0.1012,0.0397,0.0,0.0,0.0,0.0,0.0,0.0,0.0,0.0,0.0,0.0,0.0,0.0,0.0,0.0,0.0,0.0,0.0,0.0,0.0,0.0,0.0,0.0,0.0,0.0,0.0,0.0,0.0,0.0,0.0,0.0,0.0,0.0,0.0,0.0,0.0,0.0,0.0,0.0,0.0,0.0,0.0,0.0,0.0,0.0,0.0,0.0,0.0,0.0,0.0,0.0,0.0,0.0,0.0,0.0,0.0,0.0,0.0,0.0,0.0,0.0,0.0,0.0,0.0,0.0,0.0,0.0,0.0,0.0,0.0,0.0,0.0,0.0,0.0,0.0,0.0,0.0,0.0,0.0,0.0,0.0,0.0,0.0,0.0,0.0,0.0,0.0,0.0,0.0,0.0,0.0,0.0,0.0,0.0,0.0,0.0,0.0,0.0,0.0,0.0,0.0,0.0,0.0,0.0,0.0,0.0,0.0,0.0,0.0,0.2017,0.1382,0.1393,0.0559,0.0,0.0,0.0,0.0,0.0,0.0,0.0,0.0,0.0,0.0,0.0,0.0,0.0,0.0,0.0,0.0,0.0,0.0,0.0,0.0,0.0,0.0,0.0,0.0,0.0,0.0,0.0,0.0,0.0,0.0,0.0,0.0,0.0,0.0,0.0,0.0,0.0,0.0,0.0,0.0,0.0,0.0,0.0,0.0,0.0,0.0,0.0,0.0,0.0,0.0,0.0,0.0,0.0,0.0,0.0,0.0,0.0,0.0,0.0,0.0,0.0,0.0,0.0,0.0,0.0,0.0,0.0,0.0,0.0,0.0,0.0,0.0,0.0,0.0,0.0,0.0,0.0,0.0,0.0,0.0,0.0,0.0,0.0,0.0,0.0,0.0,0.0,0.0,0.0,0.0,0.0,0.0,0.0,0.0,0.0,0.0,0.0,0.0,0.0,0.0,0.0,0.0,0.0,0.0,0.0,0.0,0.0,0.0,0.2059,0.1186,0.0223,0.0055,0.0,0.0,0.0,0.0,0.0,0.0,0.0,0.0,0.0,0.0,0.0,0.0,0.0,0.0,0.0,0.0,0.0,0.0,0.0,0.0,0.0,0.0,0.0,0.0,0.0,0.0,0.0,0.0,0.0,0.0,0.0,0.0,0.0,0.0,0.0,0.0,0.0,0.0,0.0,0.0,0.0,0.0,0.0,0.0,0.0,0.0,0.0,0.0,0.0,0.0,0.0,0.0,0.0,0.0,0.0,0.0,0.0,0.0,0.0,0.0,0.0,0.0,0.0,0.0,0.0,0.0,0.0,0.0,0.0,0.0,0.0,0.0,0.0,0.0,0.0,0.0,0.0,0.0,0.0,0.0,0.0,0.0,0.0,0.0,0.0,0.0,0.0,0.0,0.0,0.0,0.0,0.0,0.0,0.0,0.0,0.0,0.0,0.0,0.0,0.0,0.0,0.0,0.0,0.0,0.0,0.0,0.0,0.0,0.3829,0.2779,0.0,0.108,0.0429,0.0954,0.0981,0.0993,0.0985,0.0,0.0,0.0,0.0,0.0,0.0,0.0,0.0,0.0,0.0,0.0,0.0,0.0,0.0,0.0,0.0,0.0,0.0,0.0,0.0,0.0,0.0,0.0,0.0,0.0,0.0,0.0,0.0,0.0,0.0,0.0,0.0,0.0,0.0,0.0,0.0,0.0,0.0,0.0,0.0,0.0,0.0,0.0,0.0,0.0,0.0,0.0,0.0,0.0,0.0,0.0,0.0,0.0,0.0,0.0,0.0,0.0,0.0,0.0,0.0,0.0,0.0,0.0,0.0,0.0,0.0,0.0,0.0,0.0,0.0,0.0,0.0,0.0,0.0,0.0,0.0,0.0,0.0,0.0,0.0,0.0,0.0,0.0,0.0,0.0,0.0,0.0,0.0,0.0,0.0,0.0,0.0,0.0,0.0,0.0,0.0,0.0,0.0,0.0,0.0,0.0,0.0,0.602,0.5012,0.4199,0.0,0.2485,0.1733,0.2177,0.218,0.1995,0.1638,0.0,0.0,0.0,0.0,0.0,0.0,0.0,0.0,0.0,0.0,0.0,0.0,0.0,0.0,0.0,0.0,0.0,0.0,0.0,0.0,0.0,0.0,0.0,0.0,0.0,0.0,0.0,0.0,0.0,0.0,0.0,0.0,0.0,0.0,0.0,0.0,0.0,0.0,0.0,0.0,0.0,0.0,0.0,0.0,0.0,0.0,0.0,0.0,0.0,0.0,0.0,0.0,0.0,0.0,0.0,0.0,0.0,0.0,0.0,0.0,0.0,0.0,0.0,0.0,0.0,0.0,0.0,0.0,0.0,0.0,0.0,0.0,0.0,0.0,0.0,0.0,0.0,0.0,0.0,0.0,0.0,0.0,0.0,0.0,0.0,0.0,0.0,0.0,0.0,0.0,0.0,0.0,0.0,0.0,0.0,0.0,0.0,0.0,0.0,0.0,0.0,0.0,0.4976,0.5272,0.5195,0.4126,0.4016,0.3922,0.3669,0.3477,0.2905,0.0,0.0,0.0,0.0,0.0,0.0,0.0,0.0,0.0,0.0,0.0,0.0,0.0,0.0,0.0,0.0,0.0,0.0,0.0,0.0,0.0,0.0,0.0,0.0,0.0,0.0,0.0,0.0,0.0,0.0,0.0,0.0,0.0,0.0,0.0,0.0,0.0,0.0,0.0,0.0,0.0,0.0,0.0,0.0,0.0,0.0,0.0,0.0,0.0,0.0,0.0,0.0,0.0,0.0,0.0,0.0,0.0,0.0,0.0,0.0,0.0,0.0,0.0,0.0,0.0,0.0,0.0,0.0,0.0,0.0,0.0,0.0,0.0,0.0,0.0,0.0,0.0,0.0,0.0,0.0,0.0,0.0,0.0,0.0,0.0,0.0,0.0,0.0,0.0,0.0,0.0,0.0,0.0,0.0,0.0,0.0,0.0,0.0,0.0,0.0,0.0,0.0,0.0,0.6444,0.6283,0.5992,0.5461,0.4725,0.4455,0.4962,0.4905,0.453,0.383,0.0,0.0,0.0,0.0,0.0,0.0,0.0,0.0,0.0,0.0,0.0,0.0,0.0,0.0,0.0,0.0,0.0,0.0,0.0,0.0,0.0,0.0,0.0,0.0,0.0,0.0,0.0,0.0,0.0,0.0,0.0,0.0,0.0,0.0,0.0,0.0,0.0,0.0,0.0,0.0,0.0,0.0,0.0,0.0,0.0,0.0,0.0,0.0,0.0,0.0,0.0,0.0,0.0,0.0,0.0,0.0,0.0,0.0,0.0,0.0,0.0,0.0,0.0,0.0,0.0,0.0,0.0,0.0,0.0,0.0,0.0,0.0,0.0,0.0,0.0,0.0,0.0,0.0,0.0,0.0,0.0,0.0,0.0,0.0,0.0,0.0,0.0,0.0,0.0,0.0,0.0,0.0,0.0,0.0,0.0,0.0,0.0,0.0,0.0,0.0,0.0,0.0,0.7051,0.6995,0.6927,0.6828,0.6226,0.5974,0.6379,0.623,0.5764,0.4957,0.0,0.0,0.0,0.0,0.0,0.0,0.0,0.0,0.0,0.0,0.0,0.0,0.0,0.0,0.0,0.0,0.0,0.0,0.0,0.0,0.0,0.0,0.0,0.0,0.0,0.0,0.0,0.0,0.0,0.0,0.0,0.0,0.0,0.0,0.0,0.0,0.0,0.0,0.0,0.0,0.0,0.0,0.0,0.0,0.0,0.0,0.0,0.0,0.0,0.0,0.0,0.0,0.0,0.0,0.0,0.0,0.0,0.0,0.0,0.0,0.0,0.0,0.0,0.0,0.0,0.0,0.0,0.0,0.0,0.0,0.0,0.0,0.0,0.0,0.0,0.0,0.0,0.0,0.0,0.0,0.0,0.0,0.0,0.0,0.0,0.0,0.0,0.0,0.0,0.0,0.0,0.0,0.0,0.0,0.0,0.0,0.0,0.0,0.0,0.0,0.0,0.0,0.7038,0.7533,0.7868,0.7975,0.7988,0.7892,0.7646,0.7379,0.6707,0.5427,0.0,0.0,0.0,0.0,0.0,0.0,0.0,0.0,0.0,0.0,0.0,0.0,0.0,0.0,0.0,0.0,0.0,0.0,0.0,0.0,0.0,0.0,0.0,0.0,0.0,0.0,0.0,0.0,0.0,0.0,0.0,0.0,0.0,0.0,0.0,0.0,0.0,0.0,0.0,0.0,0.0,0.0,0.0,0.0,0.0,0.0,0.0,0.0,0.0,0.0,0.0,0.0,0.0,0.0,0.0,0.0,0.0,0.0,0.0,0.0,1.4142,0.0,0.0,0.0,0.0,0.0,0.0,0.0,0.0,0.0,0.0,0.0,0.0,0.0,0.0,0.0,0.0,0.0,0.0,0.0,0.0,0.0,0.0,0.0,0.0,0.0,0.0,0.0,0.0,0.0,0.0,0.0,0.0,0.0,0.0,0.0,0.0,0.0,0.0,0.0,0.0,0.0,0.7038,0.7533,0.7868,0.7975,0.7988,0.7992,0.7942,0.7671,0.7175,0.643,0.5972,0.0,0.0,0.0,0.0,0.0,0.0,0.0,0.0,0.0,0.0,0.0,0.0,0.0,0.0,0.0,0.0,0.0,0.0,0.0,0.0,0.0,0.0,0.0,0.0,0.0,0.0,0.0,0.0,0.0,0.0,0.0,0.0,0.0,0.0,0.0,0.0,0.0,0.0,0.0,0.0,0.0,0.0,0.0,0.0,0.0,0.0,0.0,0.0,0.0,0.0,0.0,0.0,0.0,0.0,0.0,0.0,0.0,0.0,0.0,0.0,1.4542,0.0,0.0,0.0,0.0,0.0,0.0,0.0,0.0,0.0,0.0,0.0,0.0,0.0,0.0,0.0,0.0,0.0,0.0,0.0,0.0,0.0,0.0,0.0,0.0,0.0,0.0,0.0,0.0,0.0,0.0,0.0,0.0,0.0,0.0,0.0,0.0,0.0,0.0,0.0,0.0,0.7031,0.7475,0.7794,0.7968,0.7988,0.7961,0.7887,0.7726,0.7392,0.692,0.6484,0.0,0.0,0.0,0.0,0.0,0.0,0.0,0.0,0.0,0.0,0.0,0.0,0.0,0.0,0.0,0.0,0.0,0.0,0.0,0.0,0.0,0.0,0.0,0.0,0.0,0.0,0.0,0.0,0.0,0.0,0.0,0.0,0.0,0.0,0.0,0.0,0.0,0.0,0.0,0.0,0.0,0.0,0.0,0.0,0.0,0.0,0.0,0.0,0.0,0.0,0.0,0.0,0.0,1.7414,1.7289,1.6978,1.6978,1.6978,1.6966,1.6748,1.6145,1.5312,0.0,0.0,0.0,0.0,0.0,0.0,0.0,0.0,0.0,0.0,0.0,0.0,0.0,0.0,0.0,0.0,0.0,0.0,0.0,0.0,0.0,0.0,0.0,0.0,0.0,0.7353,0.7312,0.0,0.0,0.0,0.0,0.0,0.0,0.0,0.0,0.0,0.0,0.0,0.0,0.7024,0.7407,0.7712,0.7958,0.7988,0.7928,0.7824,0.7682,0.7468,0.7115,0.6719,0.645,0.0,0.0,0.0,0.0,0.0,0.0,0.0,0.0,0.0,0.0,0.0,0.0,0.0,0.0,0.0,0.0,0.0,0.0,0.0,0.0,0.0,0.0,0.0,0.0,0.0,0.0,0.0,0.0,0.0,0.0,0.0,0.0,1.7829,1.7869,0.0,0.0,0.0,0.0,0.0,0.0,0.0,0.0,0.0,0.0,0.0,0.0,0.0,0.0,1.7633,1.8338,1.8407,1.7898,1.8617,1.8637,1.8082,1.8082,1.8082,1.8082,1.8046,0.0,1.6109,1.5879,0.0,0.0,0.0,0.0,0.0,0.0,0.0,0.0,0.0,0.0,0.0,0.0,0.0,0.0,0.0,0.0,0.0,0.0,0.0,0.0,0.0,0.0,0.784,0.7753,0.774,0.7733,0.0,0.7126,0.6658,0.662,0.0,0.0,0.0,0.0,0.0,0.0,0.0,0.0,0.7038,0.7407,0.7712,0.7958,0.7988,0.7928,0.7824,0.7682,0.7468,0.7115,0.6719,0.645,0.6306,0.5945,0.0,0.0,0.0,0.0,0.0,0.0,0.0,0.0,0.0,0.0,0.0,0.0,0.0,0.0,0.0,0.0,0.0,0.0,0.0,0.0,0.0,0.0,0.0,0.0,0.0,0.0,0.0,0.0,0.0,1.7836,1.8237,1.8009,1.8217,1.819,0.0,0.0,0.0,0.0,0.0,0.0,0.0,0.0,0.0,1.8739,1.8943,1.9009,1.9041,1.9577,1.958,1.9185,1.955,1.9537,1.9305,1.9305,1.9305,1.9299,1.9105,1.8533,1.7655,1.6909,1.6181,1.5535,0.0,0.0,0.0,0.0,0.0,1.3937,1.3784,0.0,0.0,0.0,0.0,0.0,0.0,0.0,0.0,0.0,0.0,0.0,0.0,0.0,0.0,0.7884,0.7891,0.7891,0.7891,0.7614,0.7275,0.0,0.6902,0.6654,0.6332,0.0,0.0,0.0,0.0,0.6858,0.7224,0.7533,0.7801,0.7968,0.7914,0.7851,0.7706,0.7556,0.7377,0.7109,0.68,0.6573,0.6512,0.6135,0.5827,0.0,0.0,0.0,0.0,0.0,0.0,0.0,0.0,0.0,0.0,0.0,0.0,0.0,0.0,0.0,0.0,0.0,0.0,0.0,0.0,0.0,0.0,0.0,0.0,0.0,0.0,0.0,0.0,1.827,1.8544,1.8404,1.8771,1.8771,0.0,0.0,0.0,0.0,0.0,0.0,1.9459,1.937,1.9522,1.9961,2.0207,2.0405,2.0548,2.0702,2.0605,2.0336,2.0266,2.017,2.0106,2.0106,2.0106,2.0106,1.9839,1.9443,1.8944,1.7771,1.6936,1.632,1.5662,1.5366,1.5282,1.5089,1.4841,1.4666,1.5065,1.5034,1.4763,1.4425,0.0,1.2753,1.2339,0.0,0.0,0.0,0.0,0.8109,0.8215,0.0,0.7899,0.7965,0.7988,0.7988,0.7988,0.7901,0.7794,0.0,0.7363,0.7139,0.6808,0.0,0.0,0.0,0.0,0.7136,0.7397,0.7621,0.7814,0.7917,0.7845,0.7699,0.7553,0.7438,0.7288,0.7055,0.6844,0.6681,0.6644,0.6285,0.6017,0.5864,0.0,0.0,0.0,0.0,0.0,0.0,0.0,0.0,0.0,0.0,0.0,0.0,0.0,0.0,0.0,0.0,0.0,0.0,0.0,0.0,0.0,0.0,0.0,0.0,0.0,0.0,0.0,0.0,0.0,1.9265,1.9383,0.0,0.0,0.0,0.0,1.9673,1.9733,2.0107,2.0955,2.1269,2.1557,2.1864,2.1904,2.1858,2.1872,2.1683,2.1349,2.0942,2.0675,2.0425,2.0106,2.0106,2.0106,2.0106,2.0106,1.9941,1.9567,1.8373,1.7376,1.6652,1.6344,1.6066,1.5849,1.5831,1.5662,1.5445,1.5469,1.5306,1.5125,1.5348,1.4339,1.3193,1.3933,1.2431,0.0,0.0,1.0787,0.9316,0.9498,0.8761,0.7982,0.7988,0.7988,0.7988,0.7988,0.7985,0.7931,0.0,0.7675,0.7522,0.7402,0.0,0.7265,0.7075,0.7241,0.7407,0.7567,0.76,0.7665,0.7807,0.7695,0.755,0.7443,0.7422,0.7248,0.6913,0.679,0.6634,0.6528,0.6371,0.6176,0.5983,0.5728,0.0,0.0,0.0,0.0,0.0,0.0,0.0,0.0,0.0,0.0,0.0,0.0,0.0,0.0,0.0,0.0,0.0,0.0,0.0,0.0,0.0,0.0,0.0,0.0,0.0,0.0,0.0,0.0,2.0174,2.0603,0.0,2.0247,2.0194,2.0307,2.0615,2.0822,2.1149,2.1643,2.1777,2.1964,2.2258,2.2265,2.2265,2.2265,2.1977,2.1672,2.1356,2.1065,2.0862,2.0729,2.0729,2.0729,2.0736,2.0545,2.016,1.9714,1.9069,1.841,1.7775,1.7313,1.6967,1.6646,1.6477,1.635,1.6247,1.6079,1.5952,1.5819,1.5578,1.4981,1.4463,1.4718,1.3601,1.2272,1.2683,1.1745,1.0396,0.9784,0.9312,0.8874,0.8187,0.7988,0.7988,0.7988,0.7988,0.7975,0.7921,0.7838,0.7689,0.7543,0.7519,0.7465,0.7312,0.7499,0.7675,0.7729,0.7821,0.7865,0.7818,0.7685,0.7539,0.7429,0.7197,0.7041,0.6893,0.6695,0.6569,0.6515,0.6375,0.6186,0.5996,0.5888,0.5705,0.0,0.0,0.0,0.0,0.0,0.0,0.0,0.0,0.0,0.0,0.0,0.0,0.0,0.0,0.0,0.0,0.0,0.0,0.0,0.0,0.0,0.0,0.0,0.0,0.0,0.0,2.0561,2.1056,2.155,2.169,2.1303,2.1436,2.1597,2.169,2.179,2.1971,2.2265,2.2278,2.2372,2.2565,2.2565,2.2565,2.2565,2.2184,2.1891,2.1762,2.1296,2.1109,2.1109,2.1109,2.1109,2.1109,2.0856,2.0529,2.0082,1.9726,1.927,1.8677,1.8087,1.7739,1.7547,1.7318,1.7195,1.7066,1.6753,1.6453,1.6259,1.5905,1.5509,1.524,1.524,1.4535,1.3763,1.3763,1.2644,1.1214,1.0451,0.9697,0.8942,0.8201,0.7988,0.7988,0.7988,0.7988,0.7988,0.7988,0.7907,0.7858,0.7763,0.7746,0.7712,0.7611,0.7763,0.7889,0.7889,0.7884,0.7857,0.7756,0.7607,0.7461,0.7309,0.7068,0.6862,0.6854,0.6614,0.6491,0.6443,0.63,0.6135,0.5993,0.5942,0.5783,0.547,0.0,0.0,0.0,0.0,0.0,0.0,0.0,0.0,0.0,0.0,0.0,0.0,0.0,0.0,0.0,0.0,0.0,0.0,0.0,0.0,0.0,0.0,0.0,2.0496,2.0589,2.1049,2.1911,2.2278,2.2458,2.2458,2.2458,2.2579,2.2866,2.2625,2.2585,2.2879,2.2961,2.2886,2.2879,2.2879,2.2941,2.2928,2.2278,2.1984,2.1977,2.139,2.1109,2.1109,2.1109,2.1109,2.1109,2.1109,2.0942,2.0655,2.0354,1.9867,1.9272,1.864,1.8421,1.8421,1.8421,1.8243,1.7925,1.7414,1.6829,1.6336,1.633,1.5986,1.5563,1.5563,1.533,1.5119,1.5119,1.3607,1.1901,1.1731,1.0078,0.8384,0.8125,0.8038,0.8038,0.8038,0.8038,0.8038,0.8038,0.8038,0.8041,0.7988,0.7988,0.7988,0.7988,0.7988,0.0,0.7988,0.7909,0.7763,0.7621,0.7518,0.7361,0.716,0.701,0.6858,0.6709,0.6593,0.6443,0.6306,0.6115,0.6034,0.603,0.5884,0.5771,0.5624,0.0,0.0,0.0,0.0,0.0,0.0,0.0,0.0,0.0,0.0,0.0,0.0,0.0,0.0,0.0,0.0,0.0,0.0,0.0,0.0,0.0,0.0,2.4787,2.2629,2.2095,2.2111,2.2565,2.308,2.34,2.34,2.34,2.3434,2.3514,2.3447,2.3434,2.3514,2.3521,2.342,2.3207,2.32,2.3093,2.2934,2.2278,2.1984,2.1977,2.139,2.1109,2.1109,2.1109,2.1109,2.1109,2.1109,2.0942,2.0655,2.0354,2.0,1.9588,1.8998,1.859,1.8421,1.8421,1.8243,1.7957,1.7595,1.7228,1.6902,1.6693,1.6474,1.6358,1.6358,1.6164,1.5951,1.5951,1.5444,1.4618,1.3546,1.2279,1.1029,0.9995,0.9167,0.8577,0.8577,0.8577,0.8577,0.8577,0.8577,0.8482,0.8088,0.7988,0.7988,0.7988,0.7988,0.0,0.8283,0.81,0.8017,0.8302,0.7998,0.7795,0.782,0.7494,0.725,0.7202,0.6933,0.6719,0.6528,0.6594,0.659,0.6444,0.6397,0.6277,0.0,0.0,0.0,0.0,0.0,0.0,0.0,0.0,0.0,0.0,0.0,0.0,0.0,0.0,0.0,0.0,0.0,0.0,0.0,0.0,0.0,0.0,2.757,2.7366,2.6227,2.4566,2.3433,2.3263,2.3661,2.4001,2.4122,2.4022,2.3955,2.3955,2.3841,2.3774,2.3774,2.3774,2.3694,2.3521,2.3394,2.324,2.306,2.2345,2.1984,2.1977,2.139,2.1109,2.1109,2.1109,2.1109,0.0,2.1109,2.1009,2.0822,2.0408,2.0134,0.0,0.0,0.0,0.0,0.0,1.8654,1.833,1.8218,1.7776,1.7347,1.7126,1.6938,1.6677,1.6677,1.6563,1.6488,1.6488,1.6062,1.533,1.4335,1.2925,1.1584,1.065,0.9558,0.8825,0.8825,0.8825,0.8825,0.8825,0.0,0.0,0.8382,0.8333,0.8333,0.8333,0.8333,0.8382,0.0,0.8432,0.8424,0.856,0.8299,0.8091,0.8117,0.7711,0.0,0.0,0.0,0.6871,0.6623,0.673,0.0,0.0,0.0,0.0,0.0,0.0,0.0,0.0,0.5961,0.5907,0.0,0.0,0.0,0.0,0.0,0.0,0.0,0.0,0.0,0.0,0.0,0.0,0.0,0.0,0.0,0.0,2.9502,2.9563,3.0266,2.7475,2.507,2.4238,2.4212,2.4356,2.4609,2.4402,2.4255,2.4255,2.4015,2.3868,2.3868,0.0,0.0,0.0,0.0,2.3394,2.3327,2.2465,2.2017,2.1977,2.1423,2.1142,2.1109,2.1142,2.1142,2.1109,2.1109,2.1089,2.1015,2.0461,2.0133,2.0087,1.9573,1.9424,1.9424,1.9424,1.9199,0.0,0.0,0.0,0.0,1.7677,1.7259,1.6827,1.6796,1.6783,1.6783,1.6783,1.6062,1.5123,1.4686,1.3002,1.1299,1.0919,0.9998,0.9217,0.9118,0.9069,0.9019,0.8924,0.8874,0.8874,0.8874,0.8825,0.8825,0.8825,0.8825,0.0,0.8825,0.8825,0.8769,0.8732,0.0,0.0,0.8238,0.791,0.7646,0.753,0.7274,0.7049,0.6761,0.6731,0.6708,0.6693,0.6712,0.6817,0.698,0.6979,0.7034,0.7129,0.6296,0.6179,0.0,0.0,0.0,0.0,0.0,0.0,0.0,0.0,0.0,0.0,0.0,0.0,0.0,0.0,0.0,3.0947,3.144,3.153,3.1224,2.927,2.7362,2.609,2.515,2.4576,2.4556,2.4583,2.4556,2.4556,2.4496,2.4469,2.4469,2.4469,0.0,2.4128,2.4068,2.3808,2.3327,2.2665,2.2218,2.1984,0.0,0.0,2.1116,2.1356,2.1336,2.1109,2.1109,2.0975,2.0735,2.0381,1.996,1.9519,1.947,1.9424,1.9424,1.9424,1.939,1.9245,1.9005,1.8788,1.8559,1.8087,1.7841,1.7694,1.7497,1.7424,0.0,1.7424,1.7095,1.6678,1.6333,1.5114,1.3931,1.3633,1.2732,1.1707,1.0925,1.0734,1.0493,0.9624,0.9426,0.9426,0.9426,0.9076,0.8825,0.8825,0.8825,0.8878,0.9084,0.8928,0.8962,0.9383,0.9074,0.8855,0.892,0.8584,0.8348,0.8124,0.7779,0.7609,0.7741,0.7402,0.7266,0.7321,0.7504,0.752,0.7365,0.7493,0.7568,0.7554,0.6925,0.6763,0.0,0.0,0.0,0.0,0.0,0.0,0.0,0.0,0.0,0.0,0.0,2.8623,2.9707,0.0,3.1221,3.2295,3.2883,3.3155,3.3114,3.1611,2.9583,2.7038,2.5517,2.4636,2.4636,2.4636,2.4636,2.4636,2.4636,2.4636,2.4636,2.4636,2.4569,2.4422,2.4282,2.3995,2.3554,2.2799,2.2271,2.1984,2.1755,2.1396,2.1122,2.148,2.139,2.1109,2.1109,2.0942,2.0641,2.0201,1.976,1.9424,1.9424,1.9424,1.9424,1.9424,1.9424,1.9403,1.9199,1.9052,1.8851,1.841,1.8115,1.7935,1.7675,1.7582,1.7582,1.7582,1.7427,1.7132,1.678,1.5687,1.4624,1.4358,1.3463,1.2581,1.2047,1.195,1.1658,1.0596,1.04,1.0207,0.9673,0.9377,0.9175,0.9175,0.9175,0.9229,0.9381,0.9278,0.9327,0.9579,0.9292,0.9052,0.9104,0.8686,0.839,0.8296,0.8034,0.7892,0.8012,0.7805,0.7717,0.7748,0.7841,0.7841,0.7748,0.7809,0.7899,0.7987,0.7571,0.7409,0.0,0.0,0.0,0.0,0.0,0.0,0.0,2.7949,2.7978,2.917,2.9492,2.9932,3.1152,3.1953,3.2685,3.3535,3.3965,3.4407,3.4863,3.3422,3.1158,2.7943,2.6149,2.4991,2.4636,2.4636,2.4636,2.4636,2.4636,2.4636,2.4636,2.4636,2.4636,2.4636,2.4409,2.4095,2.3688,2.2899,2.2298,2.1897,2.1789,2.145,2.1122,2.1476,2.1443,2.1102,2.0989,2.0808,2.0541,1.996,1.9579,1.9424,1.9424,1.9424,1.9424,1.9424,1.9424,1.9424,1.9424,1.9212,1.8951,1.8604,1.833,1.8009,1.7695,1.7582,1.7582,1.7582,1.7387,1.7058,1.6767,1.5797,1.485,1.4635,1.3944,1.3258,1.3071,1.3022,1.2732,1.1707,1.1512,1.1175,1.0113,0.9916,0.9817,0.9628,0.9579,0.9579,0.9579,0.9579,0.9579,0.9579,0.934,0.912,0.9051,0.8613,0.8345,0.8345,0.8203,0.8122,0.8122,0.8085,0.8065,0.8065,0.8065,0.8065,0.8065,0.8101,0.8199,0.8345,0.8131,0.8045,2.6191,2.6475,2.7139,2.7949,2.791,2.8217,0.0,3.0176,3.0098,3.1035,3.1533,3.208,3.2978,3.3213,3.3564,3.4414,3.46,3.4805,3.5255,3.3392,3.1357,2.974,2.8133,2.6502,2.4777,2.4636,2.4636,2.4636,2.4636,2.4636,2.4636,2.4636,2.4636,2.4636,2.4603,2.4195,2.3387,2.2999,2.2472,2.1668,2.183,2.1643,2.1129,2.1683,2.1637,2.1082,2.0555,2.0253,2.0234,1.9659,1.9457,1.9424,1.9424,1.9424,1.9424,1.9424,1.9424,1.9424,1.9424,1.9403,1.9225,1.8671,1.847,1.8337,1.7756,1.7582,1.7582,1.7582,1.7181,1.6747,1.6714,1.6195,1.5675,1.5648,1.554,1.5201,1.4292,1.41,1.3806,1.2732,1.2533,1.2193,1.1224,1.1028,1.069,0.9723,0.9579,0.9579,0.9579,0.9579,0.9579,0.9579,0.9445,0.9245,0.8877,0.8658,0.858,0.858,0.8559,0.8551,0.8551,0.8349,0.826,0.826,0.826,0.826,0.826,0.8426,0.8559,0.858,0.8536,0.84,2.7315,2.7441,2.7598,2.8447,2.8896,2.9375,3.0283,3.0547,3.084,3.1719,3.2236,3.2715,3.331,3.3828,3.4287,3.4639,3.5127,3.5449,3.54,3.4538,3.3218,3.1274,3.0445,2.8537,2.472,2.5091,2.5299,2.4623,2.4636,2.4636,2.4636,2.4636,2.4636,2.4636,2.4636,2.4302,2.3594,2.3106,2.2592,2.2051,2.1837,2.1668,2.1376,2.1623,2.1503,2.1076,2.0488,2.0173,2.0187,1.9606,1.9424,1.9424,1.9424,1.9424,1.9424,1.9424,1.9424,1.9424,1.9424,1.9424,1.933,1.8684,1.849,1.8377,1.7769,1.7582,1.7582,1.7582,1.7281,1.6978,1.6747,1.64,1.6046,1.5872,1.5784,1.5683,1.5255,1.5159,1.4867,1.3854,1.3613,1.3119,1.1463,1.1219,1.0832,0.9772,0.9579,0.9579,0.9579,1.0158,1.0652,1.0981,0.9948,0.9288,0.9447,0.8909,0.8612,0.8612,0.8612,0.8612,0.8612,0.8535,0.8494,0.8494,0.8494,0.8494,0.8494,0.8571,0.8612,0.8612,0.8612,0.8573,2.7786,2.7988,2.8047,2.8887,2.9648,3.0234,3.0361,3.0742,3.124,3.1865,3.2324,3.2783,3.333,3.3926,3.4463,3.4834,3.543,3.5742,3.5439,3.5283,3.4346,3.2014,3.1661,2.9775,2.5179,2.5777,2.5898,2.4569,2.4589,2.4636,2.4636,2.4636,2.4636,2.4636,2.4636,2.4275,2.3527,2.3155,2.2632,2.2171,2.1822,2.1614,2.1614,2.1534,2.1269,2.0962,2.0454,2.0187,2.0074,1.9573,1.9424,1.9424,1.9424,1.9424,1.9424,1.9424,1.9424,1.9424,1.9424,1.9424,1.933,1.8684,1.849,1.8377,1.7769,1.7582,1.7582,1.7582,1.7427,1.7132,1.678,1.6486,1.6199,1.5899,1.5784,1.5784,1.5784,1.5784,1.5588,1.4873,1.4729,1.4142,1.2344,1.2052,1.1712,1.0596,1.0207,0.9916,0.9628,1.0547,1.1298,1.1564,1.056,0.999,1.0241,0.9476,0.8955,0.8955,0.874,0.8612,0.8612,0.8612,0.8612,0.8612,0.8612,0.8612,0.8612,0.8612,0.8612,0.8612,0.8617,0.8702,2.7568,2.7969,2.8476,2.9336,2.9873,3.0312,3.0771,3.1201,3.1504,3.1533,3.1885,3.2441,3.3271,3.3447,3.3877,3.5166,3.5391,3.541,3.5391,3.501,3.3886,3.1654,3.1078,2.9542,0.0,2.6468,2.6077,2.4354,2.4476,2.4636,2.4636,2.4636,2.4636,2.4636,2.4636,2.4075,2.2968,2.2941,2.2499,2.1641,2.1628,2.1614,2.1608,2.1256,2.0962,2.0675,2.0368,2.0074,1.9786,1.9492,1.9424,1.9424,1.9424,1.9424,1.9424,1.9424,1.9424,1.9424,1.9424,1.9424,1.933,1.8684,1.849,1.8377,1.7769,1.7582,1.7582,1.7582,1.7427,1.7132,1.678,1.6486,1.6199,1.5899,1.5784,1.5784,1.5784,1.5784,1.5778,1.5778,1.5737,1.5445,1.4394,1.4196,1.3854,1.278,1.1755,1.0788,0.9723,1.0547,1.1014,1.0612,1.138,1.1738,1.1278,1.0419,0.9859,0.9859,0.9087,0.8612,0.8612,0.8612,0.8612,0.8612,0.8612,0.8612,0.8612,0.8612,0.8612,0.8616,0.8735,0.8816,2.6861,2.7584,2.8192,2.9665,3.0322,3.0703,3.0859,3.1211,3.1514,3.1514,3.1865,3.2256,3.2539,3.2822,3.334,3.4355,3.4746,3.4932,3.4932,3.5068,3.4578,3.2899,3.2908,0.0,0.0,0.0,0.0,2.4313,2.4295,2.4436,2.4623,2.4636,2.4636,2.4636,2.4449,2.3968,2.318,2.2772,2.2418,2.2124,2.1931,2.1637,2.1256,2.1156,2.0949,2.0661,2.0361,2.0067,1.978,1.9486,1.9424,1.9424,1.9424,1.9424,1.9424,1.9424,1.9424,1.9424,1.9424,1.9424,1.933,1.8684,1.849,1.8377,1.7769,1.7582,1.7582,1.7582,1.7515,1.7321,1.6834,1.6633,1.644,1.5898,1.5784,1.5784,1.5784,1.5784,1.5784,1.5784,1.5784,1.5493,1.449,1.4298,1.3956,1.2877,1.1853,1.1321,1.1614,1.137,1.1778,1.3322,1.2569,1.2052,1.2232,1.0809,0.9903,0.9903,0.9087,0.8612,0.8612,0.8612,0.8612,0.8612,0.8612,0.8612,0.8612,0.8612,0.8625,0.8735,0.8792,0.895,2.6716,2.7121,2.7495,2.9882,3.0306,3.0333,3.0772,3.1103,3.125,3.1084,3.1269,3.1514,3.168,3.1934,3.249,3.3652,3.4199,3.4531,3.4678,3.5098,3.5019,3.3994,3.3669,3.2384,0.0,0.0,0.0,2.4212,2.4248,2.4396,2.4476,2.4576,2.4636,2.4636,2.4255,2.3761,2.3166,2.2665,2.2311,2.2111,2.2024,2.1677,2.1109,2.1002,2.0795,2.0501,2.0207,1.9913,1.9633,1.9446,1.9424,1.9424,1.9424,1.9424,1.9424,1.9424,1.9424,1.9424,1.9424,1.9424,1.933,1.8684,1.849,1.8377,1.7769,1.7582,1.7582,1.7582,1.7582,1.7475,1.6987,1.6787,1.6587,1.6099,1.5905,1.5784,1.5784,1.5784,1.5784,1.5784,1.5784,1.5588,1.4968,1.4825,1.4484,1.3414,1.2732,1.2393,1.2684,1.249,1.2868,1.4422,1.368,1.3129,1.3318,1.1851,1.089,1.089,0.9733,0.9087,0.9087,0.8784,0.8612,0.8612,0.8625,0.8658,0.8658,0.8723,0.8812,0.8922,0.8982,0.9133,2.693,2.6561,2.6455,2.9859,2.9795,2.9226,3.0518,3.0811,3.0732,3.0293,3.0156,3.0264,3.0713,3.081,3.1377,3.3057,3.3721,3.4189,3.4639,3.5117,3.5244,3.4756,3.3511,3.2025,3.0157,2.8668,0.0,2.4317,0.0,2.4496,2.4242,2.4489,2.4623,2.4596,2.4042,2.3447,2.2887,2.2539,2.2111,2.1621,2.185,2.1677,2.1096,2.0808,2.0514,2.0221,1.9927,1.9633,1.9424,1.9424,1.9424,1.9424,1.9424,1.9424,1.9424,1.9424,1.9424,1.9424,1.9424,1.9424,1.9272,1.8698,1.8504,1.8384,1.7782,1.7595,1.7582,1.7582,1.7582,1.7515,1.728,1.6927,1.6633,1.6339,1.6046,1.5784,1.5784,1.5784,1.5784,1.5784,1.5784,1.5784,1.5784,1.5784,1.5493,1.4538,1.4394,1.3998,1.2926,1.3661,1.4183,1.39,1.4539,1.4863,1.4543,1.3404,1.2735,1.2705,1.0992,0.9999,0.999,0.913,0.8656,0.8656,0.8735,0.882,0.882,0.9007,0.91,0.9116,0.9326,0.9408,2.5212,2.552,2.5739,2.7843,2.8661,2.8979,2.9353,2.989,3.0342,3.0215,2.9687,2.9277,2.9404,2.9687,3.0371,3.1777,3.2891,3.3848,3.459,3.5371,3.5576,3.4795,3.4669,3.3926,3.2101,3.0549,0.0,0.0,2.5527,2.4654,2.4516,2.4596,2.4436,2.4008,2.3634,2.304,2.2218,2.2131,2.1911,2.1621,2.185,2.1677,2.1096,2.0808,2.0514,2.0221,1.9927,1.9633,1.9424,1.9424,1.9424,1.9424,1.9424,1.9424,1.9424,1.9424,1.9424,1.9424,1.9424,1.9424,1.9305,1.8931,1.8664,1.8424,1.8043,1.7769,1.7582,1.7582,1.7582,1.7515,1.728,1.6927,1.6633,1.6339,1.6046,1.5784,1.5784,1.5784,1.5784,1.5784,1.5784,1.5784,1.5784,1.5784,1.573,1.5445,1.5397,1.5057,1.3998,1.4148,1.4481,1.4948,1.5186,1.5077,1.4563,1.38,1.3171,1.2729,1.1843,1.1203,1.0944,1.0077,0.9559,0.9559,0.904,0.882,0.882,0.9007,0.9165,0.9339,0.938,0.9477,2.4741,2.4758,2.4781,2.6957,2.7392,2.7494,2.8405,2.9023,2.9346,2.9361,2.9121,2.8809,2.8437,2.9033,2.9863,3.0791,3.2178,3.3447,3.4307,3.5185,3.5635,3.5312,3.5508,3.5018,3.3314,3.2316,3.081,0.0,2.6143,2.4907,2.4728,2.4636,2.4369,2.3788,2.3347,2.2759,2.1991,2.1984,2.1904,2.1809,2.1777,2.149,2.0909,2.0615,2.0321,2.0027,0.0,1.9519,1.9424,1.9424,1.9424,1.9424,1.9424,1.9424,1.9424,1.9424,1.9424,1.9424,1.9424,1.9424,1.9319,1.9018,1.8731,1.8437,1.8082,1.7829,1.7582,1.7582,1.7582,1.7549,1.7434,1.7027,1.6667,1.65,1.6139,1.5784,1.5784,1.5784,1.5784,1.5784,1.5784,1.5784,1.5784,1.5784,1.5784,1.5784,1.5784,1.5588,1.5016,1.4968,1.5102,1.5504,1.5471,1.5264,1.493,1.4482,1.4046,1.3736,1.301,1.2443,1.2099,1.1215,1.0649,1.0506,0.988,0.9529,0.9529,0.939,0.938,0.9474,0.9474,0.9531,2.4789,2.4219,2.3733,2.6347,2.6019,2.5582,2.7579,2.8031,2.8086,2.8246,2.8447,2.8359,2.7679,2.8447,2.9404,2.9941,3.1445,3.29,3.3926,3.4785,3.5478,3.5957,3.6016,3.5529,3.4195,3.3909,3.2561,2.9584,2.7092,2.5395,2.4908,2.4635,2.4235,2.3607,2.3075,2.2478,2.2044,2.2004,2.1984,2.1984,2.165,2.1266,2.0668,2.0327,2.004,1.9786,0.0,0.0,1.9424,1.9424,1.9424,1.9424,1.9424,1.9424,1.9424,1.9424,1.9424,1.9424,1.9424,1.9424,1.9319,1.9018,1.8731,1.8437,1.8082,1.7829,1.7582,1.7582,1.7582,1.7582,1.7582,1.7174,1.6767,1.6767,1.6313,1.5885,1.5885,1.5811,1.5784,1.5784,1.5784,1.5784,1.5784,1.5784,1.5784,1.5784,1.5784,1.5784,1.5784,1.5784,1.5784,1.5784,1.5605,1.5438,1.5398,1.5204,1.5095,1.5015,1.4263,1.3699,1.3384,1.2526,1.1894,1.1598,1.1041,1.0788,1.0747,1.0136,0.9821,0.9821,0.9677,0.9579,2.3739,2.3543,2.3311,2.4071,2.4494,2.504,2.6448,2.675,2.7113,2.8062,2.751,2.6777,2.6641,2.707,2.7822,2.8955,3.0312,3.1894,3.3809,3.4512,3.5117,3.5928,3.6016,3.5879,3.5665,3.454,0.0,0.0,0.0,2.7208,2.5224,2.4372,2.3534,2.2679,2.2084,2.1964,2.2338,2.2104,2.1984,2.1977,2.1443,2.1009,2.0661,2.012,1.9846,1.9786,0.0,0.0,1.9424,1.9424,1.9424,1.9424,1.9424,1.9424,1.9424,1.9424,1.9424,1.9424,1.9424,1.9424,1.9319,1.9018,1.8731,1.8437,1.8082,1.7829,1.7582,1.7582,1.7582,1.7582,1.7582,1.738,1.7125,1.7125,1.667,1.6192,1.6192,1.6005,1.5784,1.5784,1.5784,1.5784,1.5784,1.5784,1.5784,1.5784,1.5784,1.5784,1.5784,1.5784,1.5784,1.5784,1.5738,1.5658,1.5418,1.5571,1.5478,1.5035,1.5047,1.4956,1.4667,1.3789,1.327,1.3177,1.2496,1.2172,1.2172,1.1342,1.093,1.0881,1.0015,0.9579,2.3508,2.3354,2.3186,2.3515,2.3596,2.3791,2.4659,2.5218,2.5684,2.636,2.6615,2.6582,2.6133,2.6768,2.7627,2.8457,2.9502,3.0947,3.3105,3.3769,3.4443,3.5566,3.5889,3.6016,3.6016,3.5382,3.4618,3.384,0.0,2.9693,2.6619,2.4308,2.2866,2.2432,2.2004,2.1984,2.2412,2.2131,2.1984,2.1977,2.1236,2.0728,2.0434,2.0,1.972,1.9566,1.9491,0.0,1.9424,1.9424,1.9424,1.9424,1.9424,1.9424,1.9424,1.9424,1.9424,1.9424,1.9424,1.9424,1.9292,1.8844,1.8604,1.8437,1.8082,1.7829,1.7582,1.7582,1.7582,1.7582,1.7582,1.742,1.7199,1.7199,1.675,1.6233,1.6079,1.5925,1.5784,1.5784,1.5784,1.5784,1.5784,1.5784,1.5784,1.5784,1.5784,1.5784,1.5784,1.5784,1.5784,1.5784,1.5784,1.5772,1.5631,1.5752,1.5712,1.5431,1.5545,1.5491,1.5204,1.4767,1.4468,1.4321,1.3558,1.3164,1.3164,1.2368,1.1707,1.117,1.069,1.0109,2.3398,2.3303,2.3171,2.3427,2.3003,2.2676,2.3359,2.3787,2.4176,2.4684,2.5635,2.6212,2.5762,2.6562,2.7422,2.793,2.874,3.0019,3.21,3.291,3.3769,3.5088,3.5625,3.5928,3.6006,3.6016,0.0,3.4333,0.0,0.0,2.7392,2.429,2.2519,2.2331,2.2164,2.2191,2.2412,2.2131,2.1951,2.1884,2.1002,2.0454,2.016,1.9867,1.9586,1.9424,1.9424,0.0,0.0,1.9424,1.9424,1.9424,1.9424,1.9424,1.9424,1.9424,1.9424,1.9424,1.9424,1.9424,1.933,1.8684,1.849,1.8424,1.8056,1.7776,1.7582,1.7582,1.7582,1.7582,1.7582,1.7467,1.728,1.7213,1.6797,1.6286,1.5985,1.5872,1.5784,1.5784,1.5784,1.5784,1.5784,1.5784,1.5784,1.5784,1.5784,1.5784,1.5784,1.5784,1.5784,1.5784,1.5784,1.5784,1.5784,1.5784,1.5784,1.5784,1.5784,1.5732,1.5498,1.5491,1.5384,1.5202,1.456,1.4241,1.4241,1.3456,1.2635,1.1853,1.1609,1.0935,2.3062,2.3135,2.312,2.3142,2.2689,2.2476,2.3312,2.2736,2.2597,2.4422,2.4555,2.4644,2.5547,2.5791,2.6182,2.6992,2.7851,2.9033,3.081,3.21,3.333,3.4609,3.5176,3.5596,3.5986,3.6016,3.5947,0.0,0.0,0.0,2.6079,2.421,2.291,2.2038,2.2258,2.2392,2.2418,2.2131,2.185,2.1648,2.0695,2.0261,2.0153,1.9659,1.9392,1.9424,0.0,0.0,0.0,1.9424,1.9424,1.9424,1.9424,1.9424,1.9424,1.9424,1.9424,1.9424,1.9424,1.9424,1.933,1.8684,1.849,1.8384,1.7802,1.7602,1.7582,1.7582,1.7582,1.7582,1.7582,1.7562,1.7475,1.7266,1.6951,1.6587,1.6293,1.6019,1.5784,1.5784,1.5784,1.5784,1.5784,1.5784,1.5784,1.5784,1.5784,1.5784,1.5784,1.5784,1.5784,1.5784,1.5784,1.5784,1.5784,1.5784,1.5784,1.5784,1.5784,1.5771,1.5744,1.5744,1.5724,1.5752,1.563,1.5643,1.5596,1.4615,1.41,1.4004,1.3022,1.1999,2.2664,2.2959,2.3106,2.3106,2.2498,2.1921,2.2095,2.1837,2.1723,2.2349,2.335,2.4245,2.4658,2.5274,2.5966,2.6875,2.709,2.7842,2.9814,3.0752,3.1807,3.3369,3.4394,3.5146,3.5596,0.0,3.5918,0.0,0.0,0.0,2.8969,2.6055,2.394,2.2917,2.2827,2.2761,2.2761,2.2462,2.1939,2.1276,2.0568,2.014,1.996,1.9553,1.9424,1.9424,0.0,0.0,0.0,1.9424,1.9424,1.9424,1.9424,1.9424,1.9424,1.9424,1.9424,1.9424,1.9424,1.9424,1.933,1.8684,1.849,1.8377,1.7769,1.7582,1.7582,1.7582,1.7582,1.7582,1.7582,1.7582,1.7508,1.7266,1.7112,1.6898,1.6422,1.6179,1.6046,1.5865,1.5784,1.5784,1.5784,1.5784,1.5784,1.5784,1.5784,1.5784,1.5784,1.5784,1.5784,1.5784,1.5784,1.5784,1.5784,1.5784,1.5784,1.5784,1.5784,1.5784,1.5784,1.5784,1.5784,1.5784,1.5784,1.5784,1.5784,1.5397,1.4873,1.4298,1.3854,1.3119,2.2231,2.2725,2.2967,2.2967,2.2323,2.1591,2.1159,2.0973,2.0903,2.0905,2.2089,2.3235,2.3592,2.451,2.5417,2.6061,2.6391,2.7187,2.8945,2.9775,3.0801,3.2412,3.3516,3.4365,3.4941,3.5381,3.5449,0.0,0.0,0.0,0.0,2.7825,2.5434,2.4142,2.3574,2.3211,2.3025,2.2597,2.1944,2.1101,2.0449,2.0,1.9786,1.9499,1.9424,1.9424,0.0,0.0,0.0,1.9424,1.9424,1.9424,1.9424,1.9424,1.9424,1.9424,1.9424,1.9424,1.9424,1.9424,1.9285,1.8784,1.8557,1.8397,1.7876,1.7655,1.7582,1.7582,1.7582,1.7582,1.7582,1.7582,1.7528,1.738,1.7266,1.7085,1.667,1.6449,1.6213,1.5999,1.5885,1.5784,1.5784,1.5784,1.5784,1.5784,1.5784,1.5784,1.5784,1.5784,1.5784,1.5784,1.5784,1.5784,1.5784,1.5784,1.5784,1.5784,1.5784,1.5784,1.5784,1.5784,1.5784,1.5784,1.5784,1.5784,1.5784,1.5784,1.5445,1.4729,1.4729,1.419,2.1861,2.2403,2.263,2.263,2.2162,2.1525,2.0874,2.023,2.003,2.0759,2.0936,2.1234,2.2341,2.3384,2.4146,2.4146,2.5714,2.7314,2.8184,2.9394,3.0693,3.2082,3.2559,3.3144,3.4004,3.4463,0.0,0.0,0.0,0.0,0.0,2.9266,2.732,2.5623,2.4586,2.3658,2.3042,2.2411,2.1772,2.1163,2.0267,1.9806,1.9786,1.9499,1.9424,0.0,0.0,0.0,0.0,1.9424,1.9424,1.9424,1.9424,1.9424,1.9424,1.9424,1.9424,1.9424,1.9424,1.9424,1.9319,1.9018,1.8724,1.8437,1.8075,1.7822,1.7582,1.7582,1.7582,1.7582,1.7582,1.7582,1.7582,1.7582,1.7414,1.7199,1.7192,1.673,1.6321,1.6321,1.6032,1.5784,1.5784,1.5784,1.5784,1.5784,1.5784,1.5784,1.5784,1.5784,1.5784,1.5784,1.5784,1.5784,1.5784,1.5784,1.5784,1.5784,1.5784,1.5784,1.5784,1.5784,1.5784,1.5784,1.5784,1.5784,1.5784,1.5784,1.5778,1.5784,1.5784,1.5255,2.0594,2.1247,2.1657,2.1657,2.1174,2.0647,2.0387,1.9894,1.9501,1.9747,2.0388,2.0987,2.1336,2.2291,2.3421,2.4789,2.5521,2.656,2.8447,2.9326,3.0254,3.1572,3.2871,3.3887,0.0,0.0,0.0,0.0,0.0,0.0,0.0,3.048,2.8592,2.6698,2.4672,2.384,2.431,2.2636,2.1805,2.175,2.0401,1.9693,1.9499,1.947,0.0,0.0,0.0,0.0,0.0,1.9764,1.9873,2.0558,1.9707,1.988,2.0558,1.9707,1.9424,1.9424,1.9424,1.9424,1.9319,1.9018,1.8731,1.8437,1.8082,1.7829,1.7582,1.7582,1.7582,1.7582,1.7582,1.7582,1.7582,1.7582,1.7515,1.744,1.7246,1.7052,1.6804,1.6402,1.6192,1.6072,1.5865,1.5784,1.5784,1.5784,1.5784,1.5784,1.5784,1.5784,1.5784,1.5784,1.5784,1.5784,1.5784,1.5784,1.5784,1.5784,1.5784,1.5784,1.5784,1.5784,1.5784,1.5784,1.5784,1.5784,1.5784,1.5784,1.5784,1.5784,1.5784,1.5635,1.9594,2.0259,2.0662,2.0662,2.0362,1.9996,1.9747,1.9477,1.9242,1.9118,1.9737,2.0285,2.0285,2.1183,2.2443,2.4061,2.4654,2.5811,2.8315,2.8916,2.9687,3.1318,3.2744,0.0,0.0,0.0,0.0,0.0,0.0,0.0,0.0,0.0,2.9253,2.802,2.5551,2.4487,2.4906,2.2762,2.1862,2.218,2.0592,1.9656,1.9424,1.9424,0.0,0.0,0.0,0.0,0.0,1.988,2.0104,2.1117,2.0385,2.0551,2.1117,2.0385,1.9764,1.9424,1.9424,1.9424,1.9397,1.9152,1.8818,1.8437,1.8082,1.7829,1.7582,1.7582,1.7582,1.7582,1.7582,1.7582,1.7582,1.7582,1.7582,1.7528,1.7407,1.728,1.7058,1.6533,1.6346,1.6179,1.5879,1.5784,1.5784,1.5784,1.5784,1.5784,1.5784,1.5784,1.5784,1.5784,1.5784,1.5784,1.5784,1.5784,1.5784,1.5784,1.5784,1.5784,1.5784,1.5784,1.5784,1.5784,1.5784,1.5784,1.5784,1.5784,1.5784,1.5784,1.5784,1.5784,0.0,1.9478,1.9713,1.9713,1.9713,1.9551,1.8891,1.8986,0.0,1.8818,1.8994,1.9213,1.9235,2.0099,2.1124,2.23,2.3341,2.4988,2.7868,2.8432,2.9316,3.1318,3.2314,0.0,3.2842,0.0,0.0,0.0,0.0,0.0,0.0,0.0,2.9489,2.9358,2.6949,2.548,2.5061,2.2931,2.2194,2.2721,2.0845,1.9815,1.9533,1.954,0.0,0.0,0.0,0.0,0.0,2.0046,2.027,2.146,2.1345,2.1402,2.146,2.1288,2.0551,1.9655,1.9482,1.9482,1.9533,1.9397,1.8951,1.8437,1.8082,1.7829,1.7582,1.7582,1.7582,1.7582,1.7582,1.7582,1.7582,1.7582,1.7582,1.7582,1.7582,1.742,1.7146,1.6794,1.6506,1.6206,1.5912,1.5798,1.5784,1.5784,1.5784,1.5784,1.5784,1.5784,1.5784,1.5784,1.5784,1.5784,1.5784,1.5784,1.5784,1.5784,1.5784,1.5784,1.5784,1.5784,1.5784,1.5784,1.5784,1.5784,1.5784,1.5784,1.5784,1.5784,1.5784,1.5784,1.8339,0.0,1.865,1.865,1.865,1.8606,0.0,1.8474,1.8511,1.843,1.8474,1.8606,1.8855,1.9102,1.9949,2.1966,2.2695,2.4205,2.7595,2.994,3.1445,3.1953,3.2764,3.3271,0.0,0.0,0.0,0.0,0.0,0.0,0.0,0.0,3.0054,2.9067,2.7589,2.6818,2.6915,2.4751,2.4213,2.5226,2.2459,2.1145,2.1088,2.0888,0.0,0.0,0.0,0.0,2.3768,2.1687,2.2021,2.388,2.2926,2.3151,2.3712,2.1851,2.1623,2.1907,2.0046,1.9989,2.0573,1.9377,1.8784,1.8437,1.8082,1.7829,1.7582,1.7582,1.7582,1.7582,1.7582,1.7582,1.7582,1.7582,1.7582,1.7582,1.7582,1.7528,1.7395,1.7152,1.6807,1.6513,1.6219,1.5979,1.5784,1.5784,1.5784,1.5784,1.5784,1.5784,1.5784,1.5784,1.5784,1.5784,1.5784,1.5784,1.5784,1.5784,1.5784,1.5784,1.5784,1.5784,1.5784,1.5784,1.5784,1.5784,1.5784,1.5784,1.5784,1.5784,1.5784,1.5784,1.8375,1.8416,1.8299,1.8299,1.8416,1.8445,1.8145,1.8313,1.8438,1.8138,1.8196,1.8401,1.873,1.8789,1.9456,2.1491,2.2007,2.3424,2.7083,3.0052,3.1943,3.2148,3.2744,0.0,0.0,0.0,0.0,0.0,0.0,0.0,0.0,0.0,3.018,2.9258,2.8417,2.7744,2.7293,2.5418,2.5058,2.6045,2.3327,2.1934,2.1828,2.168,0.0,0.0,0.0,0.0,2.4667,2.2805,2.3095,2.4723,2.4103,2.4214,2.4667,2.3311,2.2918,2.2805,2.1509,2.1124,2.0952,1.941,1.8731,1.8437,1.8082,1.7829,1.7582,1.7582,1.7582,1.7582,1.7582,1.7582,1.7582,1.7582,1.7582,1.7582,1.7582,1.7582,1.7455,1.7027,1.6814,1.6573,1.6139,1.5939,1.5784,1.5784,1.5784,1.5784,1.5784,1.5784,1.5784,1.5784,1.5784,1.5784,1.5784,1.5784,1.5784,1.5784,1.5784,1.5784,1.5784,1.5784,1.5784,1.5784,1.5784,1.5784,1.5784,1.5784,1.5784,1.5784,1.5784,1.5784,1.8637,1.8584,1.8364,1.8313,1.8474,1.8496,1.794,1.8203,1.8408,1.7852,1.7962,1.8269,1.865,1.876,1.9316,2.0958,2.1565,2.305,2.6603,2.9494,3.1411,3.2021,3.2441,0.0,0.0,0.0,0.0,0.0,0.0,0.0,0.0,0.0,0.0,2.9482,2.9053,2.8263,2.7207,2.5896,2.5663,2.6436,2.4117,2.2902,2.2685,2.2636,0.0,0.0,0.0,0.0,2.5055,2.376,2.3991,2.5064,2.5064,2.5064,2.5064,2.4898,2.4278,2.3488,2.3143,2.2153,2.0886,1.9616,1.8803,1.837,1.8279,1.7929,1.7582,1.7582,1.7582,1.7582,1.7582,1.7582,1.7582,1.7582,1.7582,1.7582,1.7582,1.7582,1.7422,1.6881,1.6734,1.6533,1.5992,1.5811,1.5784,1.5784,1.5784,1.5784,1.5784,1.5784,1.5784,1.5784,1.5784,1.5784,1.5784,1.5784,1.5784,1.5784,1.5784,1.5784,1.5784,1.5784,1.5784,1.5784,1.5784,1.5784,1.5784,1.5784,1.5784,1.5784,1.5784,1.5784,1.8637,1.8752,1.865,1.8372,1.813,1.794,1.7838,1.7677,1.7523,1.7381,1.7443,1.7662,1.8262,1.8606,1.914,2.0219,2.2237,2.4374,0.0,0.0,3.0297,3.1482,0.0,0.0,0.0,0.0,0.0,0.0,0.0,0.0,0.0,0.0,0.0,2.9033,2.8603,2.8281,2.811,2.7881,2.7843,2.795,2.6327,2.5553,2.5489,2.5168,2.5131,0.0,0.0,2.558,2.6545,2.511,2.5229,2.63,2.63,2.63,2.619,2.5174,2.534,2.5743,2.3712,2.1999,2.0757,2.0419,1.9306,1.8266,1.9159,1.86,1.7582,1.7582,1.7582,1.7582,1.7582,1.7582,1.7582,1.7582,1.7582,1.7582,1.7582,1.7582,1.7482,1.7199,1.6881,1.66,1.6266,1.5999,1.5784,1.5784,1.5784,1.5784,1.5784,1.5784,1.5784,1.5784,1.5784,1.5784,1.5784,1.5784,1.5784,1.5784,1.5784,1.5784,1.5784,1.5784,1.5784,1.5784,1.5784,1.5784,1.5784,1.5784,1.5784,1.5784,1.5784,1.5784,1.8469,1.8657,1.8752,1.8606,1.8584,1.8555,1.8379,1.8225,1.8021,1.7614,1.7589,1.7735,1.8211,1.8569,1.922,2.0545,2.2779,2.4654,2.5353,2.703,2.8745,0.0,0.0,0.0,0.0,0.0,0.0,0.0,0.0,0.0,0.0,0.0,0.0,0.0,2.8506,2.8291,2.8291,2.8291,2.8291,2.8291,2.6952,2.6345,2.6291,2.6182,2.6018,2.5908,0.0,2.6799,2.6935,2.6436,2.6445,2.6845,2.6845,2.6845,2.6727,2.6017,2.6136,2.6364,2.4556,2.3355,2.2465,2.1557,2.0207,1.9003,1.9355,1.8573,1.7582,1.7582,1.7582,1.7582,1.7582,1.7582,1.7582,1.7582,1.7582,1.7582,1.7582,1.7582,1.7495,1.7259,1.6907,1.6613,1.6375,1.6025,1.5784,1.5784,1.5784,1.5784,1.5784,1.5784,1.5784,1.5784,1.5784,1.5784,1.5784,1.5784,1.5784,1.5784,1.5784,1.5784,1.5784,1.5784,1.5784,1.5784,1.5784,1.5784,1.5784,1.5784,1.5784,1.5784,1.5784,1.5784,1.8156,1.8372,1.8577,1.8657,1.8862,1.9023,1.8928,1.8789,1.8577,1.8225,1.8094,1.8145,1.8467,1.8979,1.9813,2.1211,2.2997,2.4364,2.4666,2.5808,0.0,0.0,0.0,0.0,0.0,0.0,0.0,0.0,0.0,0.0,0.0,0.0,0.0,0.0,2.8457,2.8291,2.8291,2.8291,2.8291,2.8291,2.7349,2.6907,2.6907,2.6907,2.6808,2.6636,2.752,2.7638,2.7206,2.7368,2.726,2.7098,2.7098,2.7043,2.6989,2.6691,2.6591,2.6418,2.5229,2.4521,2.4028,2.2728,2.1299,2.0076,1.9688,1.8819,1.7943,1.7687,1.7582,1.7582,1.7582,1.7582,1.7582,1.7582,1.7582,1.7582,1.7582,1.7582,1.7475,1.7166,1.686,1.6587,1.6233,1.5979,1.5784,1.5784,1.5784,1.5784,1.5784,1.5784,1.5784,1.5784,1.5784,1.5784,1.5784,1.5784,1.5784,1.5784,1.5784,1.5784,1.5784,1.5784,1.5784,1.5784,1.5784,1.5784,1.5784,1.5784,1.5784,1.5784,1.5784,1.5784,1.7763,1.7867,1.7955,1.8262,1.8357,1.8525,1.9111,1.8774,1.8496,1.906,1.8928,1.8818,1.9147,2.0208,2.1269,2.2001,2.2713,2.3621,2.4909,0.0,0.0,0.0,0.0,0.0,0.0,0.0,0.0,0.0,0.0,0.0,0.0,0.0,0.0,0.0,0.0,2.8291,2.8291,2.8291,2.8291,2.8291,2.8237,2.8184,2.8184,2.8184,2.8184,2.8121,2.796,2.7906,2.7799,2.7539,2.7377,2.7368,2.7368,2.7206,2.6989,2.6691,2.6591,2.6418,2.5229,2.4585,2.4199,2.3662,2.2534,2.1278,2.0885,2.0004,1.8864,1.7891,1.7582,1.7582,1.7582,1.7582,1.7582,1.7582,1.7582,1.7582,1.7582,1.7582,1.7415,1.6847,1.672,1.6526,1.5959,1.5798,1.5784,1.5784,1.5784,1.5784,1.5784,1.5784,1.5784,1.5784,1.5784,1.5784,1.5784,1.5784,1.5784,1.5784,1.5784,1.5784,1.5784,1.5784,1.5784,1.5784,1.5784,1.5784,1.5784,1.5784,1.5784,1.5784,1.5784,1.5784,1.7479,1.7808,1.8101,1.8021,1.8306,1.8723,1.9177,1.9294,1.9338,1.9777,1.9777,1.9667,1.9647,2.0472,2.1357,2.1803,2.2403,2.3057,0.0,0.0,0.0,0.0,0.0,0.0,0.0,0.0,0.0,0.0,0.0,0.0,0.0,0.0,0.0,0.0,0.0,2.8291,2.8291,2.8291,2.8291,2.8291,2.8291,2.8291,2.8291,2.8291,2.8291,2.8291,2.8184,2.8067,2.7906,2.796,2.7862,2.7691,2.7691,2.753,2.726,2.7107,2.7116,2.7008,2.6609,2.6007,2.5432,2.5086,2.3798,2.2316,2.1996,2.0621,1.9124,1.8715,1.8094,1.7582,1.7582,1.7582,1.7582,1.7582,1.7582,1.7582,1.7582,1.7582,1.7515,1.7295,1.6954,1.6633,1.6413,1.6072,1.5784,1.5784,1.5784,1.5784,1.5784,1.5784,1.5784,1.5784,1.5784,1.5784,1.5784,1.5784,1.5784,1.5784,1.5784,1.5784,1.5784,1.5784,1.5784,1.5784,1.5784,1.5784,1.5784,1.5784,1.5784,1.5784,1.5784,1.5784,1.7297,1.7655,1.7962,1.7845,1.8225,1.8774,1.9308,1.9654,1.9991,2.0567,2.053,2.0355,2.0237,2.0676,2.1233,0.0,2.2286,2.2732,0.0,0.0,0.0,0.0,0.0,0.0,0.0,0.0,0.0,0.0,0.0,0.0,0.0,0.0,0.0,0.0,0.0,0.0,2.8291,2.8291,2.8291,2.8291,2.8291,2.8291,2.8291,2.8291,2.8291,2.8291,2.8291,2.8184,2.8014,2.8237,2.8184,2.8014,2.7906,2.7659,2.734,2.7233,2.7103,2.699,2.699,2.6603,2.6102,2.5834,2.4766,2.3462,2.2795,2.1582,2.0246,1.9546,1.8819,1.8146,1.7793,1.7635,1.7582,1.7582,1.7582,1.7582,1.7582,1.7508,1.7422,1.7321,1.6907,1.654,1.6446,1.6044,1.5784,1.5784,1.5784,1.5784,1.5784,1.5784,1.5784,1.5784,1.5784,1.5832,1.5927,1.5927,1.5927,1.5927,1.5927,1.5879,1.5784,1.5784,1.5784,1.5784,1.5784,1.5784,1.5784,1.5784,1.5784,1.5784,1.5784,1.5784,1.7246,1.7286,1.7413,1.7735,1.8064,1.8562,1.9595,1.9823,2.0189,2.143,2.1181,2.083,2.1145,2.094,2.1042,2.2015,2.2425,0.0,0.0,0.0,0.0,0.0,0.0,0.0,0.0,0.0,0.0,0.0,0.0,0.0,0.0,0.0,0.0,0.0,0.0,0.0,2.8291,2.8291,2.8291,2.8291,2.8291,2.8291,2.8291,2.8291,2.8291,2.8291,2.8291,2.8291,2.8291,2.8291,2.8291,2.8281,2.8014,2.7583,2.7156,2.6912,2.6499,2.6088,2.6088,2.6088,2.6064,2.5629,2.5327,2.484,2.3359,2.2885,2.2433,2.0328,1.9657,1.9376,1.8325,1.7852,1.7635,1.7635,1.7582,1.7582,1.7582,1.7407,1.7112,1.6767,1.6473,1.6179,1.5838,1.5784,1.5784,1.5784,1.5784,1.5784,1.5784,1.5784,1.5784,1.5784,1.5784,1.5927,1.6177,1.6224,1.6224,1.6224,1.6224,1.6076,1.5832,1.5784,1.5784,1.5784,1.5784,1.5784,1.5784,1.5784,1.5784,1.5784,1.5784,1.5784,1.7237,1.7486,1.775,1.8072,1.8577,1.9118,1.9698,2.0113,2.0676,2.1525,2.154,2.1298,2.0933,2.0976,0.0,2.1452,0.0,0.0,0.0,0.0,0.0,0.0,0.0,0.0,0.0,0.0,0.0,0.0,0.0,0.0,0.0,0.0,0.0,0.0,0.0,0.0,2.8291,2.8291,2.8291,2.8291,2.8291,2.8291,2.8291,2.8291,2.8291,2.8291,2.8291,2.8291,2.8291,2.8291,2.8115,2.7851,2.7799,2.7474,2.7043,2.695,2.6872,2.6705,2.6705,2.6563,2.6251,2.5966,2.5567,2.5142,2.4507,2.3759,2.3044,2.2383,2.1667,2.0845,1.9679,1.979,1.9738,1.7996,1.7582,1.7582,1.7582,1.7407,1.7172,1.7085,1.6663,1.6295,1.6159,1.5965,1.5784,1.5784,1.5784,1.5784,1.5784,1.5784,1.5784,1.5784,1.5981,1.6123,1.6177,1.6359,1.6494,1.6494,1.6494,1.6258,1.5825,1.5784,1.5784,1.5784,1.5784,1.5784,1.5784,1.5784,1.5784,1.5784,1.5784,1.5784,1.7077,1.744,1.7787,1.8386,1.8986,1.9676,2.0208,2.0742,2.1218,2.1613,2.1591,2.1423,2.1159,2.1057,0.0,0.0,0.0,0.0,0.0,0.0,0.0,0.0,0.0,0.0,0.0,0.0,0.0,0.0,0.0,0.0,0.0,0.0,0.0,0.0,0.0,0.0,2.8291,2.8291,2.8291,2.8291,2.8291,2.8291,2.8291,2.8291,2.8291,2.8291,2.8291,2.8193,2.8047,2.8047,2.7793,2.7402,2.7402,2.7139,2.6768,2.6768,2.666,2.6454,2.6454,2.6338,2.6083,2.5925,2.5603,2.5284,2.5088,2.4618,2.4007,2.3552,2.2985,2.2265,2.11,2.1159,2.081,1.8363,1.7996,1.8067,1.7539,1.7233,1.6991,1.6878,1.642,1.6092,1.6092,1.5945,1.5784,1.5784,1.5784,1.5784,1.5784,1.5879,1.5974,1.5974,1.6218,1.6407,1.6508,1.669,1.6784,1.6784,1.6784,1.6588,1.6157,1.6021,1.5974,1.5974,1.5832,1.5784,1.5784,1.5784,1.5784,1.5784,1.5784,1.5784,1.6824,1.7204,1.7658,1.8651,1.9367,2.0091,2.0998,2.1445,2.165,2.165,2.1415,2.1298,2.1598,2.1167,2.0962,0.0,0.0,0.0,0.0,0.0,0.0,0.0,0.0,0.0,0.0,0.0,0.0,0.0,0.0,0.0,0.0,0.0,0.0,0.0,0.0,0.0,2.8291,2.8291,2.8291,0.0,2.8291,2.8271,2.8232,2.8271,2.8271,2.8232,2.8232,2.7998,2.766,2.766,2.7353,2.6963,2.6963,2.6699,2.6328,2.6328,2.6084,2.5693,2.5693,2.5693,2.5693,2.5693,2.5538,2.5333,2.5333,2.5333,2.5137,2.4183,2.3868,2.3642,2.2534,2.2173,2.1397,1.8894,1.8783,1.8897,1.7657,1.6995,1.6643,1.6375,1.6032,1.5784,1.5784,1.5784,1.5832,1.5832,1.5832,1.5832,1.5872,1.6076,1.6224,1.6224,1.6501,1.6737,1.6979,1.7026,1.7026,1.7026,1.7026,1.6925,1.6676,1.6407,1.6224,1.6224,1.5974,1.5825,1.5784,1.5784,1.5784,1.5784,1.5784,1.5784,1.7155,1.7434,1.7766,1.9212,2.004,2.064,2.1101,2.1262,2.1313,2.1313,2.1262,2.1233,2.1306,2.1203,0.0,0.0,0.0,0.0,0.0,0.0,0.0,0.0,0.0,0.0,0.0,0.0,0.0,0.0,0.0,0.0,0.0,0.0,0.0,0.0,0.0,2.8291,2.8291,2.8291,2.8291,0.0,2.8291,2.8125,2.7812,2.8144,2.8115,2.7855,2.7855,2.7559,2.7158,2.7158,2.6904,2.6523,2.6523,2.626,2.583,2.583,2.5771,2.5693,2.5693,2.5693,2.5693,2.5693,2.5635,2.5586,2.5586,2.5586,2.5586,2.5333,2.5274,2.502,2.3949,2.4106,2.3876,2.1263,2.0105,1.9376,1.8861,1.7676,1.6598,1.6335,1.6032,1.5784,1.5784,1.5784,1.5879,1.6076,1.6123,1.617,1.64,1.6494,1.6494,1.6494,1.6737,1.6932,1.6979,1.7153,1.7239,1.7239,1.7239,1.7192,1.7138,1.6723,1.64,1.6224,1.6123,1.6028,1.5784,1.5784,1.5784,1.5784,1.5784,1.5784,1.6497,1.7113,1.7889,1.9424,2.0128,2.0537,2.0706,2.0742,2.0742,2.0742,2.0991,2.1211,2.1211,2.1211,0.0,0.0,0.0,0.0,0.0,0.0,0.0,0.0,0.0,0.0,0.0,0.0,0.0,0.0,0.0,0.0,0.0,0.0,0.0,0.0,2.8291,2.8291,2.8291,2.8291,2.8291,2.8291,2.8086,2.7773,2.7363,2.7578,2.7559,2.7353,2.7353,2.7109,2.6709,2.6709,2.6465,2.6074,2.6074,2.5937,2.5693,2.5693,2.5693,2.5693,2.5693,2.5693,2.5693,2.5693,2.5693,2.5693,2.5693,2.5693,2.5693,2.5693,2.5693,2.5538,2.4754,2.4909,2.4814,2.3204,2.1928,2.0687,1.9181,1.8174,1.7332,1.6567,1.6313,1.6163,1.6163,1.6163,1.6204,1.6359,1.64,1.6447,1.6588,1.673,1.6784,1.6784,1.7012,1.7153,1.7153,1.7239,1.7279,1.7279,1.7279,1.7279,1.7279,1.7052,1.677,1.6407,1.6272,1.613,1.5981,1.5879,1.592,1.6163,1.6069,1.6069,1.5631,1.6759,1.8045,1.9357,1.9906,2.0183,2.0183,2.0183,2.0183,2.0183,2.0669,2.1057,2.1115,0.0,0.0,0.0,0.0,0.0,0.0,0.0,0.0,0.0,0.0,0.0,0.0,0.0,0.0,0.0,0.0,0.0,0.0,0.0,2.8291,2.8291,2.8291,2.8291,2.8291,2.8291,2.8291,2.8281,2.7793,2.7324,2.6904,2.6826,2.6836,2.6904,2.6904,2.667,2.6279,2.6279,2.6064,2.5693,2.5693,2.5693,2.5693,2.5693,2.5693,2.5693,2.5693,2.5693,2.5693,2.5693,2.5693,2.5693,2.5693,2.5693,2.5674,2.5644,2.5625,2.5567,2.5088,2.5057,2.4941,2.4434,2.357,2.2192,1.9653,1.8918,1.8377,1.7095,1.6723,1.6588,1.6588,1.6588,1.6636,1.6683,1.6683,1.6683,1.6723,1.6918,1.7073,1.7073,1.72,1.7279,1.7279,1.7279,1.7279,1.7279,1.7279,1.7279,1.7279,1.7279,1.7099,1.6683,1.6407,1.6272,1.6272,1.6021,1.6116,1.6581,1.6359,1.6407,1.5556,1.7043,1.8455,1.8909,1.9624,2.0183,2.0183,2.0183,2.0183,2.0183,2.0249,2.0394,0.0,0.0,0.0,0.0,0.0,0.0,0.0,0.0,0.0,0.0,0.0,0.0,0.0,0.0,0.0,0.0,0.0,0.0,0.0,2.8291,2.8291,2.8291,2.8291,2.8291,2.8291,2.8291,2.8291,2.8281,2.748,2.6885,2.6465,2.6084,2.6113,2.6475,2.6475,2.623,2.5771,2.5771,2.5742,2.5693,2.5693,2.5693,2.5693,2.5693,2.5693,2.5693,2.5693,2.5693,2.5693,2.5693,2.5693,2.5693,2.5693,2.5693,2.5606,2.5273,2.5439,2.5499,2.4717,2.4785,2.491,2.4062,2.3771,2.3271,2.1859,2.0549,1.935,1.8048,1.7178,1.6588,1.6588,1.6588,1.6683,1.6925,1.6932,1.7019,1.7192,1.7239,1.7239,1.7239,1.7279,1.7279,1.7279,1.7279,1.7279,1.7279,1.7279,1.7279,1.7279,1.7279,1.72,1.6932,1.669,1.6541,1.6541,1.6265,1.6312,1.6588,1.6541,1.6588,1.5495,1.6502,1.7401,1.8045,1.8669,1.917,1.917,1.9466,1.9703,1.9703,1.9703,0.0,0.0,0.0,0.0,0.0,0.0,0.0,0.0,0.0,0.0,0.0,0.0,0.0,0.0,0.0,0.0,0.0,0.0,0.0,2.8291,2.8291,2.8184,2.7949,2.7939,0.0,2.7578,2.7578,2.7461,2.7217,2.6846,2.6435,2.6016,2.5771,2.5791,2.6025,2.6025,2.5869,2.5693,2.5693,2.5693,2.5693,2.5693,2.5693,2.5693,2.5693,2.5693,2.5693,2.5693,2.5693,2.5693,2.5693,2.5693,2.5693,2.5693,2.5693,2.5645,2.5498,2.54,2.5215,2.458,2.4385,2.4199,2.3574,2.3428,2.3241,2.2742,2.1733,2.0557,1.9451,1.8457,1.7824,1.7824,1.7372,1.7052,1.7153,1.7153,1.72,1.7286,1.7279,1.7279,1.7279,1.7279,1.7279,1.7279,1.7279,1.7279,1.7279,1.7279,1.7279,1.7279,1.7279,1.7239,1.7153,1.6925,1.6831,1.6831,1.6548,1.6636,1.7005,1.6871,1.6871,1.5103,1.5629,1.6166,1.7051,1.7711,1.8168,1.8253,1.8716,1.9133,0.0,1.9162,0.0,0.0,0.0,0.0,0.0,0.0,0.0,0.0,0.0,0.0,0.0,0.0,0.0,0.0,0.0,0.0,0.0,0.0,0.0,2.7969,2.7969,2.7822,2.751,2.75,2.7344,2.7021,2.7012,2.6807,2.6387,2.6387,2.6162,2.5693,2.5693,2.5693,2.5693,2.5693,2.5693,2.5693,2.5693,2.5693,2.5693,2.5693,2.5693,2.5693,2.5693,2.5693,2.5693,2.5693,2.5693,2.5693,2.5693,2.5693,2.5693,2.5693,2.5693,2.5664,2.5596,2.5322,2.4988,2.4394,2.4023,2.3682,2.3198,2.3091,2.3091,2.3091,2.2369,2.1463,2.0737,1.9832,1.9155,1.9155,1.8334,1.7692,1.7692,1.7466,1.7372,1.7652,1.7692,1.7785,1.801,1.8056,1.7917,1.7692,1.7692,1.7552,1.7326,1.7279,1.7279,1.7279,1.7279,1.7279,1.7279,1.7153,1.7066,1.7066,1.6824,1.6918,1.7279,1.7153,1.7153,1.403,1.457,1.5181,1.612,1.6957,1.7608,1.7874,1.8383,1.873,1.8416,0.0,0.0,0.0,0.0,0.0,0.0,0.0,0.0,0.0,0.0,0.0,0.0,0.0,0.0,0.0,0.0,0.0,0.0,0.0,0.0,2.708,2.708,2.707,2.7051,2.7051,2.7041,2.7012,2.7012,2.6807,2.6387,2.6387,2.6162,2.5693,2.5693,2.5693,2.5693,2.5693,2.5693,2.5693,2.5693,2.5693,2.5693,2.5693,2.5693,2.5693,2.5693,2.5693,2.5693,2.5693,2.5693,2.5693,2.5693,2.5693,2.5693,2.5693,2.5693,2.5596,2.5225,2.5135,2.492,2.4043,2.3809,2.3682,2.3198,2.3091,2.3091,2.3091,2.2369,2.1695,2.165,2.0827,2.0141,2.0141,1.933,1.8703,1.8703,1.7924,1.7645,1.8603,1.8703,1.9063,1.996,2.0051,1.9687,1.8788,1.8703,1.8334,1.7372,1.7279,1.7279,1.7279,1.7279,1.7279,1.7279,1.7286,1.7279,1.7279,1.7066,1.7113,1.7279,1.7286,1.7286,1.3514,1.405,1.472,1.5044,1.5948,1.677,1.6841,1.7562,1.8203,1.8087,0.0,0.0,0.0,0.0,0.0,0.0,0.0,0.0,0.0,0.0,0.0,0.0,0.0,0.0,0.0,0.0,0.0,0.0,0.0,0.0,2.7012,2.7012,2.6894,2.6621,2.6611,2.6484,2.6152,2.6152,2.6074,2.5967,2.5967,2.584,2.5693,2.5693,2.5693,2.5693,2.5693,2.5693,2.5693,2.5693,2.5693,2.5693,2.5693,2.5693,2.5693,2.5693,2.5693,2.5693,2.5693,2.5693,2.5693,2.5693,2.5547,2.5303,2.5303,2.5107,2.4853,2.4697,2.4453,2.418,2.3867,2.3584,2.3286,2.313,2.3091,2.3091,2.3091,2.2828,2.2599,2.2599,2.1828,2.115,2.115,2.0331,1.9695,1.9695,1.9368,1.9285,1.9642,1.9695,1.9832,2.0141,2.0187,2.0051,1.9741,1.9695,1.955,1.9193,1.8603,1.8241,1.8241,1.7645,1.7279,1.7279,1.7279,1.7279,1.7279,1.7239,1.7239,1.7279,1.7279,1.7279,1.3106,1.3554,1.4113,1.4449,1.5099,1.5803,1.6162,1.691,1.7505,1.7602,0.0,0.0,0.0,0.0,0.0,0.0,0.0,0.0,0.0,0.0,0.0,0.0,0.0,0.0,0.0,0.0,0.0,0.0,0.0,0.0,2.6582,2.6582,2.6455,2.6182,2.6172,2.6035,2.5693,2.5693,2.5693,2.5693,2.5693,2.5615,2.5518,2.5518,2.543,2.5245,2.5245,2.5411,2.5693,2.5693,2.5693,2.5693,2.5693,2.5693,2.5674,2.5566,2.5518,2.5488,2.5342,2.5245,2.5245,2.5245,2.5098,2.4853,2.4853,2.4648,2.4414,2.4414,2.4111,2.3789,2.3789,2.3467,2.3091,2.3091,2.3091,2.3091,2.3091,2.3091,2.3091,2.3091,2.2599,2.2148,2.2148,2.1364,2.0692,2.0692,2.0413,2.0322,2.0647,2.0692,2.0818,2.1141,2.1186,2.1051,2.0737,2.0692,2.0548,2.0232,1.9604,1.9293,1.9293,1.8334,1.7785,1.7785,1.7466,1.7279,1.7279,1.7279,1.7279,1.7279,1.7279,1.7279,0.0,0.0,0.0,1.4233,1.4489,1.4763,1.5903,0.0,1.6648,1.6918,0.0,0.0,0.0,0.0,0.0,0.0,0.0,0.0,0.0,0.0,0.0,0.0,0.0,0.0,0.0,0.0,0.0,0.0,0.0,2.5693,2.5693,2.5693,2.5693,2.5693,2.5693,2.5693,2.5693,2.5693,2.5684,2.5664,2.5664,2.5478,2.5096,2.5096,2.4814,2.4414,2.4414,2.4855,2.5645,2.5645,2.5645,2.5645,2.5645,2.5645,2.5596,2.5215,2.5096,2.499,2.456,2.4414,2.4414,2.4414,2.4414,2.4394,2.4394,2.4385,2.4385,2.4385,2.4082,2.3769,2.3769,2.3457,2.3091,2.3091,2.3091,2.3091,2.3091,2.3091,2.3091,2.3091,2.3091,2.3091,2.3091,2.2325,2.1739,2.1739,2.0917,2.0638,2.1606,2.1739,2.2094,2.3003,2.3091,2.2731,2.1828,2.1739,2.1329,2.0367,2.0277,2.0232,2.0232,1.933,1.8834,1.8834,1.7878,1.7372,1.7372,1.7326,1.7279,1.7279,1.7279,1.7279,1.314,0.0,0.0,0.0,0.0,0.0,0.0,0.0,0.0,0.0,0.0,0.0,0.0,0.0,0.0,0.0,0.0,0.0,0.0,0.0,0.0,0.0,0.0,0.0,0.0,0.0,0.0,0.0,2.4922,2.5693,2.5693,2.5693,2.5693,2.5693,2.5693,2.5693,2.5693,2.5693,2.5528,2.5254,2.5254,2.5019,2.459,2.459,2.4531,2.4414,2.4414,2.4551,2.4738,2.4738,2.4738,2.4738,2.4738,2.4738,2.4766,2.4639,2.459,2.458,2.4463,2.4414,2.4414,2.4414,2.4209,2.3965,2.3965,2.374,2.3452,2.3452,2.3364,2.3276,2.3276,2.3188,2.3091,2.3091,2.3091,2.3091,2.3091,2.3091,2.3091,2.3091,2.3091,2.3091,2.3091,2.2872,2.2731,2.2731,2.2457,2.2413,2.2687,2.2731,2.2818,2.3047,2.3091,2.3003,2.2731,2.2731,2.2599,2.2325,2.165,2.1284,2.1284,2.0331,1.9824,1.9824,1.955,1.9422,1.9368,1.801,1.7279,1.7279,1.7279,1.7279,1.332,1.3547,1.3848,1.3627,0.0,0.0,0.0,1.4518,0.0,0.0,0.0,0.0,0.0,0.0,0.0,0.0,0.0,0.0,0.0,0.0,0.0,0.0,0.0,0.0,0.0,0.0,0.0,0.0,2.5069,2.5606,2.5469,2.5235,2.5138,2.5138,2.5138,2.5138,2.5138,2.5138,2.5059,2.4795,2.4795,2.457,2.415,2.415,2.4053,2.3842,2.3842,2.3842,2.3842,2.3842,2.4092,2.4414,2.4414,2.4414,2.4394,2.4219,2.415,2.4131,2.3945,2.3842,2.3842,2.3842,2.3721,2.3516,2.3516,2.334,2.3091,2.3091,2.3091,2.3091,2.3091,2.3091,2.3091,2.3091,2.3091,2.3091,2.3091,2.3091,2.3091,2.3091,2.3091,2.3091,2.3091,2.3091,2.3091,2.3091,2.3091,2.3091,2.3091,2.3091,2.3091,2.3091,2.3091,2.3091,2.3091,2.3091,2.3091,2.3091,2.2599,2.228,2.228,2.1329,2.0827,2.0827,2.0413,2.0187,2.0187,1.9055,1.8334,1.7924,1.7512,1.7279,1.3547,1.3553,1.38,1.4041,0.0,0.0,1.4599,1.4389,1.4267,0.0,0.0,0.0,0.0,0.0,0.0,0.0,0.0,0.0,0.0,0.0,0.0,0.0,0.0,0.0,0.0,0.0,2.4202,2.4156,2.5024,2.542,2.5019,2.4629,2.4414,2.4414,2.4414,2.4414,2.4414,2.4414,2.4394,2.4346,2.4346,2.4121,2.3721,2.3721,2.3506,2.3091,2.3091,2.3091,2.3091,2.3091,2.3539,2.4277,2.4277,2.4277,2.4228,2.3857,2.3721,2.3662,2.3227,2.3091,2.3091,2.3091,2.3091,2.3091,2.3091,2.3091,2.3091,2.3091,2.3091,2.3091,2.3091,2.3091,2.3091,2.3091,2.3091,2.3091,2.3091,2.3091,2.3091,2.3091,2.3091,2.3091,2.3091,2.3091,2.3091,2.3091,2.3091,2.3091,2.3091,2.3091,2.3091,2.3091,2.3091,2.3091,2.3091,2.3091,2.3091,2.3091,2.3091,2.3091,2.3091,2.228,2.1872,2.1872,2.0962,2.0503,2.0503,2.0322,1.9778,1.8926,1.8056,1.7552,1.47,1.4707,1.4646,1.4188,0.0,0.0,1.3661,1.3641,1.372,0.0,0.0,0.0,0.0,0.0,0.0,0.0,0.0,0.0,0.0,0.0,0.0,0.0,0.0,0.0,0.0,0.0,2.4745,2.4351,2.4528,2.4639,2.4551,2.4463,2.4414,2.4414,2.4414,2.4414,2.4414,2.4414,2.4248,2.3906,2.3906,2.3682,2.3218,2.3218,2.3179,2.3091,2.3091,2.3091,2.3091,2.3091,2.3198,2.3344,2.3344,2.3344,2.3335,2.3257,2.3218,2.3208,2.312,2.3091,2.3091,2.3091,2.3091,2.3091,2.3091,2.3091,2.3091,2.3091,2.3091,2.3091,2.3091,2.3091,2.3091,2.3091,2.3091,2.3091,2.3091,2.3091,2.3091,2.3091,2.3091,2.3091,2.3091,2.3091,2.3091,2.3091,2.3091,2.3091,2.3091,2.3091,2.3091,2.3091,2.3091,2.3091,2.3091,2.3091,2.3091,2.3091,2.3091,2.3091,2.3091,2.2916,2.2828,2.2828,2.2643,2.2545,2.2545,2.0962,2.0096,1.9914,1.9733,1.9239,1.5089,1.5008,0.0,1.464,0.0,0.0,0.0,1.3706,1.3686,1.3979,0.0,0.0,0.0,0.0,0.0,0.0,0.0,0.0,0.0,0.0,0.0,0.0,0.0,0.0,0.0,0.0,2.4648,2.4434,2.4219,2.4102,2.4102,2.3896,2.3734,2.3734,2.3734,2.3734,2.3734,2.3734,2.3627,2.3467,2.3467,2.3305,2.3091,2.3091,2.3091,2.3091,2.3091,2.3091,2.3091,2.3091,2.3091,2.3091,2.3091,2.3091,2.3091,2.3091,2.3091,2.3091,2.3091,2.3091,2.3091,2.3091,2.3091,2.3091,2.3091,2.3091,2.3091,2.3091,2.3091,2.3091,2.3091,2.3091,2.3091,2.3091,2.3091,2.3091,2.3091,2.3091,2.3091,2.3091,2.3091,2.3091,2.3091,2.3091,2.3169,2.3428,2.3467,2.3535,2.3705,2.3734,2.3734,2.3734,2.3594,2.3467,2.3467,2.3218,2.3091,2.3091,2.3091,2.3091,2.3091,2.3091,2.3091,2.3091,2.3091,2.3091,2.3091,2.2138,2.1418,2.0917,2.0413,1.9968,0.0,0.0,0.0,0.0,0.0,1.4342,0.0,0.0,0.0,1.4153,0.0,0.0,0.0,0.0,0.0,0.0,0.0,0.0,0.0,0.0,0.0,0.0,0.0,0.0,0.0,0.0,2.4121,2.4287,2.3828,2.3584,2.3662,2.333,2.3091,2.3091,2.3091,2.3091,2.3091,2.3091,2.3091,2.3091,2.3091,2.3091,2.3091,2.3091,2.3091,2.3091,2.3091,2.3091,2.3091,2.3091,2.3091,2.3091,2.3091,2.3091,2.3091,2.3091,2.3091,2.3091,2.3091,2.3091,2.3091,2.3091,2.3091,2.3091,2.3091,2.3091,2.3091,2.3091,2.3091,2.3091,2.3091,2.3091,2.3091,2.3091,2.3091,2.3091,2.3091,2.3091,2.3091,2.3091,2.3159,2.3198,2.311,2.3169,2.3379,2.374,2.3857,2.4033,2.4375,2.4414,2.4414,2.4414,2.4111,2.3877,2.3799,2.3467,2.3188,2.3101,2.3091,2.3091,2.3091,2.3091,2.3091,2.3091,2.3091,2.3091,2.3091,2.3091,2.2731,2.1961,2.1141,2.0638,0.0,0.0,0.0,0.0,1.511,0.0,0.0,0.0,1.3908,1.3454,0.0,0.0,0.0,0.0,0.0,0.0,0.0,0.0,0.0,0.0,0.0,0.0,0.0,0.0,0.0,0.0,0.0,2.3809,2.3115,2.2822,2.3149,2.312,2.3091,2.3091,2.3091,2.3091,2.3091,2.3091,2.3091,2.3091,2.3091,2.3091,2.3091,2.3091,2.3091,2.3091,2.3091,2.3091,2.3091,2.3091,2.3091,2.3091,2.3091,2.3091,2.3091,2.3091,2.3091,2.3091,2.3091,2.3091,2.3091,2.3091,2.3091,2.3091,2.3091,2.3091,2.3091,2.3091,2.3091,2.3091,2.3091,2.3091,2.3091,2.3091,2.3091,2.3091,2.3091,2.3091,2.3091,2.3091,2.3457,2.3594,2.3159,2.3457,2.373,2.3779,2.4111,2.4365,2.4414,2.4414,2.4414,2.4414,2.4375,2.4199,2.3828,2.374,2.3555,2.312,2.3091,2.3091,2.3091,2.3091,2.3091,2.3091,2.3091,2.3091,2.3091,2.3091,2.3047,2.296,2.2818,2.2325,0.0,0.0,0.0,0.0,0.0,0.0,1.4259,0.0,1.4015,0.0,0.0,0.0,0.0,0.0,0.0,0.0,0.0,0.0,0.0,0.0,0.0,0.0,0.0,0.0,0.0,0.0,0.0,0.0,0.0,2.2695,2.3071,2.3091,2.3091,2.3091,2.3091,2.3091,2.3091,2.3091,2.3091,2.3091,2.3091,2.3091,2.3091,2.3091,2.3091,2.3091,2.3091,2.3091,2.3091,2.3091,2.3091,2.3091,2.3091,2.3091,2.3091,2.3091,2.3091,2.3091,2.3091,2.3091,2.3091,2.3091,2.3091,2.3091,2.3091,2.3091,2.3091,2.3091,2.3091,2.3091,2.3091,2.3091,2.3091,2.3091,2.3091,2.3091,2.3091,2.3296,2.3516,2.3516,2.3857,2.4092,2.3916,2.4033,2.4238,2.4492,2.4678,2.4893,2.5099,2.5128,2.5128,2.5128,2.4951,2.4727,2.4587,2.4297,2.4072,2.3851,2.3832,2.3832,2.3832,2.3652,2.3516,2.3516,2.3227,2.3091,2.3091,2.3091,2.3091,2.3091,2.3091,2.2872,1.5932,0.0,0.0,0.0,0.0,0.0,0.0,0.0,0.0,0.0,0.0,0.0,0.0,0.0,0.0,0.0,0.0,0.0,0.0,0.0,0.0,0.0,0.0,0.0,0.0,0.0,0.0,0.0,0.0,0.0,2.3062,2.3091,2.3091,2.3091,2.3091,2.3091,2.3091,2.3091,2.3091,2.3091,2.3091,2.3091,2.3091,2.3091,2.3091,2.3091,2.3091,2.3091,2.3091,2.3091,2.3091,2.3091,2.3091,2.3091,2.3091,2.3091,2.3091,2.3091,2.3091,2.3091,2.3091,2.3091,2.3091,2.3091,2.3091,2.3091,2.3091,2.3091,2.3091,2.3091,2.3091,2.3091,2.3091,2.3091,2.3091,2.3091,2.3091,2.3486,2.3789,2.3789,2.4228,2.459,2.459,2.459,2.4697,2.5067,2.5176,2.5371,2.5645,2.5693,2.5693,2.5693,2.5449,2.5205,2.5125,2.4775,2.4551,2.4424,2.4414,2.4414,2.4414,2.4121,2.3965,2.3965,2.3608,2.3442,2.3442,2.3335,2.3276,2.3276,2.3149,2.3091,0.0,0.0,0.0,1.5117,0.0,0.0,0.0,0.0,1.4429,0.0,0.0,0.0,0.0,0.0,1.4265,1.4305,1.4658,0.0,0.0,0.0,0.0,0.0,0.0,0.0,0.0,0.0,0.0,0.0,0.0,0.0,2.3052,2.3091,2.3091,2.3091,2.3091,2.3091,2.3091,2.3091,2.3091,2.3091,2.3091,2.3091,2.3091,2.3091,2.3091,2.3091,2.3091,2.3091,2.3091,2.3091,2.3091,2.3091,2.3091,2.3091,2.3091,2.3091,2.3091,2.3091,2.3091,2.3091,2.3091,2.3091,2.3091,2.3091,2.3091,2.3091,2.3091,2.3091,2.3091,2.3091,2.3091,2.3091,2.3091,2.3091,2.3091,2.3091,2.3091,2.3486,2.3789,2.3789,2.4473,2.5096,2.5096,2.5096,2.5096,2.5116,2.5439,2.5674,2.5693,2.5693,2.5693,2.5693,2.5674,2.5537,2.5155,2.5106,2.4863,2.4443,2.4414,2.4414,2.4414,2.4404,2.4394,2.4394,2.4385,2.4375,2.4375,2.3965,2.3769,2.376,2.3286,2.3091,0.0,0.0,1.5684,1.5344,0.0,0.0,0.0,0.0,0.0,0.0,0.0,0.0,0.0,0.0,1.4515,1.5258,1.5663,1.5936,0.0,0.0,0.0,0.0,0.0,0.0,0.0,0.0,0.0,0.0,0.0,0.0,0.0,2.2945,2.2974,2.2691,2.2955,2.3091,2.3091,2.3091,2.3091,2.3091,2.3091,2.3091,2.3091,2.3091,2.3091,2.3091,2.3091,2.3091,2.3091,2.3091,2.3091,2.3091,2.3091,2.3091,2.3091,2.3091,2.3091,2.3091,2.3091,2.3091,2.3091,2.3091,2.3091,2.3091,2.3091,2.3091,2.3091,2.3091,2.3091,2.3091,2.3091,2.3091,2.3091,2.3091,2.3091,2.3169,2.3506,2.3906,2.4287,2.458,2.5107,2.5508,2.5508,2.5508,2.5508,2.5508,2.5596,2.5693,2.5693,2.5693,2.5693,2.5693,2.5693,2.5625,2.5527,2.5508,2.5449,2.5255,2.5245,2.5245,2.5245,2.5,2.4844,2.4844,2.456,2.4414,2.4414,2.4277,2.4209,2.4199,2.3769,2.3418,1.6382,1.6132,0.0,1.5498,1.5349,0.0,1.4787,0.0,0.0,0.0,0.0,0.0,0.0,0.0,1.5042,1.6508,1.6627,1.65,0.0,1.6765,0.0,0.0,0.0,0.0,0.0,0.0,2.1083,2.1992,0.0,0.0,0.0,0.0,2.2906,2.2519,2.2877,2.3091,2.3091,2.3091,2.3091,2.3091,2.3091,2.3091,2.3091,2.3091,2.3091,2.3091,2.3091,2.3091,2.3091,2.3091,2.3091,2.3091,2.3091,2.3091,2.3091,2.3091,2.3091,2.3091,2.3091,2.3091,2.3091,2.3091,2.3091,2.3091,2.3091,2.3091,2.3091,2.3091,2.3091,2.3091,2.3091,2.3091,2.3091,2.3091,2.3091,2.3218,2.3691,2.4121,2.4551,2.5028,2.543,2.5693,2.5693,2.5693,2.5693,2.5693,2.5693,2.5693,2.5693,2.5693,2.5693,2.5693,2.5693,2.5693,2.5693,2.5693,2.5693,2.5693,2.5693,2.5693,2.5693,2.5459,2.5303,2.5303,2.5029,2.4836,2.4836,2.4727,2.4648,2.4639,2.4209,2.3867]}]]